[[{"header":{"parameterUnit":"m.s-1","parameterCategory":1,"la1":30.6,"la2":29.2853,"lo1":-89.7004,"lo2":-87.6739,"dy":0.0162,"dx":0.0183,"nx":112,"ny":82,"refTime":"2024-06-26T06:00:00:Z","depth":0,"parameterNumber":2,"parameterNumberName":"U-component_of_WINDS"},"data":[0.0,0.0,0.0,0.0,0.0,0.0,0.0,0.0,0.0,0.0,0.0,0.0,0.0,0.0,0.0,0.0,0.0,0.0,0.0,0.0,0.0,0.0,0.0,0.0,0.0,0.0,0.0,0.0,0.0,0.0,0.0,0.0,0.0,0.0,0.0,0.0,0.0,0.0,0.0,0.0,0.0,0.0,0.0,0.0,0.0,0.0,0.0,0.0,0.0,0.0,0.0,0.0,0.0,0.0,0.0,0.0,0.0,0.0,0.0,0.0,0.0,0.0,0.0,0.0,0.0,0.0,0.0,0.0,0.0,0.0,0.0,0.0,0.0,0.0,0.0,0.0,0.0,0.0,0.0,0.0,0.0,0.0,0.0,0.0,0.0,0.0,0.0,0.0,0.0,0.0,0.0,-2.2573,-2.5812,-2.798,-2.8702,-2.8083,-2.646,-2.3617,0.0,0.0,0.0,0.0,0.0,0.0,0.0,0.0,0.0,0.0,0.0,0.0,0.0,0.0,0.0,0.0,0.0,0.0,0.0,0.0,0.0,0.0,0.0,0.0,0.0,0.0,0.0,0.0,0.0,0.0,0.0,0.0,0.0,0.0,0.0,0.0,0.0,0.0,0.0,0.0,0.0,0.0,0.0,0.0,0.0,0.0,0.0,0.0,0.0,0.0,0.0,0.0,0.0,0.0,0.0,0.0,0.0,0.0,0.0,0.0,0.0,0.0,0.0,0.0,0.0,0.0,0.0,0.0,0.0,0.0,0.0,0.0,0.0,0.0,0.0,0.0,0.0,0.0,0.0,0.0,0.0,0.0,0.0,0.0,0.0,0.0,0.0,0.0,0.0,0.0,0.0,0.0,0.0,0.0,0.0,0.0,0.0,0.0,0.0,0.0,0.0,0.0,0.0,0.0,-2.0589,-2.5355,-2.6958,-2.7921,-2.8504,-2.655,-2.4827,-2.3642,0.0,0.0,0.0,0.0,0.0,0.0,0.0,0.0,0.0,0.0,0.0,0.0,0.0,0.0,0.0,0.0,0.0,0.0,0.0,0.0,0.0,0.0,0.0,0.0,0.0,0.0,0.0,0.0,0.0,0.0,0.0,0.0,0.0,0.0,0.0,0.0,0.0,0.0,0.0,0.0,0.0,0.0,0.0,0.0,0.0,0.0,0.0,0.0,0.0,0.0,0.0,0.0,0.0,0.0,0.0,0.0,0.0,0.0,0.0,0.0,0.0,0.0,0.0,0.0,0.0,0.0,0.0,0.0,0.0,0.0,0.0,0.0,0.0,0.0,0.0,0.0,0.0,0.0,0.0,0.0,0.0,0.0,0.0,0.0,0.0,0.0,0.0,0.0,0.0,0.0,0.0,0.0,0.0,0.0,0.0,0.0,0.0,0.0,0.0,0.0,0.0,0.0,0.0,-1.9673,-2.2259,-2.6084,-2.685,-2.7259,-2.7811,-2.5983,-2.4254,-2.2978,-2.0857,0.0,0.0,0.0,0.0,0.0,0.0,0.0,0.0,0.0,0.0,0.0,0.0,0.0,0.0,0.0,0.0,0.0,0.0,0.0,0.0,0.0,0.0,0.0,0.0,0.0,0.0,0.0,0.0,0.0,0.0,0.0,0.0,0.0,0.0,0.0,0.0,0.0,0.0,0.0,0.0,0.0,0.0,0.0,0.0,0.0,0.0,0.0,0.0,0.0,0.0,0.0,0.0,0.0,0.0,0.0,0.0,0.0,0.0,0.0,0.0,0.0,0.0,0.0,0.0,0.0,0.0,0.0,0.0,0.0,0.0,0.0,0.0,0.0,0.0,0.0,0.0,0.0,0.0,0.0,0.0,0.0,0.0,0.0,0.0,0.0,0.0,0.0,0.0,0.0,0.0,0.0,0.0,0.0,0.0,0.0,0.0,0.0,0.0,0.0,0.0,0.0,0.0,-2.2121,-2.3766,-2.6587,-2.665,-2.6776,-2.7419,-2.5598,-2.3748,-2.2207,-1.9169,0.0,0.0,0.0,0.0,0.0,0.0,0.0,0.0,0.0,0.0,0.0,0.0,0.0,0.0,0.0,0.0,0.0,0.0,0.0,0.0,0.0,0.0,0.0,0.0,0.0,0.0,0.0,0.0,0.0,0.0,0.0,0.0,0.0,0.0,0.0,0.0,0.0,0.0,0.0,0.0,0.0,0.0,0.0,0.0,0.0,0.0,0.0,0.0,0.0,0.0,0.0,0.0,0.0,0.0,0.0,0.0,0.0,0.0,0.0,0.0,0.0,0.0,0.0,0.0,0.0,0.0,0.0,0.0,0.0,0.0,0.0,0.0,0.0,0.0,0.0,0.0,0.0,0.0,0.0,0.0,0.0,0.0,0.0,0.0,0.0,0.0,0.0,0.0,0.0,0.0,0.0,0.0,0.0,0.0,0.0,0.0,0.0,0.0,0.0,0.0,0.0,0.0,-2.2573,-2.4933,-2.7695,-2.7102,-2.6927,-2.7959,-2.5064,-2.2749,-2.1625,-1.7962,0.0,0.0,0.0,0.0,0.0,0.0,0.0,0.0,0.0,0.0,0.0,0.0,0.0,0.0,0.0,0.0,0.0,0.0,0.0,0.0,0.0,0.0,0.0,0.0,0.0,0.0,0.0,0.0,0.0,0.0,0.0,0.0,0.0,0.0,0.0,0.0,0.0,0.0,0.0,0.0,0.0,0.0,0.0,0.0,0.0,0.0,0.0,0.0,0.0,0.0,0.0,0.0,0.0,0.0,0.0,0.0,0.0,0.0,0.0,0.0,0.0,0.0,0.0,0.0,0.0,0.0,0.0,0.0,0.0,0.0,0.0,0.0,0.0,0.0,0.0,0.0,0.0,0.0,0.0,0.0,0.0,0.0,0.0,0.0,0.0,0.0,0.0,0.0,0.0,0.0,0.0,0.0,0.0,0.0,0.0,0.0,0.0,0.0,0.0,0.0,0.0,0.0,-2.251,-2.4519,0.0,-2.6952,-2.6801,-2.7532,-2.5498,-2.3384,-2.1606,0.0,0.0,0.0,0.0,0.0,0.0,0.0,0.0,0.0,0.0,0.0,0.0,0.0,0.0,0.0,0.0,0.0,0.0,0.0,0.0,0.0,0.0,0.0,0.0,0.0,0.0,0.0,0.0,0.0,0.0,0.0,0.0,0.0,0.0,0.0,0.0,0.0,0.0,0.0,0.0,0.0,0.0,0.0,0.0,0.0,0.0,0.0,0.0,0.0,0.0,0.0,0.0,0.0,0.0,0.0,0.0,0.0,0.0,0.0,0.0,0.0,0.0,0.0,0.0,0.0,0.0,0.0,0.0,0.0,0.0,0.0,0.0,0.0,0.0,0.0,0.0,0.0,0.0,0.0,0.0,0.0,0.0,0.0,0.0,0.0,0.0,0.0,0.0,0.0,0.0,0.0,0.0,0.0,0.0,0.0,0.0,0.0,0.0,0.0,0.0,0.0,0.0,-2.0953,-2.2912,-2.4845,0.0,-2.709,-2.6977,-2.7494,-2.5372,-2.3226,-2.1343,0.0,0.0,0.0,0.0,0.0,0.0,0.0,0.0,0.0,0.0,0.0,0.0,0.0,0.0,0.0,0.0,0.0,0.0,0.0,0.0,0.0,0.0,0.0,0.0,0.0,0.0,0.0,0.0,0.0,0.0,0.0,0.0,0.0,0.0,0.0,0.0,0.0,0.0,0.0,0.0,0.0,0.0,0.0,0.0,0.0,0.0,0.0,0.0,0.0,0.0,0.0,0.0,0.0,0.0,0.0,0.0,0.0,0.0,0.0,0.0,0.0,0.0,0.0,0.0,0.0,0.0,0.0,0.0,0.0,0.0,0.0,0.0,0.0,0.0,0.0,0.0,0.0,0.0,0.0,0.0,0.0,0.0,0.0,0.0,0.0,0.0,0.0,0.0,0.0,0.0,0.0,0.0,0.0,0.0,0.0,0.0,0.0,0.0,0.0,0.0,0.0,0.0,-2.1054,-2.3891,-2.6239,-2.7934,-2.762,-2.7507,-2.8059,-2.4556,-2.187,0.0,0.0,0.0,0.0,0.0,0.0,0.0,0.0,0.0,0.0,0.0,0.0,0.0,0.0,0.0,0.0,0.0,0.0,0.0,0.0,0.0,0.0,0.0,0.0,0.0,0.0,0.0,0.0,0.0,0.0,0.0,0.0,0.0,0.0,0.0,0.0,0.0,0.0,0.0,0.0,0.0,0.0,0.0,0.0,0.0,0.0,0.0,0.0,0.0,0.0,0.0,0.0,0.0,0.0,0.0,0.0,0.0,0.0,0.0,0.0,0.0,0.0,0.0,0.0,0.0,0.0,0.0,0.0,0.0,0.0,0.0,0.0,0.0,0.0,0.0,0.0,0.0,0.0,0.0,0.0,0.0,0.0,0.0,0.0,0.0,0.0,0.0,0.0,0.0,0.0,0.0,0.0,0.0,0.0,0.0,0.0,0.0,0.0,0.0,0.0,0.0,0.0,0.0,-2.1054,-2.3891,-2.6239,-2.7934,-2.7959,-2.7934,-2.8097,-2.5636,-2.3276,-2.1395,0.0,0.0,0.0,0.0,0.0,0.0,0.0,0.0,0.0,0.0,0.0,0.0,0.0,0.0,0.0,0.0,0.0,0.0,0.0,0.0,0.0,0.0,0.0,0.0,0.0,0.0,0.0,0.0,0.0,0.0,0.0,0.0,0.0,0.0,0.0,0.0,0.0,0.0,0.0,0.0,0.0,0.0,0.0,0.0,0.0,0.0,0.0,0.0,0.0,0.0,0.0,0.0,0.0,0.0,0.0,0.0,0.0,0.0,0.0,0.0,0.0,0.0,0.0,0.0,0.0,0.0,0.0,0.0,0.0,0.0,0.0,0.0,0.0,0.0,0.0,0.0,0.0,0.0,0.0,0.0,0.0,0.0,0.0,0.0,0.0,0.0,0.0,0.0,0.0,0.0,0.0,0.0,0.0,0.0,0.0,0.0,0.0,0.0,0.0,0.0,0.0,0.0,-2.1418,-2.4418,-2.6829,-2.8285,-2.8436,-2.8348,-2.8122,-2.6088,-2.3766,-2.1345,0.0,0.0,0.0,0.0,0.0,0.0,0.0,0.0,0.0,0.0,0.0,0.0,0.0,0.0,0.0,0.0,0.0,0.0,0.0,0.0,0.0,0.0,0.0,0.0,0.0,0.0,0.0,0.0,0.0,0.0,0.0,0.0,0.0,0.0,0.0,0.0,0.0,0.0,0.0,0.0,0.0,0.0,0.0,0.0,0.0,0.0,0.0,0.0,0.0,0.0,0.0,0.0,0.0,0.0,0.0,0.0,0.0,0.0,0.0,0.0,0.0,0.0,0.0,0.0,0.0,0.0,0.0,0.0,0.0,0.0,0.0,0.0,0.0,0.0,0.0,0.0,0.0,0.0,0.0,0.0,0.0,0.0,0.0,0.0,0.0,0.0,0.0,0.0,0.0,0.0,0.0,0.0,0.0,0.0,0.0,0.0,0.0,0.0,0.0,0.0,0.0,0.0,-2.1958,-2.5222,-2.7708,-2.8775,-2.8938,-2.8725,-2.816,-2.6176,-2.3803,-2.1094,0.0,0.0,0.0,0.0,0.0,0.0,0.0,0.0,0.0,0.0,0.0,0.0,0.0,0.0,0.0,0.0,0.0,0.0,0.0,0.0,0.0,0.0,0.0,0.0,0.0,0.0,0.0,0.0,0.0,0.0,0.0,0.0,0.0,0.0,0.0,0.0,0.0,0.0,0.0,0.0,0.0,0.0,0.0,0.0,0.0,0.0,0.0,0.0,0.0,0.0,0.0,0.0,0.0,0.0,0.0,0.0,0.0,0.0,0.0,0.0,-1.7083,0.0,0.0,0.0,0.0,0.0,0.0,0.0,0.0,0.0,0.0,0.0,0.0,0.0,0.0,0.0,0.0,0.0,0.0,0.0,0.0,0.0,0.0,0.0,0.0,0.0,0.0,0.0,0.0,0.0,0.0,0.0,0.0,0.0,0.0,0.0,0.0,0.0,0.0,0.0,0.0,0.0,-2.1958,-2.5222,-2.7708,-2.8775,-2.934,-2.9202,-2.8197,-2.6879,-2.5109,-2.2732,-1.961,0.0,0.0,0.0,0.0,0.0,0.0,0.0,0.0,0.0,0.0,0.0,0.0,0.0,0.0,0.0,0.0,0.0,0.0,0.0,0.0,0.0,0.0,0.0,0.0,0.0,0.0,0.0,0.0,0.0,0.0,0.0,0.0,0.0,0.0,0.0,0.0,0.0,0.0,0.0,0.0,0.0,0.0,0.0,0.0,0.0,0.0,0.0,0.0,0.0,0.0,0.0,0.0,0.0,0.0,0.0,0.0,0.0,0.0,0.0,0.0,-1.8664,0.0,0.0,0.0,0.0,0.0,0.0,0.0,0.0,0.0,0.0,0.0,0.0,0.0,0.0,0.0,0.0,0.0,0.0,0.0,0.0,0.0,0.0,0.0,0.0,0.0,0.0,0.0,0.0,0.0,0.0,0.0,0.0,0.0,0.0,0.0,0.0,0.0,0.0,0.0,0.0,-2.2799,-2.5787,-2.8109,-2.9227,-2.9616,-2.944,-2.8574,-2.7494,-2.6025,-2.4036,-2.133,0.0,0.0,0.0,0.0,0.0,0.0,0.0,0.0,0.0,0.0,0.0,0.0,0.0,0.0,0.0,0.0,0.0,0.0,0.0,0.0,0.0,0.0,0.0,0.0,0.0,0.0,0.0,0.0,0.0,0.0,0.0,0.0,0.0,0.0,0.0,0.0,0.0,0.0,0.0,0.0,0.0,0.0,0.0,0.0,0.0,0.0,0.0,0.0,0.0,0.0,0.0,0.0,0.0,-1.9023,-1.9229,-1.9419,-1.9556,-2.0021,-2.0815,-2.1391,-2.2171,-2.2887,0.0,0.0,0.0,0.0,0.0,0.0,0.0,0.0,0.0,0.0,0.0,0.0,0.0,0.0,0.0,0.0,0.0,0.0,0.0,0.0,0.0,0.0,0.0,0.0,0.0,-2.4612,-2.4462,0.0,0.0,0.0,0.0,0.0,0.0,0.0,0.0,0.0,0.0,0.0,0.0,-2.3991,-2.6603,-2.8649,-2.9679,-2.9792,-2.9566,-2.8938,-2.8097,-2.6866,-2.5209,-2.3201,-2.1117,0.0,0.0,0.0,0.0,0.0,0.0,0.0,0.0,0.0,0.0,0.0,0.0,0.0,0.0,0.0,0.0,0.0,0.0,0.0,0.0,0.0,0.0,0.0,0.0,0.0,0.0,0.0,0.0,0.0,0.0,0.0,0.0,-1.4299,-1.4437,0.0,0.0,0.0,0.0,0.0,0.0,0.0,0.0,0.0,0.0,0.0,0.0,0.0,-1.8645,-1.8945,-2.0712,-2.1715,-2.1934,-2.3047,-2.4087,-2.4997,-2.4068,-2.4706,-2.6538,-2.5733,0.0,-2.2684,-2.1627,0.0,0.0,0.0,0.0,0.0,0.0,0.0,0.0,0.0,0.0,0.0,0.0,0.0,0.0,0.0,0.0,0.0,0.0,0.0,0.0,0.0,0.0,-2.7243,-2.6829,-2.7218,-2.7406,0.0,-2.3653,-2.1131,-2.0214,-1.8994,0.0,0.0,0.0,0.0,0.0,0.0,0.0,-2.5096,-2.7394,-2.9026,-2.9729,-2.9792,-2.9566,-2.8938,-2.8762,-2.8009,-2.6386,-2.5071,-2.359,-2.1845,-1.9835,0.0,0.0,0.0,0.0,0.0,0.0,0.0,0.0,0.0,0.0,0.0,0.0,0.0,0.0,0.0,0.0,0.0,0.0,0.0,0.0,0.0,0.0,0.0,0.0,0.0,0.0,0.0,0.0,0.0,-1.4236,-1.6196,-1.4699,-1.5503,-1.5646,0.0,0.0,0.0,0.0,0.0,0.0,0.0,0.0,0.0,-1.9177,-2.085,-2.1778,-2.1816,-2.3677,-2.4365,-2.3955,-2.4775,-2.5384,-2.5846,-2.5346,-2.5647,-2.6553,-2.607,-2.5688,-2.5229,-2.3776,-2.2896,-2.2275,0.0,0.0,0.0,0.0,-2.22,-2.2534,-2.5046,-2.5611,0.0,-2.477,0.0,0.0,0.0,0.0,0.0,0.0,0.0,0.0,0.0,0.0,-2.8038,-2.7825,-2.8423,-2.8988,-2.875,-2.7105,-2.5146,0.0,-2.2912,-2.2024,-1.9309,0.0,0.0,0.0,0.0,-2.4406,-2.6302,-2.7946,-2.9113,-2.9729,-2.9792,-2.9691,-2.944,-2.9076,-2.8486,-2.7444,-2.6352,-2.5134,-2.3747,-2.1854,-2.0061,0.0,0.0,0.0,0.0,0.0,0.0,0.0,0.0,0.0,0.0,0.0,0.0,0.0,0.0,0.0,0.0,0.0,0.0,0.0,0.0,0.0,0.0,0.0,0.0,0.0,0.0,0.0,0.0,-1.6237,-1.7908,-1.5356,-1.7092,-1.7584,0.0,0.0,0.0,0.0,0.0,0.0,-1.8936,-1.9814,-2.0723,-2.173,-2.3509,-2.4429,-2.4443,-2.5906,-2.629,-2.5576,-2.5908,-2.6015,-2.6015,-2.6015,-2.6015,-2.6015,-2.6015,-2.6525,-2.7174,-2.5584,-2.4672,-2.4227,-2.3142,-2.2312,-2.203,-2.4026,-2.4566,-2.4622,-2.7143,-2.7892,-2.7748,-2.7397,0.0,-2.6813,-2.5089,0.0,0.0,0.0,0.0,-2.5814,-2.6818,-2.8,-2.8949,-2.8934,-2.9591,-3.0206,-3.0206,-2.9867,-2.8787,0.0,-2.6201,-2.5695,-2.2502,0.0,0.0,0.0,0.0,-2.6,-2.7507,-2.8549,-2.9315,-2.9741,-2.9792,-2.9792,-2.9792,-2.9402,-2.885,-2.8147,-2.7331,-2.6327,-2.5071,-2.369,-2.2159,-2.0476,0.0,0.0,0.0,0.0,0.0,0.0,0.0,0.0,0.0,0.0,0.0,0.0,0.0,0.0,0.0,0.0,0.0,0.0,0.0,0.0,0.0,0.0,0.0,0.0,0.0,0.0,0.0,0.0,0.0,-1.7588,-2.0064,0.0,0.0,0.0,0.0,-1.8437,-1.9248,-2.0293,-2.1621,-2.2542,-2.3589,-2.4851,-2.4996,-2.5457,-2.625,-2.6348,-2.6573,-2.6914,-2.6943,-2.6953,-2.6953,-2.6953,-2.6953,-2.6953,-2.6953,-2.6953,-2.6958,-2.6161,-2.5892,-2.5988,-2.6148,-2.4975,-2.3414,-2.6134,-2.6352,-2.5539,-2.7139,-2.7372,-2.7217,-2.8885,-2.9135,-2.875,-2.8637,-2.7041,0.0,0.0,-2.82,-2.8251,-3.0509,-3.1157,-3.1235,-3.1245,-3.127,-3.1311,-3.1311,-3.1286,-3.0608,0.0,-2.7557,-2.6841,-2.5561,0.0,-2.5611,-2.616,-2.6788,-2.757,-2.8662,-2.9377,-2.9767,-2.9792,-2.9792,-2.9792,-2.9792,-2.9767,-2.9277,-2.8172,-2.8059,-2.7281,-2.5624,-2.5008,-2.3904,-2.2221,-1.9998,0.0,0.0,0.0,0.0,0.0,0.0,0.0,0.0,0.0,0.0,0.0,0.0,0.0,0.0,0.0,0.0,0.0,0.0,0.0,0.0,0.0,0.0,0.0,0.0,0.0,0.0,0.0,0.0,-1.8996,-2.1324,0.0,-1.9047,-1.9321,-1.9951,-2.0674,-2.1523,-2.2568,-2.3912,-2.4502,-2.5156,-2.5898,-2.6182,-2.6475,-2.6787,-2.707,-2.7422,-2.7842,-2.8115,-2.8389,-2.8662,-2.8662,-2.8662,-2.8643,-2.8359,-2.8242,-2.8144,-2.7379,-2.7173,-2.7322,-2.7144,-2.7024,-2.7024,-2.8042,-2.8363,-2.8298,-2.8187,-2.8255,-2.8388,-2.8368,-2.8241,-2.8138,-2.8138,-2.8099,-2.8265,-2.9104,-2.9724,-3.0184,-3.0345,-3.0318,-3.0264,-3.036,-3.0318,-3.0431,-3.121,-3.1386,-3.116,-3.0369,-2.9792,-2.8837,-2.7005,-2.7268,-2.757,-2.7102,-2.7758,-2.8624,-2.939,-2.9666,-2.9792,-2.9792,-2.9792,-2.9792,-2.9792,-2.9453,-2.8913,-2.816,-2.7444,-2.665,-2.5636,-2.4757,-2.381,-2.2832,-2.1368,-1.9346,0.0,0.0,0.0,0.0,0.0,0.0,0.0,0.0,0.0,0.0,0.0,0.0,0.0,0.0,0.0,0.0,0.0,0.0,0.0,0.0,0.0,0.0,0.0,0.0,0.0,0.0,-2.315,-2.0112,-2.2412,-2.3235,-2.0642,-2.1279,-2.2168,-2.29,-2.3623,-2.4463,-2.5507,-2.5928,-2.6367,-2.6807,-2.7226,-2.751,-2.7656,-2.8086,-2.8447,-2.873,-2.9004,-2.9287,-2.9626,-2.9626,-2.9626,-2.9551,-2.9258,-2.9141,-2.9092,-2.8535,-2.8413,-2.8482,-2.8056,-2.8067,-2.8381,-2.8798,-2.8918,-2.8823,-2.8157,-2.8408,-2.8936,-2.8305,-2.825,-2.8478,-2.8478,-2.8678,-2.9005,-2.9398,-2.9844,-3.0059,-2.9757,-2.9584,-2.9529,-2.9627,-2.9584,-2.9746,-3.0543,-3.1064,-3.128,-3.1095,-3.0979,-3.0344,-2.8699,-2.9013,-2.9189,-2.8273,-2.875,-2.9365,-2.9741,-2.9792,-2.9792,-2.9792,-2.9792,-2.9792,-2.9792,-2.9264,-2.865,-2.8134,-2.7278,-2.6436,-2.5624,-2.4745,-2.3885,-2.312,-2.187,-2.0239,-1.8191,0.0,0.0,0.0,0.0,0.0,0.0,0.0,0.0,0.0,0.0,0.0,0.0,0.0,0.0,0.0,0.0,0.0,0.0,0.0,0.0,0.0,0.0,0.0,-1.842,-2.2024,-2.3776,-2.1033,-2.3502,-2.4676,-2.2752,-2.3721,-2.4639,-2.5125,-2.5527,-2.5977,-2.6426,-2.6836,-2.7266,-2.7767,-2.8125,-2.8525,-2.8935,-2.9355,-2.9636,-2.9646,-2.9646,-2.9655,-2.9665,-2.9665,-2.9665,-2.9665,-2.9655,-2.9646,-2.9646,-2.9636,-2.9626,-2.9561,-2.9003,-2.8086,-2.7214,-2.8357,-2.8056,-2.7031,-2.7031,-2.7794,-2.8734,-2.8734,-2.9252,-2.9911,-2.9911,-2.8849,-2.7857,-2.9037,-2.8585,-2.7951,-2.913,-2.9395,-2.9383,-2.9429,-2.9418,-2.9407,-2.9453,-3.0406,-3.1124,-3.0612,-3.1013,-3.1273,-3.0733,-3.0633,-3.0457,-2.993,-2.9829,0.0,-2.9817,-2.9804,-2.9792,-2.9792,-2.9792,-2.9792,-2.9792,-2.9264,-2.865,-2.8134,-2.7557,-2.6741,-2.5661,-2.5109,-2.4286,-2.3208,-2.1594,-2.0478,-1.9874,0.0,0.0,0.0,0.0,0.0,0.0,0.0,0.0,0.0,0.0,0.0,0.0,0.0,0.0,0.0,0.0,0.0,0.0,0.0,0.0,0.0,0.0,-2.1356,-2.0075,-2.2987,-2.4658,-2.3113,-2.4693,-2.5519,-2.4493,-2.498,-2.5557,-2.5996,-2.6426,-2.6982,-2.7725,-2.7871,-2.8281,-2.9078,-2.916,-2.9277,-2.9394,-2.9567,-2.9726,-3.0029,-3.0029,-3.0195,-3.0527,-3.0527,-3.0527,-3.0508,-3.0166,-3.0029,-3.0,-2.9697,-2.9626,-2.9548,-2.906,-2.8647,-2.8359,-2.8397,-2.8048,-2.749,-2.749,-2.7523,-2.7491,-2.7491,-2.7653,-2.7843,-2.7843,-2.8138,-2.8565,-2.8896,-2.937,-2.9899,-3.0281,-2.9456,-2.8767,-2.9653,-2.9607,-2.9636,-3.0541,-3.1689,-3.2519,-3.237,-3.2491,-3.2303,-3.1348,-3.1173,-3.1122,-3.0972,-3.0633,0.0,-3.0394,-3.0043,-2.9792,-2.9792,-2.9792,-2.9792,-2.9792,-2.9264,-2.865,-2.8134,-2.6816,-2.6101,-2.6248,-2.5322,-2.4858,-2.4921,-2.3271,-2.2184,0.0,0.0,0.0,0.0,0.0,0.0,0.0,0.0,0.0,0.0,0.0,0.0,0.0,0.0,0.0,0.0,0.0,0.0,0.0,0.0,0.0,0.0,-2.1145,-2.2692,-2.2266,-2.4054,-2.5157,-2.4437,-2.5291,-2.5883,-2.5673,-2.6016,-2.6455,-2.6894,-2.7314,-2.7842,-2.8525,-2.873,-2.9053,-2.9551,-2.9736,-2.9834,-2.9834,-3.0029,-3.0244,-3.0488,-3.0488,-3.0635,-3.0889,-3.0889,-3.0889,0.0,-3.0605,-3.0488,-3.0469,-3.0225,-3.0117,0.0,0.0,0.0,0.0,0.0,-2.8291,-2.793,-2.793,-2.7764,-2.7549,-2.7549,-2.7432,-2.7285,-2.7285,-2.764,-2.8066,-2.8066,-2.8605,-2.9141,-2.9141,-2.8408,-2.7877,-2.8582,-2.8576,-2.8561,-2.9055,-3.0582,-3.1764,-3.1605,-3.2382,0.0,-3.2215,-3.1888,-3.165,-3.1424,-3.1135,-3.0947,-3.0947,-3.047,-3.0143,-3.0143,-2.993,-2.9792,-2.9792,-2.9264,0.0,0.0,0.0,-2.659,-2.6499,-2.5611,0.0,0.0,0.0,0.0,0.0,0.0,0.0,0.0,-2.2523,-2.2548,0.0,0.0,0.0,0.0,0.0,0.0,0.0,0.0,0.0,0.0,0.0,0.0,0.0,0.0,0.0,0.0,-2.3084,-2.4016,-2.4408,-2.5042,-2.5384,-2.5191,-2.5537,-2.6006,-2.6484,-2.6865,-2.7285,-2.7826,-2.8154,-2.8564,-2.9033,0.0,0.0,0.0,0.0,-3.0273,-3.0273,-3.0684,-3.0889,-3.0889,-3.0889,-3.0889,-3.0889,-3.0889,-3.0889,-3.0889,-3.0889,-3.0889,-3.0889,-3.0889,-3.0889,-3.081,-2.9971,-2.9665,-2.9521,-2.9141,-2.876,-2.8428,-2.8379,0.0,0.0,-2.831,-2.8047,-2.7787,-2.7787,-2.7471,-2.7158,-2.7158,-2.7158,-2.7158,-2.7158,-2.7129,-2.709,-2.709,-2.7143,-2.7107,-2.6733,-2.8479,-2.9974,-2.954,-3.1374,-3.2959,-3.2896,-3.2557,-3.2139,-3.165,-3.1524,-3.1486,-3.1486,-3.1022,-3.0683,-3.062,0.0,0.0,-2.9804,-2.9315,-2.8963,-2.8888,-2.8461,-2.7733,-2.6725,-2.6214,-2.6214,-2.6763,-2.6713,-2.7165,-2.8109,-2.8172,-2.8197,-2.8134,-2.5076,-2.4474,0.0,0.0,0.0,0.0,0.0,0.0,0.0,0.0,0.0,0.0,0.0,0.0,0.0,0.0,0.0,-2.1958,-2.3254,-2.4431,-2.49,-2.5366,-2.565,-2.5586,-2.5996,-2.6572,-2.7344,-2.7542,-2.7851,-2.8613,-2.875,-2.9131,-2.9912,-3.0029,0.0,-3.0625,-3.0713,-3.0752,-3.0752,-3.084,-3.0889,-3.0889,0.0,0.0,-3.0889,-3.0889,-3.0889,-3.0889,-3.0889,-3.0889,-3.0889,-3.0889,-3.0889,-3.084,-3.0293,-2.9863,-2.9616,-2.9473,-2.9394,-2.9268,-2.8916,-2.8799,-2.874,-2.8398,-2.8232,-2.8174,-2.8174,-2.8115,0.0,-2.8047,-2.8047,-2.8047,-2.8047,-2.7793,-2.7539,-2.7539,-2.7994,-2.8425,-2.8342,-2.9521,-3.0429,-2.9985,-3.1112,-3.2004,-3.1617,-3.2327,-3.2867,-3.281,-3.2353,-3.2051,-3.2051,-3.1574,-3.1085,-3.0658,-3.052,-3.0281,-2.9829,-2.9691,-2.9428,-2.8913,-2.8787,-2.8473,-2.7821,-2.8109,-2.8298,-2.8411,-2.8009,-2.7896,-2.8109,-2.8512,-2.8737,-2.8712,-2.7657,-2.7557,0.0,0.0,0.0,0.0,0.0,0.0,0.0,0.0,0.0,0.0,0.0,-2.152,-2.125,0.0,-2.3168,-2.3462,-2.4375,-2.5225,-2.5664,-2.6103,-2.6299,-2.6084,-2.6631,-2.7197,-2.7679,-2.8047,-2.8467,-2.8887,-2.9316,-2.9746,-3.0176,-3.042,-3.0644,-3.0889,-3.0889,-3.0889,-3.0889,-3.0889,-3.0889,-3.0889,-3.0889,-3.0889,-3.0889,-3.0889,-3.0889,-3.0889,-3.0889,-3.0889,-3.0889,-3.0889,-3.0889,-3.0869,-3.0635,-3.0273,-2.9883,-2.9883,-2.9756,-2.9597,-2.9316,-2.9248,-2.918,-2.874,-2.8603,-2.8564,-2.8359,-2.8291,-2.8291,-2.8291,-2.8291,-2.8291,-2.8291,-2.8135,-2.7978,-2.7978,-2.8254,-2.848,-2.8309,-2.9239,-3.0171,-3.0403,-3.1448,-3.2325,-3.2495,-3.3064,-3.3395,-3.3162,-3.283,-3.2641,-3.2641,-3.2152,-3.17,-3.1436,-3.1173,-3.0783,-3.0244,-2.9942,-2.9666,-2.9377,-2.9365,-2.9239,-2.8963,-2.9214,-2.9365,-2.9365,-2.9089,-2.895,-2.895,-2.9227,-2.9503,-2.9728,-2.949,-2.9503,0.0,0.0,0.0,0.0,0.0,0.0,0.0,0.0,-2.2115,-2.2207,-2.2908,-2.3504,-2.3552,-2.3728,-2.4157,-2.5057,-2.5576,-2.6016,-2.6445,-2.6875,-2.7012,-2.668,-2.7246,-2.7748,-2.7836,-2.8476,-2.8955,-2.9033,-2.9766,-3.0234,-3.0322,-3.0684,-3.0889,-3.0889,-3.0889,-3.0889,-3.0889,-3.0889,-3.0889,-3.0889,-3.0889,-3.0889,-3.0889,-3.0889,-3.0889,-3.0889,-3.0889,-3.0889,-3.0889,-3.0889,-3.0889,-3.0889,-3.0889,-3.0664,-3.0332,-3.0332,-3.0117,-2.9814,-2.9726,-2.9744,-2.9619,-2.918,-2.8984,-2.8857,-2.8516,-2.8359,-2.8291,-2.8291,-2.8291,-2.8291,-2.8291,-2.8291,-2.8291,-2.8291,-2.8291,-2.8203,-2.7914,-2.8776,-2.9878,-3.0547,-3.1836,-3.3025,-3.3632,-3.3915,-3.3834,-3.3224,-3.3124,-3.3124,-3.3124,-3.2667,-3.234,-3.2227,-3.1813,-3.1336,-3.0809,-3.0269,-2.9955,-2.9955,-2.9854,-2.9792,-2.9792,-2.9792,-2.9792,-2.9792,-2.9892,-2.9955,-2.9955,-3.0055,-3.0331,-3.0771,-3.0771,-3.0771,-1.7207,-1.8134,-1.9422,-2.0865,-2.126,-2.2339,0.0,0.0,-2.4485,-2.5666,-2.6538,-2.6443,-2.4161,-2.5148,-2.6161,-2.5711,-2.6025,-2.6465,-2.6885,-2.7314,-2.7578,-2.7581,-2.766,-2.7812,-2.8184,-2.8643,-2.9082,-2.9473,-2.9932,-3.0371,-3.0791,-3.0859,-3.0889,-3.0889,-3.0889,-3.0889,-3.0889,-3.0889,-3.0889,-3.0889,-3.0889,-3.0889,-3.0889,-3.0889,-3.0889,-3.0889,-3.0889,-3.0889,-3.0889,-3.0889,-3.0889,-3.0889,-3.0889,-3.0859,-3.081,-3.081,-3.0781,-3.0684,-3.0264,-3.0127,-3.0059,-2.9639,-2.9238,-2.8906,-2.8867,-2.8584,-2.8291,-2.8291,-2.8291,-2.8291,-2.8291,-2.8291,-2.8291,-2.8291,-2.8291,-2.8281,-2.8232,-2.9284,-3.0159,-2.9859,-3.1769,-3.3327,-3.3049,-3.3921,-3.4274,-3.3232,-3.3124,-3.3124,-3.3124,-3.3061,-3.278,-3.2265,-3.2152,-3.1901,-3.1348,-3.0821,-3.052,-3.052,-3.0068,-2.9792,-2.9792,-2.9792,-2.9792,-2.9792,-3.0269,-3.052,-3.052,-3.0984,-3.1248,-3.1298,-3.1298,-3.1298,-2.1098,-2.1926,0.0,0.0,-2.4929,-2.6321,-2.6487,-2.6782,-2.6864,-2.6378,-2.6699,-2.678,-2.567,-2.5809,-2.6106,0.0,-2.6475,-2.6904,-2.7334,-2.7559,-2.7718,-2.7718,-2.7718,-2.7885,-2.8252,-2.8906,-2.9375,-2.9616,-3.0215,-3.0684,-3.0879,-3.0889,-3.0889,-3.0889,-3.0889,-3.0889,-3.0889,-3.0889,-3.0889,-3.0889,-3.0889,-3.0889,-3.0889,-3.0889,-3.0889,-3.0889,-3.0889,-3.0889,-3.0889,-3.0889,-3.0889,-3.0889,-3.0889,-3.0889,-3.0889,-3.0889,-3.0889,-3.0859,-3.0674,-3.0605,-3.0527,-3.0078,-2.9814,-2.957,-2.9072,-2.8789,-2.8603,-2.8359,-2.8291,-2.8291,-2.8291,-2.8291,-2.8291,-2.8291,-2.8291,-2.8291,-2.8291,-2.9355,-3.0461,-3.1066,-3.2735,-3.4126,-3.4375,-3.481,-3.4893,-3.4161,-3.3759,-3.3432,-3.3162,-3.3124,-3.298,-3.2742,-3.2416,-3.2127,-3.1888,-3.1373,-3.1072,-3.1072,-3.0846,-3.0721,-3.0721,-3.0721,-3.0721,-3.0721,-3.0947,-3.1072,-3.1072,-3.1286,-3.1549,-3.1863,-3.1863,-3.2051,-2.3266,0.0,0.0,-2.5326,-2.7354,-2.8727,-2.6583,-2.7489,-2.8262,-2.6623,-2.6518,-2.6645,-2.6331,-2.5884,-2.5732,-2.6299,-2.6738,-2.7207,-2.7764,-2.7796,-2.7718,-2.7718,-2.7611,-2.7656,-2.8076,-2.8887,-2.9443,-2.9616,-3.0273,-3.0752,-3.0889,-3.0889,-3.0889,-3.0889,-3.0889,-3.0889,-3.0889,-3.0889,-3.0889,-3.0889,-3.0889,-3.0889,-3.0889,-3.0889,-3.0889,-3.0889,-3.0889,-3.0889,-3.0889,-3.0889,-3.0889,-3.0889,-3.0889,-3.0889,-3.0889,-3.0889,-3.0889,-3.0889,-3.0889,-3.0889,-3.083,-3.0498,-3.0303,-3.0078,-2.9463,-2.9189,-2.9014,-2.8584,-2.8467,-2.8437,-2.832,-2.8291,-2.8291,-2.8291,-2.8291,-2.8291,-2.8291,-2.9355,-3.0721,-3.2028,-3.3464,-3.4703,-3.5597,-3.5768,-3.5533,-3.4981,-3.4613,-3.4098,-3.3395,-3.3212,-3.3124,-3.3124,-3.2704,-3.2453,-3.2453,-3.1938,-3.1625,-3.1625,-3.1474,-3.1386,-3.1386,-3.1386,-3.1386,-3.1386,-3.1537,-3.1625,-3.1625,-3.1775,-3.2064,-3.2453,-3.2453,-3.2754,0.0,0.0,-2.5218,-2.619,-2.7218,-2.7924,-2.7863,-2.8209,-2.8231,-2.6936,-2.6783,-2.6527,-2.5342,-2.5125,-2.5419,-2.625,-2.6738,-2.7314,-2.8154,-2.792,-2.7718,-2.7718,-2.7295,-2.7207,0.0,-2.8447,-2.9111,-2.9597,-2.9971,-3.042,-3.0869,-3.0889,-3.0889,-3.0889,-3.0889,-3.0889,-3.0889,-3.0889,-3.0889,-3.0889,-3.0889,-3.0889,-3.0889,-3.0889,-3.0889,-3.0889,-3.0889,-3.0889,-3.0889,-3.0889,-3.0889,-3.0889,-3.0889,-3.0889,-3.0889,-3.0889,-3.0889,-3.0889,-3.0889,-3.0889,-3.0889,-3.0869,-3.0566,-3.0195,-3.0166,-2.9873,-2.9453,-2.9023,-2.8896,-2.8809,-2.8398,-2.8291,-2.8291,-2.8291,-2.8291,-2.8291,-2.8291,-2.9355,-3.0721,-3.2028,-3.3464,-3.4824,-3.6143,-3.638,-3.6157,-3.5558,-3.5458,-3.5056,-3.401,-3.3407,-3.3124,-3.3124,-3.3056,-3.3056,-3.3056,-3.2516,-3.219,-3.219,-3.1687,-3.1386,-3.1386,-3.1386,-3.1386,-3.1386,-3.1913,-3.219,-3.219,-3.2754,-3.3074,-3.3056,-3.3056,-3.3345,0.0,0.0,-2.7419,-2.666,-2.8631,-3.0307,-2.8739,-2.8556,-2.8365,-2.7105,-2.5957,-2.5129,-2.4722,-2.4639,-2.5019,-2.6201,-2.6504,-2.7002,-2.8135,-2.793,-2.7559,-2.7266,-2.7363,0.0,0.0,0.0,0.0,-2.9512,-2.9961,-3.04,-3.0869,-3.0889,-3.0889,-3.0889,-3.0889,-3.0889,-3.0889,-3.0889,-3.0889,-3.0889,-3.0889,-3.0889,-3.0889,-3.0889,-3.0889,-3.0889,-3.0889,-3.0889,-3.0889,-3.0889,-3.0889,-3.0889,-3.0889,-3.0889,-3.0889,-3.0889,-3.0889,-3.0889,-3.0889,-3.0889,-3.0889,-3.0889,-3.0781,-3.0605,-3.0293,-3.0098,-2.9902,-2.9473,-2.9346,-2.9248,-2.8818,-2.8711,-2.8643,-2.8359,-2.8291,-2.8291,-2.8291,-3.0068,-3.1785,-3.223,-3.4154,-3.587,-3.631,-3.6405,-3.6182,-3.5583,-3.4868,-3.4324,-3.3947,-3.342,-3.3124,-3.3124,-3.3124,-3.3124,-3.3124,-3.2893,-3.278,-3.278,-3.2616,-3.2516,-3.2516,-3.2516,-3.2516,-3.2516,-3.2692,-3.278,-3.278,-3.298,-3.3269,-3.3621,-3.3621,-3.3922,0.0,-2.8311,-2.9094,-2.8644,-2.9743,-3.0536,-2.9024,-2.8365,-2.7692,-2.6113,-2.5017,-2.4236,-2.382,-2.3613,-2.4043,-2.5654,-2.6055,-2.665,-2.8096,-2.793,-2.7617,-2.749,-2.7588,-2.7676,0.0,0.0,0.0,-2.9577,-2.9961,-3.04,-3.0869,-3.0889,-3.0889,-3.0889,-3.0889,-3.0889,-3.0889,-3.0889,-3.0889,-3.0889,-3.0889,-3.0889,-3.0889,-3.0889,-3.0889,-3.0889,-3.0889,-3.0889,-3.0889,-3.0889,-3.0889,-3.0889,-3.0889,-3.0889,-3.0889,-3.0889,-3.0889,-3.0889,-3.0889,-3.0889,-3.0889,-3.0889,-3.0889,-3.083,-3.0537,-3.0449,-3.0351,-2.9912,-2.9795,-2.9697,-2.9258,-2.915,-2.9043,-2.8623,-2.8516,-2.8476,-2.833,-3.0016,-3.1724,-3.2191,-3.4142,-3.581,-3.631,-3.6405,-3.6292,-3.5893,-3.5064,-3.4412,-3.4223,-3.3884,-3.3583,-3.3395,-3.337,-3.3294,-3.3136,-3.3124,-3.3124,-3.3124,-3.3124,-3.3124,-3.3124,-3.3124,-3.3124,-3.3124,-3.3269,-3.337,-3.337,-3.3571,-3.3847,-3.4198,-3.4198,-3.4487,-2.8637,-2.944,-3.0281,-3.1743,-3.0395,-2.8723,-2.8779,-2.7769,-2.6246,-2.4217,-2.3949,-2.3753,0.0,0.0,-2.2539,-2.4675,-2.54,-2.6288,-2.8057,-2.7969,-2.7881,0.0,0.0,0.0,0.0,0.0,0.0,-2.9626,0.0,-3.04,-3.0869,-3.0889,-3.0889,-3.0889,-3.0889,-3.0889,-3.0889,-3.0889,-3.0889,-3.0889,-3.0889,-3.0889,-3.0889,-3.0889,-3.0889,-3.0889,-3.0889,-3.0889,-3.0889,-3.0889,-3.0889,-3.0889,-3.0889,-3.0889,-3.0889,-3.0889,-3.0889,-3.0889,-3.0889,-3.0889,-3.0889,-3.0889,-3.0889,-3.0889,-3.0889,-3.0889,-3.0801,-3.0361,-3.0234,-3.0137,-2.9717,-2.96,-2.9492,-2.9053,-2.8955,-2.8838,-2.8447,-2.9459,-3.0805,-3.2072,-3.3525,-3.4933,-3.6156,-3.6405,-3.6405,-3.6405,-3.5918,-3.5345,-3.4793,-3.4738,-3.4525,-3.3997,-3.3935,-3.3721,-3.3206,-3.3156,-3.3156,-3.3156,-3.3156,-3.3156,-3.3156,-3.3156,-3.3156,-3.3156,-3.3671,-3.3935,-3.3935,-3.4462,-3.4693,-3.4718,-3.4718,-3.5019,-2.9264,-3.057,-3.1481,-3.0955,-3.045,-2.9884,-2.9002,-2.7086,-2.5156,-2.3992,-2.2554,-2.1242,-2.0301,0.0,0.0,-2.3443,-2.4824,0.0,-2.8057,-2.8467,0.0,0.0,0.0,-2.9043,-2.8926,-2.9492,0.0,0.0,-3.0137,-3.04,-3.0869,-3.0889,-3.0889,-3.0889,-3.0889,-3.0889,-3.0889,-3.0889,-3.0889,-3.0889,-3.0889,-3.0889,-3.0889,-3.0889,-3.0889,-3.0889,-3.0889,-3.0889,-3.0889,-3.0889,-3.0889,-3.0889,-3.0889,-3.0889,-3.0889,-3.0889,-3.0889,-3.0889,-3.0889,-3.0889,-3.0889,-3.0889,-3.0889,-3.0889,-3.0889,-3.0889,-3.0869,-3.0752,-3.0713,-3.0605,-3.0156,-3.0039,-2.9932,-2.9502,-2.9404,-2.9375,-2.9268,-3.087,-3.2428,-3.2737,-3.4464,-3.6013,-3.6358,-3.6405,-3.6405,-3.6405,-3.6292,-3.5956,-3.5357,-3.4931,-3.4663,-3.4525,-3.4512,-3.4462,-3.4311,-3.4299,-3.4299,-3.4299,-3.4299,-3.4299,-3.4299,-3.4299,-3.4299,-3.4299,-3.4449,-3.4512,-3.4512,-3.4605,-3.4893,-3.5295,-3.5295,-3.5629,-3.0557,-3.17,-3.2359,-3.1437,-3.085,-3.0024,-2.8221,-2.6251,-2.429,-2.2451,-2.0954,0.0,-1.8738,0.0,0.0,0.0,0.0,0.0,-2.8027,-2.8652,-2.9062,0.0,-2.9697,0.0,-2.9785,-3.0215,-3.0508,0.0,-3.0508,-3.0615,-3.0879,-3.0889,-3.0889,-3.0889,-3.0889,-3.0889,-3.0889,-3.0889,-3.0889,-3.0889,-3.0889,-3.0889,-3.0889,-3.0889,-3.0889,-3.0889,0.0,-3.0889,-3.0889,-3.0889,-3.0889,-3.0889,-3.0889,-3.0889,-3.0889,-3.0889,-3.0889,-3.0889,-3.0889,-3.0889,-3.0889,-3.0889,-3.0889,-3.0889,-3.0889,-3.0889,-3.0889,-3.0889,-3.0889,-3.083,-3.0566,-3.0508,-3.0391,-2.9951,-3.033,-3.0762,-3.0625,-3.2542,-3.4421,-3.4757,-3.5868,-3.6694,-3.6455,-3.6405,-3.6405,-3.6405,-3.6405,-3.6304,-3.5943,-3.5629,-3.5341,-3.5069,-3.5044,-3.4944,-3.4705,-3.468,-3.468,-3.468,-3.468,-3.468,-3.468,-3.468,-3.468,-3.468,-3.4919,-3.5044,-3.5044,-3.5328,-3.5604,-3.5893,-3.5893,-3.6069,-3.1851,-3.2579,-3.2943,-3.2353,-3.1168,-2.9552,-2.7055,-2.5329,-2.3363,-2.0435,0.0,-1.8595,-1.7666,0.0,-1.9767,-2.1578,0.0,-2.5722,-2.79,-2.8613,-2.9238,-3.0098,-3.0244,-3.0449,-3.085,-3.0889,-3.0889,-3.0889,-3.0889,-3.0889,-3.0889,-3.0889,-3.0889,-3.0889,-3.0889,-3.0889,-3.0889,-3.0889,-3.0889,-3.0889,-3.0889,-3.0889,-3.0889,-3.0889,-3.0889,-3.0889,0.0,0.0,-3.0889,-3.0889,-3.0889,-3.0889,-3.0889,-3.0889,-3.0889,-3.0889,-3.0889,-3.0889,-3.0889,-3.0889,-3.0889,-3.0889,-3.0889,-3.0889,-3.0889,-3.0889,-3.0889,-3.0889,-3.0889,-3.0889,-3.0889,-3.0889,-3.0791,-3.0391,-3.1436,-3.2419,-3.202,-3.4155,-3.6317,-3.7143,-3.7299,-3.7149,-3.6707,-3.6568,-3.6518,-3.6518,-3.6455,-3.6405,-3.6405,-3.6405,-3.6182,-3.5658,-3.5608,-3.5408,-3.4977,-3.4939,-3.4939,-3.4939,-3.4939,-3.4939,-3.4939,-3.4939,-3.4939,-3.4939,-3.5357,-3.5608,-3.5608,-3.6119,-3.6405,-3.6405,-3.6405,-3.6405,-3.1486,-3.229,-3.2943,-3.2353,-3.0648,-2.869,-2.6901,-2.4253,0.0,0.0,0.0,-1.7479,-1.7033,-1.7764,0.0,-2.1397,0.0,0.0,0.0,0.0,-2.9238,0.0,0.0,0.0,0.0,0.0,0.0,0.0,0.0,-3.0889,-3.0889,-3.0889,-3.0889,-3.0889,-3.0889,-3.0889,-3.0889,-3.0889,-3.0889,-3.0889,-3.0889,-3.0889,-3.0889,-3.0889,-3.0889,-3.0889,-3.0889,0.0,-3.0889,-3.0889,-3.0889,-3.0889,-3.0889,-3.0889,-3.0889,-3.0889,-3.0889,-3.0889,-3.0889,-3.0889,-3.0889,-3.0889,-3.0889,-3.0889,-3.0889,-3.0889,-3.0889,-3.0889,-3.0889,-3.0889,-3.0889,-3.0889,-3.0869,-3.0791,-3.1923,-3.2987,-3.2913,-3.4803,-3.6819,-3.7705,-3.7864,-3.7839,-3.7739,-3.7337,-3.7048,-3.7048,-3.6694,-3.6405,-3.6405,-3.6405,-3.6367,-3.6279,-3.6267,-3.6229,-3.6128,-3.6128,-3.6128,-3.6128,-3.6128,-3.6128,-3.6128,-3.6128,-3.6128,-3.6128,-3.6216,-3.6267,-3.6267,-3.6367,-3.6405,-3.6405,-3.6405,-3.6405,-3.1738,-3.2428,-3.2867,-3.2001,-3.0794,-2.9062,-2.626,0.0,0.0,0.0,0.0,-1.6997,-1.6303,0.0,0.0,0.0,0.0,0.0,0.0,0.0,0.0,0.0,0.0,0.0,0.0,0.0,0.0,0.0,0.0,0.0,-3.0889,-3.0889,-3.0889,-3.0889,-3.0889,-3.0889,-3.0889,-3.0889,-3.0889,-3.0889,-3.0889,-3.0889,-3.0889,-3.0889,-3.0889,-3.0889,-3.0889,0.0,-3.0889,-3.0889,-3.0889,-3.0889,-3.0889,-3.0889,-3.0889,-3.0889,-3.0889,-3.0889,-3.0889,-3.0889,-3.0889,-3.0889,-3.0889,-3.0889,-3.0889,-3.0889,-3.0889,-3.0889,-3.0889,-3.0889,-3.0889,-3.1498,-3.2035,-3.2035,-3.3744,-3.5595,-3.6379,-3.7445,-3.8302,-3.8454,-3.8454,-3.8366,-3.8052,-3.7789,-3.7613,-3.7613,-3.7387,-3.7111,-3.6822,-3.6832,-3.6732,-3.6443,-3.6405,-3.6405,-3.6405,-3.6405,-3.6405,-3.6405,-3.6405,-3.6405,-3.6405,-3.6405,-3.6405,-3.6405,-3.6405,-3.6405,-3.6405,-3.6405,-3.6405,-3.6405,-3.6405,-3.6405,-3.1851,-3.2453,-3.2654,-3.1637,-3.0909,-2.9415,-2.5536,-2.3647,0.0,0.0,-1.7456,-1.6775,-1.6099,0.0,0.0,0.0,0.0,0.0,0.0,0.0,0.0,0.0,0.0,0.0,0.0,0.0,0.0,0.0,0.0,0.0,-3.0889,-3.0889,-3.0889,-3.0889,-3.0889,-3.0889,-3.0889,-3.0889,-3.0889,-3.0889,-3.0889,-3.0889,-3.0889,-3.0889,-3.0889,-3.0889,-3.0889,0.0,0.0,-3.0889,-3.0889,-3.0889,-3.0889,-3.0889,-3.0889,-3.0889,-3.0889,-3.0889,-3.0889,-3.0889,-3.0889,-3.0889,-3.0889,-3.0889,-3.0889,-3.0889,-3.0889,-3.0889,-3.0889,-3.0947,-3.1276,-3.2254,-3.3237,-3.3901,-3.5813,-3.7902,-3.9362,-3.9697,-3.9572,-3.9132,-3.9095,-3.8906,-3.8454,-3.8266,-3.8191,-3.8191,-3.809,-3.7852,-3.7412,-3.7362,-3.7149,-3.6644,-3.648,-3.6405,-3.6405,-3.6405,-3.6405,-3.6405,-3.6405,-3.6405,-3.6405,-3.6405,-3.6405,-3.6405,-3.6405,-3.6405,-3.6405,-3.6405,-3.6405,-3.6405,-3.6405,-3.6405,-3.1185,-3.1863,-3.2152,-3.1537,-3.062,-2.885,-2.4958,0.0,0.0,0.0,-1.6992,-1.6676,-1.7145,-1.7135,0.0,0.0,0.0,0.0,0.0,0.0,0.0,0.0,0.0,0.0,0.0,0.0,0.0,0.0,0.0,0.0,-3.0889,-3.0889,-3.0889,-3.0889,-3.0889,-3.0889,-3.0889,-3.0889,-3.0889,-3.0889,-3.0889,-3.0889,-3.0889,-3.0889,-3.0889,-3.0889,-3.0889,0.0,0.0,-3.0889,-3.0889,-3.0889,-3.0889,-3.0889,-3.0889,-3.0889,-3.0889,-3.0889,-3.0889,-3.0889,-3.0889,-3.0889,-3.0889,-3.0889,-3.0889,-3.0889,-3.0889,-3.0889,-3.0889,-3.1228,-3.253,-3.3021,-3.3789,-3.6476,-3.7305,-3.7902,-3.9362,-3.9697,-3.9685,-3.9634,-3.9622,-3.9597,-3.9546,-3.912,-3.8844,-3.8844,-3.8341,-3.799,-3.7939,-3.7939,-3.7713,-3.7161,-3.6707,-3.6405,-3.6405,-3.6405,-3.6405,-3.6405,-3.6405,-3.6405,-3.6405,-3.6405,-3.6405,-3.6405,-3.6405,-3.6405,-3.6405,-3.6405,-3.6405,-3.6405,-3.6405,-3.6405,-3.062,-3.1311,-3.1587,-3.106,-2.9842,-2.7946,-2.4732,0.0,-2.0327,-1.7901,-1.6923,-1.6563,-1.6823,-1.7064,-1.8032,0.0,-2.1211,-2.2834,0.0,0.0,0.0,0.0,0.0,0.0,0.0,0.0,0.0,0.0,0.0,0.0,-3.0947,-3.0889,-3.0889,-3.0889,-3.0889,-3.0889,-3.0889,-3.0889,-3.0889,-3.0889,-3.0889,-3.0889,-3.0889,-3.0889,-3.0889,-3.0889,-3.0889,0.0,0.0,-3.0889,-3.0889,-3.0889,-3.0889,-3.0889,-3.0889,-3.0889,-3.0889,-3.0889,-3.0889,-3.0889,-3.0889,-3.0889,-3.0889,-3.0889,-3.0889,-3.0889,-3.0889,-3.0889,-3.1546,-3.2369,-3.2964,-3.4392,-3.6259,-3.836,-3.8804,-3.8973,-3.9581,-3.9697,-3.9697,-3.9697,-3.9697,-3.9697,-3.9697,-3.9509,-3.9371,-3.9371,-3.917,-3.8906,-3.8567,-3.853,-3.8316,-3.7739,-3.7186,-3.6769,-3.643,-3.6405,-3.6405,-3.6405,-3.6405,-3.6405,-3.6405,-3.6405,-3.6405,-3.6405,-3.6405,-3.6405,-3.6405,-3.6405,-3.6405,-3.6417,-3.6744,-3.6908,-2.964,-3.0507,-3.0871,-3.067,-2.9352,-2.7344,0.0,0.0,-2.0013,-1.7637,-1.681,-1.65,-1.65,-1.6986,-1.8014,0.0,-2.0754,-2.2552,-2.6524,0.0,0.0,0.0,0.0,0.0,0.0,0.0,0.0,0.0,0.0,0.0,0.0,-3.1777,-3.1325,-3.0889,-3.0889,-3.0889,-3.0889,-3.0889,-3.0889,-3.0889,-3.0889,-3.0889,-3.0889,-3.0889,-3.0889,-3.0889,0.0,0.0,0.0,-3.0889,-3.0889,-3.0889,-3.0889,-3.0889,-3.0889,-3.0889,-3.0889,-3.0889,-3.0889,-3.0889,-3.0889,-3.0889,-3.1228,-3.1546,-3.1546,-3.1546,-3.1662,-3.2113,-3.3247,-3.4392,-3.4392,-3.6259,-3.8413,-3.9465,-3.9697,-3.9697,-3.9697,-3.9697,-3.9697,-3.9697,-3.9697,-3.9697,-3.9697,-3.9697,-3.9697,-3.9697,-3.9697,-3.9546,-3.917,-3.912,-3.8894,-3.8329,-3.7914,-3.7387,-3.6719,-3.6656,-3.6581,-3.6417,-3.6405,-3.6405,-3.6405,-3.6405,-3.6405,-3.6405,-3.6405,-3.6493,-3.6656,-3.6656,-3.6732,-3.6908,-3.7249,-3.7513,-2.8161,-2.9365,-2.9942,-3.0482,-2.9352,-2.7231,0.0,-2.1857,-1.9899,-1.7077,-1.65,-1.65,-1.65,-1.6986,-1.7775,-1.8845,-2.0838,-2.3263,-2.6109,0.0,0.0,0.0,0.0,0.0,0.0,0.0,0.0,0.0,0.0,0.0,0.0,-3.3856,-3.2426,-3.0947,-3.0889,-3.0889,-3.0889,-3.0889,-3.0889,-3.0889,-3.0889,-3.0889,-3.0889,-3.0889,-3.0889,0.0,0.0,0.0,0.0,-3.0889,-3.0889,-3.0889,-3.0889,-3.0889,-3.0889,-3.0889,-3.0889,-3.0889,-3.0889,-3.0889,-3.0889,-3.0889,-3.1872,-3.3077,-3.3077,-3.3077,-3.335,-3.4847,-3.6325,-3.7465,-3.7465,-3.8582,-3.9685,-3.9697,-3.9697,-3.9697,-3.9697,-3.9697,-3.9697,-3.9697,-3.9697,-3.9697,-3.9697,-3.9697,-3.9697,-3.9697,-3.9697,-3.9697,-3.9685,-3.9685,-3.9471,-3.8969,-3.8906,-3.8391,-3.7274,-3.7174,-3.6996,-3.6443,-3.6405,-3.6405,-3.6405,-3.6405,-3.6405,-3.6405,-3.6405,-3.6681,-3.7174,-3.7174,-3.745,-3.799,-3.8002,-3.8304,-2.47,-2.5628,-2.6251,-2.5615,-2.4788,-2.3577,-2.1368,-2.0175,-1.897,-1.6914,-1.65,-1.65,-1.65,-1.6672,-1.7652,-2.0275,-2.1292,0.0,0.0,0.0,0.0,0.0,0.0,0.0,0.0,0.0,0.0,0.0,0.0,0.0,0.0,-3.4847,-3.3912,-3.2473,-3.1441,-3.0889,-3.0889,-3.0889,-3.0889,-3.0889,-3.0889,-3.0889,-3.0889,-3.0889,0.0,0.0,0.0,0.0,0.0,-3.0889,-3.0889,-3.0889,-3.0889,-3.0889,-3.0889,-3.0889,-3.0889,-3.0889,-3.0889,-3.1546,-3.2426,-3.2426,-3.3417,-3.4792,-3.5825,-3.5387,-3.4902,-3.6379,-3.7133,-3.7743,-3.8739,-3.9362,-3.9697,-3.9697,-3.9697,-3.9697,-3.9697,-3.9697,-3.9697,-3.9697,-3.9697,-3.9697,-3.9697,-3.9697,-3.9697,-3.9697,-3.9697,-3.9697,-3.9697,-3.9697,-3.9622,-3.9446,-3.9433,-3.8981,-3.7839,-3.7751,-3.7663,-3.75,-3.7487,-3.7487,-3.7487,-3.7487,-3.7487,-3.7487,-3.7487,-3.7575,-3.7751,-3.7751,-3.804,-3.8592,-3.8592,-3.8894,0.0,-2.3145,-2.3722,-2.3233,-2.2531,-2.1619,-2.0137,-1.9246,-1.8268,-1.6801,-1.65,-1.65,-1.65,-1.6839,-1.7827,-1.9911,-2.1129,0.0,0.0,0.0,0.0,0.0,0.0,0.0,0.0,0.0,0.0,0.0,0.0,0.0,0.0,-3.6433,-3.5715,-3.4781,-3.3304,-3.2264,-3.171,-3.171,-3.1441,-3.0889,-3.0889,-3.0889,-3.0889,-3.0889,0.0,0.0,0.0,0.0,0.0,-3.0889,-3.0889,-3.0889,-3.0889,-3.0889,-3.0889,-3.0889,-3.1276,-3.171,-3.171,-3.2701,-3.3901,-3.3901,-3.4958,-3.6433,-3.7861,-3.7701,-3.7156,-3.8084,-3.8348,-3.8518,-3.9465,-3.9697,-3.9697,-3.9697,-3.9697,-3.9697,-3.9697,-3.9697,-3.9697,-3.9697,-3.9697,-3.9697,-3.9697,-3.9697,-3.9697,-3.9697,-3.9697,-3.9697,-3.9697,-3.9697,-3.9697,-3.9697,-3.9697,-3.9408,-3.8705,-3.8454,-3.8241,-3.8015,-3.8002,-3.8002,-3.8002,-3.8002,-3.8002,-3.8002,-3.8002,-3.8115,-3.8329,-3.8542,-3.8831,-3.9182,-3.9182,-3.9371,0.0,-2.1568,-2.2092,-2.2531,-2.192,-2.0903,-1.9823,-1.8832,0.0,-1.6726,-1.65,-1.655,-1.6701,-1.7551,-1.8329,-1.8681,-2.0853,0.0,0.0,0.0,0.0,0.0,0.0,0.0,0.0,0.0,0.0,0.0,0.0,0.0,0.0,-3.8413,-3.769,-3.769,-3.6325,-3.4847,-3.3293,-3.3237,-3.2587,-3.1228,-3.1112,-3.1054,-3.1054,-3.0947,0.0,0.0,0.0,0.0,0.0,-3.1112,-3.1112,-3.1228,-3.1112,-3.1112,-3.1228,-3.1228,-3.2102,-3.3237,-3.3237,-3.4236,-3.5453,-3.5563,-3.6553,-3.7914,-3.9297,-3.9697,-3.9697,-3.9697,-3.9697,-3.9697,-3.9697,-3.9697,-3.9697,-3.9697,-3.9697,-3.9697,-3.9697,-3.9697,-3.9697,-3.9697,-3.9697,-3.9697,-3.9697,-3.9697,-3.9697,-3.9697,-3.9697,-3.9697,-3.9697,-3.9697,-3.9697,-3.9697,-3.9697,-3.9697,-3.9697,-3.922,-3.8705,-3.8165,-3.8128,-3.8128,-3.8128,-3.8128,-3.8128,-3.8128,-3.8128,-3.8391,-3.8982,-3.9446,-3.9697,-3.9697,-3.9697,-3.9697,-1.7516,0.0,-1.8995,-1.823,-1.8216,-1.8177,0.0,-1.7438,-1.7375,0.0,0.0,-1.7014,-1.8719,-1.8581,-1.9447,-2.3238,-2.4067,0.0,0.0,0.0,0.0,0.0,0.0,0.0,0.0,0.0,0.0,0.0,0.0,0.0,0.0,-3.9362,-3.9193,-3.9193,-3.8868,-3.7435,-3.4792,-3.4792,-3.4637,-3.4247,-3.3145,-3.2587,-3.253,-3.1383,0.0,0.0,0.0,0.0,-3.4191,-3.3031,-3.3247,-3.4136,-3.3031,-3.3258,-3.4247,-3.4247,-3.447,-3.4792,-3.4792,-3.5781,-3.7145,-3.8307,-3.8921,-3.9245,-3.9581,-3.9697,-3.9697,-3.9697,-3.9697,-3.9697,-3.9697,-3.9697,-3.9697,-3.9697,-3.9697,-3.9697,-3.9697,-3.9697,-3.9697,-3.9697,-3.9697,-3.9697,-3.9697,-3.9697,-3.9697,-3.9697,-3.9697,-3.9697,-3.9697,-3.9697,-3.9697,-3.9697,-3.9697,-3.9697,-3.9697,-3.9572,-3.9446,-3.9308,-3.9295,-3.9295,-3.9295,-3.9295,-3.9295,-3.9295,-3.9295,-3.9371,-3.9496,-3.9634,-3.9697,-3.9697,-3.9697,-3.9697,-1.65,-1.7503,-1.8406,-1.7804,-1.7879,-1.8053,-1.7716,0.0,0.0,0.0,0.0,0.0,-1.8807,0.0,0.0,0.0,0.0,0.0,0.0,0.0,0.0,0.0,0.0,0.0,0.0,0.0,0.0,0.0,0.0,0.0,0.0,-3.9697,-3.9697,-3.9697,-3.9697,-3.8582,-3.6325,-3.6325,-3.5945,-3.5288,-3.38,-3.3077,-3.3077,-3.2254,-3.2369,0.0,0.0,0.0,-3.5233,-3.4459,-3.457,-3.5233,-3.4403,-3.457,-3.5288,-3.5288,-3.5727,-3.6325,-3.6325,-3.7263,-3.8635,-3.9413,-3.9697,-3.9697,-3.9697,-3.9697,-3.9697,-3.9697,-3.9697,-3.9697,-3.9697,-3.9697,-3.9697,-3.9697,-3.9697,-3.9697,-3.9697,-3.9697,-3.9697,-3.9697,-3.9697,-3.9697,-3.9697,-3.9697,-3.9697,-3.9697,-3.9697,-3.9697,-3.9697,-3.9697,-3.9697,-3.9697,-3.9697,-3.9697,-3.9697,-3.9697,-3.9697,-3.9697,-3.9697,-3.9697,-3.9697,-3.9697,-3.9697,-3.9697,-3.9697,-3.9697,-3.9697,-3.9697,-3.9697,-3.9697,-3.9697,-3.9697,-1.6801,-1.8105,-1.9271,-1.8857,-1.8945,-1.9083,-1.892,0.0,0.0,0.0,0.0,0.0,0.0,0.0,0.0,0.0,0.0,0.0,0.0,0.0,0.0,0.0,0.0,0.0,0.0,0.0,0.0,0.0,0.0,0.0,0.0,-3.9697,-3.9697,-3.9697,-3.9697,-3.9077,-3.7849,-3.7849,-3.7198,-3.5956,-3.4459,-3.3789,-3.3789,-3.3519,-3.3575,0.0,0.0,0.0,-3.5956,-3.5727,-3.5793,-3.5956,-3.5727,-3.5781,-3.5956,-3.5956,-3.6769,-3.7849,-3.7849,-3.8635,-3.9697,-3.9697,-3.9697,-3.9697,-3.9697,-3.9697,-3.9697,-3.9697,-3.9697,-3.9697,-3.9697,-3.9697,-3.9697,-3.9697,-3.9697,-3.9697,-3.9697,-3.9697,-3.9697,-3.9697,-3.9697,-3.9697,-3.9697,-3.9697,-3.9697,-3.9697,-3.9697,-3.9697,-3.9697,-3.9697,-3.9697,-3.9697,-3.9697,-3.9697,-3.9697,-3.9697,-3.9697,-3.9697,-3.9697,-3.9697,-3.9697,-3.9697,-3.9697,-3.9697,-3.9697,-3.9697,-3.9697,-3.9697,-3.9697,-3.9697,-3.9697,-3.9697,-1.823,-1.9849,-2.0552,-1.824,-1.8668,-1.9447,0.0,0.0,0.0,0.0,0.0,0.0,0.0,0.0,0.0,0.0,0.0,0.0,0.0,0.0,0.0,0.0,0.0,0.0,0.0,0.0,0.0,0.0,0.0,0.0,0.0,0.0,-3.9697,-3.9697,-3.9697,-3.9581,-3.9362,-3.9362,-3.9245,-3.9037,-3.753,-3.6811,-3.6811,-3.5508,-3.5661,0.0,0.0,-3.7861,-3.8921,-3.769,-3.7914,-3.8921,-3.7636,-3.7926,-3.9025,-3.9025,-3.9193,-3.9362,-3.9362,-3.953,-3.9697,-3.9697,-3.9697,-3.9697,-3.9697,-3.9697,-3.9697,-3.9697,-3.9697,-3.9697,-3.9697,-3.9697,-3.9697,-3.9697,-3.9697,-3.9697,-3.9697,-3.9697,-3.9697,-3.9697,-3.9697,-3.9697,-3.9697,-3.9697,-3.9697,-3.9697,-3.9697,-3.9697,-3.9697,-3.9697,-3.9697,-3.9697,-3.9697,-3.9697,-3.9697,-3.9697,-3.9697,-3.9697,-3.9697,-3.9697,-3.9697,-3.9697,-3.9697,-3.9697,-3.9697,-3.9697,-3.9697,-3.9697,-3.9697,-3.9697,-3.9697,-3.9697,-1.744,-1.9095,-2.0275,-1.9007,-2.0388,-2.202,0.0,0.0,0.0,0.0,0.0,0.0,0.0,0.0,0.0,0.0,0.0,0.0,0.0,0.0,0.0,0.0,0.0,0.0,0.0,0.0,0.0,0.0,0.0,0.0,0.0,0.0,-3.9697,-3.9697,-3.9697,-3.9697,-3.9697,-3.9697,-3.9697,-3.9685,-3.819,-3.7518,-3.7465,-3.6811,-3.6865,-3.7518,0.0,-3.9077,-3.9645,-3.8973,-3.9077,-3.9633,-3.8961,-3.9077,-3.9697,-3.9697,-3.9697,-3.9697,-3.9697,-3.9697,-3.9697,-3.9697,-3.9697,-3.9697,-3.9697,-3.9697,-3.9697,-3.9697,-3.9697,-3.9697,-3.9697,-3.9697,-3.9697,-3.9697,-3.9697,-3.9697,-3.9697,-3.9697,-3.9697,-3.9697,-3.9697,-3.9697,-3.9697,-3.9697,-3.9697,-3.9697,-3.9697,-3.9697,-3.9697,-3.9697,-3.9697,-3.9697,-3.9697,-3.9697,-3.9697,-3.9697,-3.9697,-3.9697,-3.9697,-3.9697,-3.9697,-3.9697,-3.9697,-3.9697,-3.9697,-3.9697,-3.9697,-3.9697,-3.9697,-3.9697,-3.9697,-3.9697,-1.7021,-1.8406,-1.9899,-2.0288,0.0,-2.3627,-2.4443,0.0,0.0,0.0,0.0,0.0,0.0,0.0,0.0,0.0,0.0,0.0,0.0,0.0,0.0,0.0,0.0,0.0,0.0,0.0,0.0,0.0,0.0,0.0,0.0,0.0,-3.9697,-3.9697,-3.9697,-3.9697,-3.9697,-3.9697,-3.9697,-3.9697,-3.857,-3.8019,-3.8019,-3.8019,-3.8019,-3.8084,-3.9193,-3.9697,-3.9697,-3.9697,-3.9697,-3.9697,-3.9697,-3.9697,-3.9697,-3.9697,-3.9697,-3.9697,-3.9697,-3.9697,-3.9697,-3.9697,-3.9697,-3.9697,-3.9697,-3.9697,-3.9697,-3.9697,-3.9697,-3.9697,-3.9697,-3.9697,-3.9697,-3.9697,-3.9697,-3.9697,-3.9697,-3.9697,-3.9697,-3.9697,-3.9697,-3.9697,-3.9697,-3.9697,-3.9697,-3.9697,-3.9697,-3.9697,-3.9697,-3.9697,-3.9697,-3.9697,-3.9697,-3.9697,-3.9697,-3.9697,-3.9697,-3.9697,-3.9697,-3.9697,-3.9697,-3.9697,-3.9697,-3.9697,-3.9697,-3.9697,-3.9697,-3.9697,-3.9697,-3.9697,-3.9697,-3.9697,-1.8524,-1.9284,-2.0175,-2.1744,0.0,0.0,-2.369,0.0,0.0,0.0,0.0,0.0,0.0,0.0,0.0,0.0,0.0,0.0,0.0,0.0,0.0,0.0,0.0,0.0,0.0,0.0,0.0,0.0,0.0,0.0,0.0,0.0,0.0,-3.9697,-3.9697,-3.9697,-3.9697,-3.9697,-3.9697,-3.9697,-3.9581,-3.953,-3.953,-3.953,-3.953,-3.953,-3.9633,-3.9697,-3.9697,-3.9697,-3.9697,-3.9697,-3.9697,-3.9697,-3.9697,-3.9697,-3.9697,-3.9697,-3.9697,-3.9697,-3.9697,-3.9697,-3.9697,-3.9697,-3.9697,-3.9697,-3.9697,-3.9697,-3.9697,-3.9697,-3.9697,-3.9697,-3.9697,-3.9697,-3.9697,-3.9697,-3.9697,-3.9697,-3.9697,-3.9697,-3.9697,-3.9697,-3.9697,-3.9697,-3.9697,-3.9697,-3.9697,-3.9697,-3.9697,-3.9697,-3.9697,-3.9697,-3.9697,-3.9697,-3.9697,-3.9697,-3.9697,-3.9697,-3.9697,-3.9697,-3.9697,-3.9697,-3.9697,-3.9697,-3.9697,-3.9697,-3.9697,-3.9697,-3.9697,-3.9697,-3.9697,-3.9697,-1.7332,-1.8869,0.0,0.0,0.0,0.0,0.0,0.0,0.0,0.0,0.0,0.0,0.0,0.0,0.0,0.0,0.0,0.0,0.0,0.0,0.0,0.0,0.0,0.0,0.0,0.0,0.0,0.0,0.0,0.0,0.0,0.0,0.0,-3.9697,-3.9697,-3.9697,-3.9697,-3.9697,-3.9697,-3.9697,-3.9697,-3.9697,-3.9697,-3.9697,-3.9697,-3.9697,-3.9697,-3.9697,-3.9697,-3.9697,-3.9697,-3.9697,-3.9697,-3.9697,-3.9697,-3.9697,-3.9697,-3.9697,-3.9697,-3.9697,-3.9697,-3.9697,-3.9697,-3.9697,-3.9697,-3.9697,-3.9697,-3.9697,-3.9697,-3.9697,-3.9697,-3.9697,-3.9697,-3.9697,-3.9697,-3.9697,-3.9697,-3.9697,-3.9697,-3.9697,-3.9697,-3.9697,-3.9697,-3.9697,-3.9697,-3.9697,-3.9697,-3.9697,-3.9697,-3.9697,-3.9697,-3.9697,-3.9697,-3.9697,-3.9697,-3.9697,-3.9697,-3.9697,-3.9697,-3.9697,-3.9697,-3.9697,-3.9697,-3.9697,-3.9697,-3.9697,-3.9697,-3.9697,-3.9697,-3.9697,-3.9697,-3.9697,-1.7071,-1.8694,-2.0641,0.0,0.0,0.0,0.0,0.0,0.0,0.0,0.0,0.0,0.0,0.0,0.0,0.0,0.0,0.0,0.0,0.0,0.0,0.0,0.0,0.0,0.0,0.0,0.0,0.0,0.0,0.0,0.0,0.0,0.0,0.0,-3.9697,-3.9697,-3.9697,-3.9697,-3.9697,-3.9697,-3.9697,-3.9697,-3.9697,-3.9697,-3.9697,-3.9697,-3.9697,-3.9697,-3.9697,-3.9697,-3.9697,-3.9697,-3.9697,-3.9697,-3.9697,-3.9697,-3.9697,-3.9697,-3.9697,-3.9697,-3.9697,-3.9697,-3.9697,-3.9697,-3.9697,-3.9697,-3.9697,-3.9697,-3.9697,-3.9697,-3.9697,-3.9697,-3.9697,-3.9697,-3.9697,-3.9697,-3.9697,-3.9697,-3.9697,-3.9697,-3.9697,-3.9697,-3.9697,-3.9697,-3.9697,-3.9697,-3.9697,-3.9697,-3.9697,-3.9697,-3.9697,-3.9697,-3.9697,-3.9697,-3.9697,-3.9697,-3.9697,-3.9697,-3.9697,-3.9697,-3.9697,-3.9697,-3.9697,-3.9697,-3.9697,-3.9697,-3.9697,-3.9697,-3.9697,-3.9697,-3.9697,-3.9697,-1.8344,-1.8995,0.0,0.0,0.0,0.0,0.0,0.0,0.0,0.0,0.0,0.0,0.0,0.0,0.0,0.0,0.0,0.0,0.0,0.0,0.0,0.0,0.0,0.0,0.0,0.0,0.0,0.0,0.0,0.0,0.0,0.0,0.0,0.0,-3.9685,-3.9685,-3.9697,-3.9685,-3.9685,-3.9697,-3.9697,-3.9697,-3.9697,-3.9697,-3.9697,-3.9697,-3.9697,-3.9697,-3.9697,-3.9697,-3.9697,-3.9697,-3.9697,-3.9697,-3.9697,-3.9697,-3.9697,-3.9697,-3.9697,-3.9697,-3.9697,-3.9697,-3.9697,-3.9697,-3.9697,-3.9697,-3.9697,-3.9697,-3.9697,-3.9697,-3.9697,-3.9697,-3.9697,-3.9697,-3.9697,-3.9697,-3.9697,-3.9697,-3.9697,-3.9697,-3.9697,-3.9697,-3.9697,-3.9697,-3.9697,-3.9697,-3.9697,-3.9697,-3.9697,-3.9697,-3.9697,-3.9697,-3.9697,-3.9697,-3.9697,-3.9697,-3.9697,-3.9697,-3.9697,-3.9697,-3.9697,-3.9697,-3.9697,-3.9697,-3.9697,-3.9697,-3.9697,-3.9697,-3.9697,-3.9697,-3.9697,-3.9697,-1.7796,-1.956,0.0,0.0,0.0,0.0,0.0,0.0,0.0,0.0,0.0,0.0,0.0,0.0,0.0,0.0,0.0,0.0,0.0,0.0,0.0,0.0,0.0,0.0,0.0,0.0,0.0,0.0,0.0,0.0,0.0,0.0,0.0,0.0,-3.8718,-3.8894,-3.9685,-3.9308,-3.9308,-3.9697,-3.9697,-3.9697,-3.9697,-3.9697,-3.9697,-3.9697,-3.9697,-3.9697,-3.9697,-3.9697,-3.9697,-3.9697,-3.9697,-3.9697,-3.9697,-3.9697,-3.9697,-3.9697,-3.9697,-3.9697,-3.9697,-3.9697,-3.9697,-3.9697,-3.9697,-3.9697,-3.9697,-3.9697,-3.9697,-3.9697,-3.9697,-3.9697,-3.9697,-3.9697,-3.9697,-3.9697,-3.9697,-3.9697,-3.9697,-3.9697,-3.9697,-3.9697,-3.9697,-3.9697,-3.9697,-3.9697,-3.9697,-3.9697,-3.9697,-3.9697,-3.9697,-3.9697,-3.9697,-3.9697,-3.9697,-3.9697,-3.9697,-3.9697,-3.9697,-3.9697,-3.9697,-3.9697,-3.9697,-3.9697,-3.9697,-3.9697,-3.9697,-3.9697,-3.9697,-3.9697,-3.9697,-3.9697,-1.8878,0.0,0.0,0.0,0.0,0.0,0.0,0.0,0.0,0.0,0.0,0.0,0.0,0.0,0.0,0.0,0.0,0.0,0.0,0.0,0.0,0.0,0.0,0.0,0.0,0.0,0.0,0.0,0.0,0.0,0.0,0.0,0.0,0.0,-3.8191,-3.8329,-3.9019,-3.8693,-3.8818,-3.9371,-3.9371,-3.9484,-3.9697,-3.9697,-3.9697,-3.9697,-3.9697,-3.9697,-3.9697,-3.9697,-3.9697,-3.9697,-3.9697,-3.9697,-3.9697,-3.9697,-3.9697,-3.9697,-3.9697,-3.9697,-3.9697,-3.9697,-3.9697,-3.9697,-3.9697,-3.9697,-3.9697,-3.9697,-3.9697,-3.9697,-3.9697,-3.9697,-3.9697,-3.9697,-3.9697,-3.9697,-3.9697,-3.9697,-3.9697,-3.9697,-3.9697,-3.9697,-3.9697,-3.9697,-3.9697,-3.9697,-3.9697,-3.9697,-3.9697,-3.9697,-3.9697,-3.9697,-3.9697,-3.9697,-3.9697,-3.9697,-3.9697,-3.9697,-3.9697,-3.9697,-3.9697,-3.9697,-3.9697,-3.9697,-3.9697,-3.9697,-3.9697,-3.9697,-3.9697,-3.9697,-3.9697,-3.9697,0.0,0.0,0.0,0.0,0.0,0.0,0.0,0.0,0.0,0.0,0.0,0.0,0.0,0.0,0.0,0.0,0.0,0.0,0.0,0.0,0.0,0.0,0.0,0.0,0.0,0.0,0.0,0.0,0.0,0.0,0.0,0.0,0.0,-3.7939,-3.7889,-3.7902,-3.8002,-3.7952,-3.8228,0.0,-3.8844,-3.9057,-3.9546,-3.9647,-3.9697,-3.9697,-3.9697,-3.9697,-3.9697,-3.9697,-3.9697,-3.9697,-3.9697,-3.9697,-3.9697,-3.9697,-3.9697,-3.9697,-3.9697,-3.9697,-3.9697,-3.9697,-3.9697,-3.9697,-3.9697,-3.9697,-3.9697,-3.9697,-3.9697,-3.9697,-3.9697,-3.9697,-3.9697,-3.9697,-3.9697,-3.9697,-3.9697,-3.9697,-3.9697,-3.9697,-3.9697,-3.9697,-3.9697,-3.9697,-3.9697,-3.9697,-3.9697,-3.9697,-3.9697,-3.9697,-3.9697,-3.9697,-3.9697,-3.9697,-3.9697,-3.9697,-3.9697,-3.9697,-3.9697,-3.9697,-3.9697,-3.9697,-3.9697,-3.9697,-3.9697,-3.9697,-3.9697,-3.9697,-3.9697,-3.9697,-3.9697,-3.9697,0.0,0.0,0.0,0.0,0.0,0.0,0.0,0.0,0.0,0.0,0.0,0.0,0.0,0.0,0.0,0.0,0.0,0.0,0.0,0.0,0.0,0.0,0.0,0.0,0.0,0.0,0.0,0.0,0.0,0.0,0.0,0.0,0.0,-3.7349,-3.6935,-3.7136,-3.8002,-3.7575,-3.7638,0.0,-3.8191,-3.8253,-3.8404,-3.9283,-3.9697,-3.9697,-3.9697,-3.9697,-3.9697,-3.9697,-3.9697,-3.9697,-3.9697,-3.9697,-3.9697,-3.9697,-3.9697,-3.9697,-3.9697,-3.9697,-3.9697,-3.9697,-3.9697,-3.9697,-3.9697,-3.9697,-3.9697,-3.9697,-3.9697,-3.9697,-3.9697,-3.9697,-3.9697,-3.9697,-3.9697,-3.9697,-3.9697,-3.9697,-3.9697,-3.9697,-3.9697,-3.9697,-3.9697,-3.9697,-3.9697,-3.9697,-3.9697,-3.9697,-3.9697,-3.9697,-3.9697,-3.9697,-3.9697,-3.9697,-3.9697,-3.9697,-3.9697,-3.9697,-3.9697,-3.9697,-3.9697,-3.9697,-3.9697,-3.9697,-3.9697,-3.9697,-3.9697,-3.9697,-3.9697,-3.9697,-3.9697,-3.9697,0.0,0.0,0.0,0.0,0.0,0.0,0.0,0.0,0.0,0.0,0.0,0.0,0.0,0.0,0.0,0.0,0.0,0.0,0.0,0.0,0.0,0.0,0.0,0.0,0.0,0.0,0.0,0.0,0.0,0.0,0.0,-3.6405,-3.6543,-3.6832,-3.6556,-3.6681,-3.7211,-3.6935,-3.7073,-3.7613,-3.7613,-3.7751,-3.804,-3.8906,-3.9446,-3.9697,-3.9697,-3.9697,-3.9697,-3.9697,-3.9697,-3.9697,-3.9697,-3.9697,-3.9697,-3.9697,-3.9697,-3.9697,-3.9697,-3.9697,-3.9697,-3.9697,-3.9697,-3.9697,-3.9697,-3.9697,-3.9697,-3.9697,-3.9697,-3.9697,-3.9697,-3.9697,-3.9697,-3.9697,-3.9697,-3.9697,-3.9697,-3.9697,-3.9697,-3.9697,-3.9697,-3.9697,-3.9697,-3.9697,-3.9697,-3.9697,-3.9697,-3.9697,-3.9697,-3.9697,-3.9697,-3.9697,-3.9697,-3.9697,-3.9697,-3.9697,-3.9697,-3.9697,-3.9697,-3.9697,-3.9697,-3.9697,-3.9697,-3.9697,-3.9697,-3.9697,-3.9697,-3.9697,-3.9697,-3.9697,-3.9697,-3.9697,0.0,0.0,0.0,0.0,0.0,0.0,0.0,0.0,0.0,0.0,0.0,0.0,0.0,0.0,0.0,0.0,0.0,0.0,0.0,0.0,0.0,0.0,0.0,0.0,0.0,0.0,0.0,0.0,0.0,0.0,-3.6405,-3.6405,-3.6405,-3.6405,-3.6405,-3.6405,-3.6405,-3.6405,-3.6631,-3.7048,-3.7048,-3.7324,-3.7889,-3.8366,-3.8931,-3.9546,-3.9546,-3.9597,-3.9697,-3.9697,-3.9697,-3.9697,-3.9697,-3.9697,-3.9697,-3.9697,-3.9697,-3.9697,-3.9697,-3.9697,-3.9697,-3.9697,-3.9697,-3.9697,-3.9697,-3.9697,-3.9697,-3.9697,-3.9697,-3.9697,-3.9697,-3.9697,-3.9697,-3.9697,-3.9697,-3.9697,-3.9697,-3.9697,-3.9697,-3.9697,-3.9697,-3.9697,-3.9697,-3.9697,-3.9697,-3.9697,-3.9697,-3.9697,-3.9697,-3.9697,-3.9697,-3.9697,-3.9697,-3.9697,-3.9697,-3.9697,-3.9697,-3.9697,-3.9697,-3.9697,-3.9697,-3.9697,-3.9697,-3.9697,-3.9697,-3.9697,-3.9697,-3.9697,-3.9697,-3.9697,-3.9697,-3.9697,0.0,0.0,0.0,0.0,0.0,0.0,0.0,0.0,0.0,0.0,0.0,0.0,0.0,0.0,0.0,0.0,0.0,0.0,0.0,0.0,0.0,0.0,0.0,0.0,0.0,0.0,0.0,0.0,0.0,0.0,-3.6405,-3.6405,-3.6405,-3.6405,-3.6405,-3.6405,-3.6405,-3.6405,-3.6443,-3.6518,-3.6518,-3.6807,-3.7299,-3.7374,-3.7977,-3.9032,-3.9032,-3.9245,-3.9697,-3.9697,-3.9697,-3.9697,-3.9697,-3.9697,-3.9697,-3.9697,-3.9697,-3.9697,-3.9697,-3.9697,-3.9697,-3.9697,-3.9697,-3.9697,-3.9697,-3.9697,-3.9697,-3.9697,-3.9697,-3.9697,-3.9697,-3.9697,-3.9697,-3.9697,-3.9697,-3.9697,-3.9697,-3.9697,-3.9697,-3.9697,-3.9697,-3.9697,-3.9697,-3.9697,-3.9697,-3.9697,-3.9697,-3.9697,-3.9697,-3.9697,-3.9697,-3.9697,-3.9697,-3.9697,-3.9697,-3.9697,-3.9697,-3.9697,-3.9697,-3.9697,-3.9697,-3.9697,-3.9697,-3.9697,-3.9697,-3.9697,-3.9697,-3.9697,-3.9697,-3.9697,-3.9697,-3.9697,0.0,0.0,0.0,0.0,0.0,0.0,0.0,0.0,0.0,0.0,0.0,0.0,0.0,0.0,0.0,0.0,0.0,0.0,0.0,0.0,0.0,0.0,0.0,0.0,0.0,0.0,0.0,0.0,0.0,-3.5906,-3.5906,-3.6194,-3.6405,-3.6405,-3.6405,-3.6405,-3.6405,-3.6405,-3.6405,-3.6405,-3.6405,-3.6531,-3.6769,-3.6769,-3.7324,-3.8391,-3.8391,-3.8705,-3.9233,-3.9233,-3.9421,-3.9697,-3.9697,-3.9697,-3.9697,-3.9697,-3.9697,-3.9697,-3.9697,-3.9697,-3.9697,-3.9697,-3.9697,-3.9697,-3.9697,-3.9697,-3.9697,-3.9697,-3.9697,-3.9697,-3.9697,-3.9697,-3.9697,-3.9697,-3.9697,-3.9697,-3.9697,-3.9697,-3.9697,-3.9697,-3.9697,-3.9697,-3.9697,-3.9697,-3.9697,-3.9697,-3.9697,-3.9697,-3.9697,-3.9697,-3.9697,-3.9697,-3.9697,-3.9697,-3.9697,-3.9697,-3.9697,-3.9697,-3.9697,-3.9697,-3.9697,-3.9697,-3.9697,-3.9697,-3.9697,-3.9697,-3.9697,-3.9697,-3.9697,-3.9697,-3.9697,-3.9697,0.0,0.0,0.0,0.0,0.0,0.0,0.0,0.0,0.0,0.0,0.0,0.0,0.0,0.0,0.0,0.0,0.0,0.0,0.0,0.0,0.0,0.0,0.0,0.0,0.0,0.0,0.0,0.0,0.0,-3.5295,-3.5295,-3.5717,-3.5943,-3.5943,-3.6081,-3.6157,-3.6157,-3.6329,-3.6405,-3.6405,-3.6405,-3.6405,-3.6405,-3.6405,-3.6857,-3.76,-3.7739,-3.8128,-3.8668,-3.8856,-3.9158,-3.9496,-3.9634,-3.9697,-3.9697,-3.9697,-3.9697,-3.9697,-3.9697,-3.9697,-3.9697,-3.9697,-3.9697,-3.9697,-3.9697,-3.9697,-3.9697,-3.9697,-3.9697,-3.9697,-3.9697,-3.9697,-3.9697,-3.9697,-3.9697,-3.9697,-3.9697,-3.9697,-3.9697,-3.9697,-3.9697,-3.9697,-3.9697,-3.9697,-3.9697,-3.9697,-3.9697,-3.9697,-3.9697,-3.9697,-3.9697,-3.9697,-3.9697,-3.9697,-3.9697,-3.9697,-3.9697,-3.9697,-3.9697,-3.9697,-3.9697,-3.9697,-3.9697,-3.9697,-3.9697,-3.9697,-3.9697,-3.9697,-3.9697,-3.9697,-3.9697,-3.9697,0.0,0.0,0.0,0.0,0.0,0.0,0.0,0.0,0.0,0.0,0.0,0.0,0.0,0.0,0.0,0.0,0.0,0.0,0.0,0.0,0.0,0.0,0.0,0.0,0.0,0.0,0.0,0.0,0.0,-3.4718,-3.4718,-3.4788,-3.4813,-3.4813,-3.527,-3.5545,-3.5545,-3.6094,-3.6405,-3.6405,-3.6405,-3.6405,-3.6405,-3.6405,-3.6443,-3.6518,-3.6998,-3.7538,-3.809,-3.8642,-3.8944,-3.8969,-3.9484,-3.9697,-3.9697,-3.9697,-3.9697,-3.9697,-3.9697,-3.9697,-3.9697,-3.9697,-3.9697,-3.9697,-3.9697,-3.9697,-3.9697,-3.9697,-3.9697,-3.9697,-3.9697,-3.9697,-3.9697,-3.9697,-3.9697,-3.9697,-3.9697,-3.9697,-3.9697,-3.9697,-3.9697,-3.9697,-3.9697,-3.9697,-3.9697,-3.9697,-3.9697,-3.9697,-3.9697,-3.9697,-3.9697,-3.9697,-3.9697,-3.9697,-3.9697,-3.9697,-3.9697,-3.9697,-3.9697,-3.9697,-3.9697,-3.9697,-3.9697,-3.9697,-3.9697,-3.9697,-3.9697,-3.9697,-3.9697,-3.9697,-3.9697,-3.9697,0.0,0.0,0.0,0.0,0.0,0.0,0.0,0.0,0.0,0.0,0.0,0.0,0.0,0.0,0.0,0.0,0.0,0.0,0.0,0.0,0.0,0.0,0.0,0.0,0.0,0.0,0.0,0.0,0.0,0.0,-3.4198,-3.4525,-3.468,-3.468,-3.4868,-3.5144,-3.5495,-3.5683,-3.6019,-3.6405,-3.6405,-3.6405,-3.6405,-3.6405,-3.6405,-3.6417,-3.6619,-3.6973,-3.75,-3.7701,-3.8265,-3.8944,-3.9082,-3.9383,-3.9697,-3.9697,-3.9697,-3.9697,-3.9697,-3.9697,-3.9697,-3.9697,-3.9697,-3.9697,-3.9697,-3.9697,-3.9697,-3.9697,-3.9697,-3.9697,-3.9697,-3.9697,-3.9697,-3.9697,-3.9697,-3.9697,-3.9697,-3.9697,-3.9697,-3.9697,-3.9697,-3.9697,-3.9697,-3.9697,-3.9697,-3.9697,-3.9697,-3.9697,-3.9697,-3.9697,-3.9697,-3.9697,-3.9697,-3.9697,-3.9697,-3.9697,-3.9697,-3.9697,-3.9697,-3.9697,-3.9697,-3.9697,-3.9697,-3.9697,-3.9697,-3.9697,-3.9697,-3.9697,-3.9697,-3.9697,-3.9697,-3.9697,0.0,0.0,0.0,0.0,0.0,0.0,0.0,0.0,0.0,0.0,0.0,0.0,0.0,0.0,0.0,0.0,0.0,0.0,0.0,0.0,0.0,0.0,0.0,0.0,0.0,0.0,0.0,0.0,0.0,0.0,-3.3621,-3.3972,-3.4261,-3.4449,-3.4449,-3.4668,-3.5219,-3.5219,-3.5495,-3.6094,-3.6094,-3.6182,-3.6405,-3.6405,-3.6405,-3.6405,-3.6405,-3.6619,-3.6971,-3.7111,-3.7626,-3.8391,-3.8768,-3.9094,-3.9433,-3.9622,-3.9697,-3.9697,-3.9697,-3.9697,-3.9697,-3.9697,-3.9697,-3.9697,-3.9697,-3.9697,-3.9697,-3.9697,-3.9697,-3.9697,-3.9697,-3.9697,-3.9697,-3.9697,-3.9697,-3.9697,-3.9697,-3.9697,-3.9697,-3.9697,-3.9697,-3.9697,-3.9697,-3.9697,-3.9697,-3.9697,-3.9697,-3.9697,-3.9697,-3.9697,-3.9697,-3.9697,-3.9697,-3.9697,-3.9697,-3.9697,-3.9697,-3.9697,-3.9697,-3.9697,-3.9697,-3.9697,-3.9697,-3.9697,-3.9697,-3.9697,-3.9697,-3.9697,-3.9697,-3.9697,-3.9697,-3.9697,0.0,0.0,0.0,0.0,0.0,0.0,0.0,0.0,0.0,0.0,0.0,0.0,0.0,0.0,0.0,0.0,0.0,0.0,0.0,0.0,0.0,0.0,0.0,0.0,0.0,0.0,0.0,0.0,0.0,-3.3124,-3.3124,-3.3124,-3.3319,-3.3859,-3.3872,-3.4135,-3.4688,-3.47,-3.4931,-3.547,-3.547,-3.5805,-3.638,-3.638,-3.6392,-3.6405,-3.6405,-3.6405,-3.6455,-3.6935,-3.7174,-3.7299,-3.8441,-3.8881,-3.8957,-3.9471,-3.9672,-3.9672,-3.9685,-3.9697,-3.9697,-3.9697,-3.9697,-3.9697,-3.9697,-3.9697,-3.9697,-3.9697,-3.9697,-3.9697,-3.9697,-3.9697,-3.9697,-3.9697,-3.9697,-3.9697,-3.9697,-3.9697,-3.9697,-3.9697,-3.9697,-3.9697,-3.9697,-3.9697,-3.9697,-3.9697,-3.9697,-3.9697,-3.9697,-3.9697,-3.9697,-3.9697,-3.9697,-3.9697,-3.9697,-3.9697,-3.9697,-3.9697,-3.9697,-3.9697,-3.9697,-3.9697,-3.9697,-3.9697,-3.9697,-3.9697,-3.9697,-3.9697,-3.9697,-3.9697,-3.9697,-3.9697,-1.4771,0.0,0.0,0.0,0.0,0.0,0.0,0.0,0.0,0.0,0.0,0.0,0.0,0.0,0.0,0.0,0.0,0.0,0.0,0.0,0.0,0.0,0.0,0.0,0.0,0.0,0.0,0.0,-3.2842,-3.3124,-3.3124,-3.3124,-3.3156,-3.3307,-3.3307,-3.3571,-3.4123,-3.4123,-3.4399,-3.4906,-3.4906,-3.5194,-3.5768,-3.5768,-3.5994,-3.6405,-3.6405,-3.6405,-3.6417,-3.6568,-3.687,-3.7211,-3.7525,-3.7889,-3.8316,-3.8894,-3.9094,-3.9157,-3.9559,-3.9697,-3.9697,-3.9697,-3.9697,-3.9697,-3.9697,-3.9697,-3.9697,-3.9697,-3.9697,-3.9697,-3.9697,-3.9697,-3.9697,-3.9697,-3.9697,-3.9697,-3.9697,-3.9697,-3.9697,-3.9697,-3.9697,-3.9697,-3.9697,-3.9697,-3.9697,-3.9697,-3.9697,-3.9697,-3.9697,-3.9697,-3.9697,-3.9697,-3.9697,-3.9697,-3.9697,-3.9697,-3.9697,-3.9697,-3.9697,-3.9697,-3.9697,-3.9697,-3.9697,-3.9697,-3.9697,-3.9697,-3.9697,-3.9697,-3.9697,-3.9697,-3.9697,-3.9697,-1.5512,-1.6032,0.0,0.0,0.0,0.0,0.0,0.0,0.0,0.0,0.0,0.0,0.0,0.0,0.0,0.0,0.0,0.0,0.0,0.0,0.0,0.0,0.0,0.0,0.0,0.0,0.0,-3.1863,-3.2177,-3.2478,-3.2704,-3.2717,-3.283,-3.3111,-3.3124,-3.3232,-3.3558,-3.3558,-3.3834,-3.4374,-3.4374,-3.4663,-3.5157,-3.5395,-3.5671,-3.6031,-3.6304,-3.6405,-3.6405,-3.6405,-3.6593,-3.6908,-3.7098,-3.7374,-3.7726,-3.8304,-3.8668,-3.8919,-3.9245,-3.9496,-3.9697,-3.9697,-3.9697,-3.9697,-3.9697,-3.9697,-3.9697,-3.9697,-3.9697,-3.9697,-3.9697,-3.9697,-3.9697,-3.9697,-3.9697,-3.9697,-3.9697,-3.9697,-3.9697,-3.9697,-3.9697,-3.9697,-3.9697,-3.9697,-3.9697,-3.9697,-3.9697,-3.9697,-3.9697,-3.9697,-3.9697,-3.9697,-3.9697,-3.9697,-3.9697,-3.9697,-3.9697,-3.9697,-3.9697,-3.9697,-3.9697,-3.9697,-3.9697,-3.9697,-3.9697,-3.9697,-3.9697,-3.9697,-3.9697,-3.9697,-3.9697,-3.9697,-1.6572,-1.6936,-1.794,0.0,0.0,0.0,-2.0363,-2.0351,0.0,0.0,0.0,0.0,0.0,0.0,0.0,0.0,0.0,0.0,0.0,0.0,0.0,0.0,0.0,0.0,0.0,-3.1273,-3.1298,-3.1298,-3.1361,-3.1599,-3.2102,-3.2127,-3.239,-3.2968,-3.298,-3.3048,-3.3124,-3.3124,-3.3319,-3.3809,-3.3809,-3.4098,-3.465,-3.5094,-3.5382,-3.552,-3.6056,-3.6355,-3.6405,-3.6405,-3.6405,-3.6455,-3.6897,-3.7098,-3.7161,-3.7713,-3.8241,-3.8756,-3.8881,-3.9195,-3.9609,-3.9672,-3.9697,-3.9697,-3.9697,-3.9697,-3.9697,-3.9697,-3.9697,-3.9697,-3.9697,-3.9697,-3.9697,-3.9697,-3.9697,-3.9697,-3.9697,-3.9697,-3.9697,-3.9697,-3.9697,-3.9697,-3.9697,-3.9697,-3.9697,-3.9697,-3.9697,-3.9697,-3.9697,-3.9697,-3.9697,-3.9697,-3.9697,-3.9697,-3.9697,-3.9697,-3.9697,-3.9697,-3.9697,-3.9697,-3.9697,-3.9697,-3.9697,-3.9697,-3.9697,-3.9697,-3.9697,-3.9697,-3.9697,-3.9697,-3.9697,-3.9697,-1.9221,-1.9535,-1.9786,-1.8643,0.0,0.0,0.0,-1.8694,0.0,0.0,0.0,0.0,0.0,0.0,0.0,0.0,0.0,0.0,0.0,0.0,0.0,0.0,0.0,0.0,0.0,-3.0507,-3.0771,-3.0771,-3.116,-3.1436,-3.1549,-3.1549,-3.18,-3.2365,-3.239,-3.2604,-3.3111,-3.3124,-3.3131,-3.3244,-3.3244,-3.3533,-3.406,-3.4173,-3.4655,-3.5508,-3.5608,-3.5956,-3.6405,-3.6405,-3.6405,-3.6417,-3.6531,-3.6568,-3.6631,-3.7149,-3.7412,-3.7638,-3.8555,-3.8994,-3.9158,-3.9546,-3.9697,-3.9697,-3.9697,-3.9697,-3.9697,-3.9697,-3.9697,-3.9697,-3.9697,-3.9697,-3.9697,-3.9697,-3.9697,-3.9697,-3.9697,-3.9697,-3.9697,-3.9697,-3.9697,-3.9697,-3.9697,-3.9697,-3.9697,-3.9697,-3.9697,-3.9697,-3.9697,-3.9697,-3.9697,-3.9697,-3.9697,-3.9697,-3.9697,-3.9697,-3.9697,-3.9697,-3.9697,-3.9697,-3.9697,-3.9697,-3.9697,-3.9697,-3.9697,-3.9697,-3.9697,-3.9697,-3.9697,-3.9697,-3.9697,-3.9697,-2.0641,-2.0666,-2.0968,-2.0388,0.0,0.0,0.0,0.0,0.0,0.0,0.0,0.0,0.0,0.0,0.0,0.0,0.0,0.0,0.0,0.0,0.0,0.0,0.0,0.0,0.0,-2.988,-3.0206,-3.0206,-3.0444,-3.0721,-3.0984,-3.0997,-3.1248,-3.1788,-3.18,-3.2064,-3.2641,-3.2641,-3.2792,-3.3124,-3.3124,-3.3219,-3.3495,-3.3771,-3.4198,-3.4705,-3.5257,-3.5658,-3.5968,-3.6304,-3.6405,-3.6405,-3.6405,-3.6405,-3.6443,-3.6719,-3.6996,-3.7262,-3.7826,-3.8216,-3.853,-3.9094,-3.9283,-3.9333,-3.9609,-3.9697,-3.9697,-3.9697,-3.9697,-3.9697,-3.9697,-3.9697,-3.9697,-3.9697,-3.9697,-3.9697,-3.9697,-3.9697,-3.9697,-3.9697,-3.9697,-3.9697,-3.9697,-3.9697,-3.9697,-3.9697,-3.9697,-3.9697,-3.9697,-3.9697,-3.9697,-3.9697,-3.9697,-3.9697,-3.9697,-3.9697,-3.9697,-3.9697,-3.9697,-3.9697,-3.9697,-3.9697,-3.9697,-3.9697,-3.9697,-3.9697,-3.9697,-3.9697,-3.9697,-3.9697,-3.9697,-3.9697,0.0,0.0,0.0,0.0,0.0,-2.1041,0.0,0.0,0.0,-2.1154,0.0,0.0,0.0,0.0,0.0,0.0,0.0,0.0,0.0,0.0,0.0,0.0,0.0,0.0,0.0,-2.8837,-2.9214,-2.9754,-2.939,-2.9528,-3.0407,-3.0457,-3.0696,-3.1223,-3.1248,-3.1499,-3.2051,-3.2164,-3.2441,-3.2918,-3.3018,-3.3124,-3.3093,-3.3533,-3.3796,-3.3947,-3.4839,-3.5307,-3.5533,-3.6031,-3.6317,-3.6405,-3.6405,-3.6405,-3.6405,-3.6405,-3.6681,-3.7048,-3.7149,-3.7475,-3.7939,-3.8517,-3.8831,-3.8981,-3.9534,-3.9697,-3.9697,-3.9697,-3.9697,-3.9697,-3.9697,-3.9697,-3.9697,-3.9697,-3.9697,-3.9697,-3.9697,-3.9697,-3.9697,-3.9697,-3.9697,-3.9697,-3.9697,-3.9697,-3.9697,-3.9697,-3.9697,-3.9697,-3.9697,-3.9697,-3.9697,-3.9697,-3.9697,-3.9697,-3.9697,-3.9697,-3.9697,-3.9697,-3.9697,-3.9697,-3.9697,-3.9697,-3.9697,-3.9697,-3.9697,-3.9697,-3.9697,-3.9697,-3.9697,-3.9697,-3.9697,-3.9697,0.0,0.0,0.0,0.0,-2.3696,0.0,0.0,0.0,-2.0652,-1.9007,0.0,0.0,0.0,0.0,0.0,0.0,0.0,0.0,0.0,0.0,0.0,0.0,0.0,0.0,0.0,0.0,-2.7105,-2.9603,-2.7995,-2.7769,-2.9779,-2.988,-3.0143,-3.0683,-3.0708,-3.0959,-3.1486,-3.1964,-3.224,-3.2315,-3.283,-3.3124,-3.3124,-3.3144,-3.3432,-3.3909,-3.4035,-3.4638,-3.5508,-3.5558,-3.5931,-3.6405,-3.6405,-3.6405,-3.6405,-3.6405,-3.6455,-3.6568,-3.7059,-3.7224,-3.7362,-3.7927,-3.8454,-3.8981,-3.9534,-3.9697,-3.9697,-3.9697,-3.9697,-3.9697,-3.9697,-3.9697,-3.9697,-3.9697,-3.9697,-3.9697,-3.9697,-3.9697,-3.9697,-3.9697,-3.9697,-3.9697,-3.9697,-3.9697,-3.9697,-3.9697,-3.9697,-3.9697,-3.9697,-3.9697,-3.9697,-3.9697,-3.9697,-3.9697,-3.9697,-3.9697,-3.9697,-3.9697,-3.9697,-3.9697,-3.9697,-3.9697,-3.9697,-3.9697,-3.9697,-3.9697,-3.9697,-3.9697,-3.9697,-3.9697,-3.9697,-3.9697,0.0,0.0,0.0,0.0,0.0,0.0,-2.1192,0.0,-2.0075,0.0,0.0,0.0,0.0,0.0,0.0,0.0,0.0,0.0,0.0,0.0,0.0,0.0,0.0,0.0,0.0,0.0,0.0,0.0,0.0,-2.719,-2.8725,-2.944,-2.9892,-3.0131,-3.0143,-3.0394,-3.0934,-3.1474,-3.1901,-3.2227,-3.2805,-3.3124,-3.3124,-3.3124,-3.3206,-3.3432,-3.3759,-3.4161,-3.4638,-3.5232,-3.5633,-3.5918,-3.6279,-3.6405,-3.6405,-3.6405,-3.6405,-3.6443,-3.6669,-3.6757,-3.6845,-3.7349,-3.814,-3.8957,-3.9145,-3.9433,-3.9697,-3.9697,-3.9697,-3.9697,-3.9697,-3.9697,-3.9697,-3.9697,-3.9697,-3.9697,-3.9697,-3.9697,-3.9697,-3.9697,-3.9697,-3.9697,-3.9697,-3.9697,-3.9697,-3.9697,-3.9697,-3.9697,-3.9697,-3.9697,-3.9697,-3.9697,-3.9697,-3.9697,-3.9697,-3.9697,-3.9697,-3.9697,-3.9697,-3.9697,-3.9697,-3.9697,-3.9697,-3.9697,-3.9697,-3.9697,-3.9697,-3.9697,-3.9697,-3.9697,-3.9697,-3.9697,-2.5799,0.0,0.0,0.0,0.0,0.0,0.0,0.0,0.0,0.0,0.0,0.0,0.0,0.0,0.0,0.0,0.0,0.0,0.0,0.0,0.0,0.0,0.0,0.0,0.0,0.0,0.0,0.0,0.0,0.0,-2.7996,-2.8875,-2.9478,-2.9779,-2.9792,-2.998,-3.0382,-3.0909,-3.1449,-3.1989,-3.2566,-3.2918,-3.3124,-3.3124,-3.3124,-3.3106,-3.3495,-3.3759,-3.396,-3.4718,-3.5219,-3.5533,-3.5981,-3.6267,-3.6405,-3.6405,-3.6405,-3.6405,-3.6405,-3.6405,-3.6505,-3.7059,-3.7739,-3.8467,-3.8831,-3.9145,-3.9496,-3.9647,-3.9697,-3.9697,-3.9697,-3.9697,-3.9697,-3.9697,-3.9697,-3.9697,-3.9697,-3.9697,-3.9697,-3.9697,-3.9697,-3.9697,-3.9697,-3.9697,-3.9697,-3.9697,-3.9697,-3.9697,-3.9697,-3.9697,-3.9697,-3.9697,-3.9697,-3.9697,-3.9697,-3.9697,-3.9697,-3.9697,-3.9697,-3.9697,-3.9697,-3.9697,-3.9697,-3.9697,-3.9697,-3.9697,-3.9697,-3.9697,-3.9697,-3.9697,-3.9697,-3.9697,0.0,0.0,0.0,-2.4098,0.0,0.0,0.0,0.0,-2.192,0.0,0.0,0.0,0.0,0.0,-2.0264,-1.9171,0.0,0.0,0.0,0.0,0.0,0.0,0.0,0.0,0.0,0.0,0.0,0.0,0.0,0.0,-2.7871,-2.8134,-2.8662,-2.9767,-2.9792,-2.9804,-2.9817,-3.0369,-3.0896,-3.1424,-3.1976,-3.2528,-3.3124,-3.3124,-3.3124,-3.3124,-3.3136,-3.3407,-3.3897,-3.3935,-3.4575,-3.5495,-3.552,-3.5893,-3.6405,-3.6405,-3.6405,-3.6405,-3.6405,-3.6405,-3.6505,-3.7059,-3.7211,-3.745,-3.8592,-3.8881,-3.9007,-3.9546,-3.9697,-3.9697,-3.9697,-3.9697,-3.9697,-3.9697,-3.9697,-3.9697,-3.9697,-3.9697,-3.9697,-3.9697,-3.9697,-3.9697,-3.9697,-3.9697,-3.9697,-3.9697,-3.9697,-3.9697,-3.9697,-3.9697,-3.9697,-3.9697,-3.9697,-3.9697,-3.9697,-3.9697,-3.9697,-3.9697,-3.9697,-3.9697,-3.9697,-3.9697,-3.9697,-3.9697,-3.9697,-3.9697,-3.9697,-3.9697,-3.9697,-3.9697,-3.9697,-3.9697,0.0,0.0,-2.8311,-2.5937,0.0,0.0,0.0,0.0,0.0,0.0,0.0,0.0,0.0,0.0,-2.044,-1.966,-1.892,0.0,0.0,0.0,0.0,0.0,0.0,0.0,0.0,0.0,0.0,0.0,0.0,0.0,0.0,-2.7846,-2.8825,-2.9202,-2.9591,-2.9792,-2.9792,-3.0331,-3.0871,-3.1399,-3.1951,-3.2516,-3.3124,-3.3124,-3.3124,-3.3124,-3.3124,-3.3181,-3.3382,-3.3746,-3.4336,-3.4994,-3.5357,-3.5881,-3.6405,-3.6405,-3.6405,-3.6405,-3.6405,-3.6405,-3.6443,-3.6619,-3.6885,-3.7324,-3.8078,-3.8567,-3.8981,-3.9534,-3.9697,-3.9697,-3.9697,-3.9697,-3.9697,-3.9697,-3.9697,-3.9697,-3.9697,-3.9697,-3.9697,-3.9697,-3.9697,-3.9697,-3.9697,-3.9697,-3.9697,-3.9697,-3.9697,-3.9697,-3.9697,-3.9697,-3.9697,-3.9697,-3.9697,-3.9697,-3.9697,-3.9697,-3.9697,-3.9697,-3.9697,-3.9697,-3.9697,-3.9697,-3.9697,-3.9697,-3.9697,-3.9697,-3.9697,-3.9697,-3.9697,-3.9697,-3.9697,-3.9697,-2.8448,-2.8775,0.0,-2.6964,-2.6076,0.0,-2.3045,0.0,0.0,0.0,0.0,0.0,0.0,0.0,-2.119,-2.0939,-1.9534,-1.8166,0.0,0.0,0.0,0.0,0.0,0.0,0.0,0.0,-1.9774,-2.1119,0.0,0.0,0.0,0.0,-2.8323,-2.8875,-2.949,-2.9792,-2.9792,-3.0143,-3.0583,-3.1122,-3.1662,-3.2215,-3.278,-3.298,-3.3124,-3.3124,-3.3124,-3.3124,-3.3149,-3.3458,-3.3935,-3.4487,-3.4994,-3.5592,-3.6094,-3.6329,-3.6405,-3.6405,-3.6405,-3.6405,-3.6405,-3.6405,-3.6644,-3.6998,-3.755,-3.8115,-3.868,-3.9245,-3.9546,-3.9697,-3.9697,-3.9697,-3.9697,-3.9697,-3.9697,-3.9697,-3.9697,-3.9697,-3.9697,-3.9697,-3.9697,-3.9697,-3.9697,-3.9697,-3.9697,-3.9697,-3.9697,-3.9697,-3.9697,-3.9697,-3.9697,-3.9697,-3.9697,-3.9697,-3.9697,-3.9697,-3.9697,-3.9697,-3.9697,-3.9697,-3.9697,-3.9697,-3.9697,-3.9697,-3.9697,-3.9697,-3.9697,-3.9697,-3.9697,-3.9697,-3.9697,-3.9697]},{"header":{"parameterUnit":"m.s-1","parameterCategory":1,"la1":30.6,"la2":29.2853,"lo1":-89.7004,"lo2":-87.6739,"dy":0.0162,"dx":0.0183,"nx":112,"ny":82,"refTime":"2024-06-26T06:00:00:Z","depth":0,"parameterNumber":3,"parameterNumberName":"V-component_of_WINDS"},"data":[0.0,0.0,0.0,0.0,0.0,0.0,0.0,0.0,0.0,0.0,0.0,0.0,0.0,0.0,0.0,0.0,0.0,0.0,0.0,0.0,0.0,0.0,0.0,0.0,0.0,0.0,0.0,0.0,0.0,0.0,0.0,0.0,0.0,0.0,0.0,0.0,0.0,0.0,0.0,0.0,0.0,0.0,0.0,0.0,0.0,0.0,0.0,0.0,0.0,0.0,0.0,0.0,0.0,0.0,0.0,0.0,0.0,0.0,0.0,0.0,0.0,0.0,0.0,0.0,0.0,0.0,0.0,0.0,0.0,0.0,0.0,0.0,0.0,0.0,0.0,0.0,0.0,0.0,0.0,0.0,0.0,0.0,0.0,0.0,0.0,0.0,0.0,0.0,0.0,0.0,0.0,-2.6901,-2.9111,-3.007,-2.9463,-2.8703,-2.6518,-2.2412,0.0,0.0,0.0,0.0,0.0,0.0,0.0,0.0,0.0,0.0,0.0,0.0,0.0,0.0,0.0,0.0,0.0,0.0,0.0,0.0,0.0,0.0,0.0,0.0,0.0,0.0,0.0,0.0,0.0,0.0,0.0,0.0,0.0,0.0,0.0,0.0,0.0,0.0,0.0,0.0,0.0,0.0,0.0,0.0,0.0,0.0,0.0,0.0,0.0,0.0,0.0,0.0,0.0,0.0,0.0,0.0,0.0,0.0,0.0,0.0,0.0,0.0,0.0,0.0,0.0,0.0,0.0,0.0,0.0,0.0,0.0,0.0,0.0,0.0,0.0,0.0,0.0,0.0,0.0,0.0,0.0,0.0,0.0,0.0,0.0,0.0,0.0,0.0,0.0,0.0,0.0,0.0,0.0,0.0,0.0,0.0,0.0,0.0,0.0,0.0,0.0,0.0,0.0,0.0,-2.4537,-3.015,-3.047,-3.047,-3.0836,-2.9944,-2.7634,-2.359,0.0,0.0,0.0,0.0,0.0,0.0,0.0,0.0,0.0,0.0,0.0,0.0,0.0,0.0,0.0,0.0,0.0,0.0,0.0,0.0,0.0,0.0,0.0,0.0,0.0,0.0,0.0,0.0,0.0,0.0,0.0,0.0,0.0,0.0,0.0,0.0,0.0,0.0,0.0,0.0,0.0,0.0,0.0,0.0,0.0,0.0,0.0,0.0,0.0,0.0,0.0,0.0,0.0,0.0,0.0,0.0,0.0,0.0,0.0,0.0,0.0,0.0,0.0,0.0,0.0,0.0,0.0,0.0,0.0,0.0,0.0,0.0,0.0,0.0,0.0,0.0,0.0,0.0,0.0,0.0,0.0,0.0,0.0,0.0,0.0,0.0,0.0,0.0,0.0,0.0,0.0,0.0,0.0,0.0,0.0,0.0,0.0,0.0,0.0,0.0,0.0,0.0,0.0,-2.3445,-2.6527,-3.1017,-3.1161,-3.122,-3.1852,-3.0489,-2.8086,-2.448,-2.1645,0.0,0.0,0.0,0.0,0.0,0.0,0.0,0.0,0.0,0.0,0.0,0.0,0.0,0.0,0.0,0.0,0.0,0.0,0.0,0.0,0.0,0.0,0.0,0.0,0.0,0.0,0.0,0.0,0.0,0.0,0.0,0.0,0.0,0.0,0.0,0.0,0.0,0.0,0.0,0.0,0.0,0.0,0.0,0.0,0.0,0.0,0.0,0.0,0.0,0.0,0.0,0.0,0.0,0.0,0.0,0.0,0.0,0.0,0.0,0.0,0.0,0.0,0.0,0.0,0.0,0.0,0.0,0.0,0.0,0.0,0.0,0.0,0.0,0.0,0.0,0.0,0.0,0.0,0.0,0.0,0.0,0.0,0.0,0.0,0.0,0.0,0.0,0.0,0.0,0.0,0.0,0.0,0.0,0.0,0.0,0.0,0.0,0.0,0.0,0.0,0.0,0.0,-2.6363,-2.8323,-3.1615,-3.169,-3.1839,-3.2677,-3.0507,-2.7928,-2.5155,-2.1714,0.0,0.0,0.0,0.0,0.0,0.0,0.0,0.0,0.0,0.0,0.0,0.0,0.0,0.0,0.0,0.0,0.0,0.0,0.0,0.0,0.0,0.0,0.0,0.0,0.0,0.0,0.0,0.0,0.0,0.0,0.0,0.0,0.0,0.0,0.0,0.0,0.0,0.0,0.0,0.0,0.0,0.0,0.0,0.0,0.0,0.0,0.0,0.0,0.0,0.0,0.0,0.0,0.0,0.0,0.0,0.0,0.0,0.0,0.0,0.0,0.0,0.0,0.0,0.0,0.0,0.0,0.0,0.0,0.0,0.0,0.0,0.0,0.0,0.0,0.0,0.0,0.0,0.0,0.0,0.0,0.0,0.0,0.0,0.0,0.0,0.0,0.0,0.0,0.0,0.0,0.0,0.0,0.0,0.0,0.0,0.0,0.0,0.0,0.0,0.0,0.0,0.0,-2.6901,-2.9714,-3.3006,-3.2228,-3.2019,-3.332,-2.9936,-2.7111,-2.5657,-2.1311,0.0,0.0,0.0,0.0,0.0,0.0,0.0,0.0,0.0,0.0,0.0,0.0,0.0,0.0,0.0,0.0,0.0,0.0,0.0,0.0,0.0,0.0,0.0,0.0,0.0,0.0,0.0,0.0,0.0,0.0,0.0,0.0,0.0,0.0,0.0,0.0,0.0,0.0,0.0,0.0,0.0,0.0,0.0,0.0,0.0,0.0,0.0,0.0,0.0,0.0,0.0,0.0,0.0,0.0,0.0,0.0,0.0,0.0,0.0,0.0,0.0,0.0,0.0,0.0,0.0,0.0,0.0,0.0,0.0,0.0,0.0,0.0,0.0,0.0,0.0,0.0,0.0,0.0,0.0,0.0,0.0,0.0,0.0,0.0,0.0,0.0,0.0,0.0,0.0,0.0,0.0,0.0,0.0,0.0,0.0,0.0,0.0,0.0,0.0,0.0,0.0,0.0,-2.6826,-2.922,0.0,-3.2049,-3.1869,-3.2811,-3.0387,-2.7929,-2.5749,0.0,0.0,0.0,0.0,0.0,0.0,0.0,0.0,0.0,0.0,0.0,0.0,0.0,0.0,0.0,0.0,0.0,0.0,0.0,0.0,0.0,0.0,0.0,0.0,0.0,0.0,0.0,0.0,0.0,0.0,0.0,0.0,0.0,0.0,0.0,0.0,0.0,0.0,0.0,0.0,0.0,0.0,0.0,0.0,0.0,0.0,0.0,0.0,0.0,0.0,0.0,0.0,0.0,0.0,0.0,0.0,0.0,0.0,0.0,0.0,0.0,0.0,0.0,0.0,0.0,0.0,0.0,0.0,0.0,0.0,0.0,0.0,0.0,0.0,0.0,0.0,0.0,0.0,0.0,0.0,0.0,0.0,0.0,0.0,0.0,0.0,0.0,0.0,0.0,0.0,0.0,0.0,0.0,0.0,0.0,0.0,0.0,0.0,0.0,0.0,0.0,0.0,-2.4971,-2.7305,-2.9609,0.0,-3.2213,-3.2079,-3.2766,-3.0238,-2.7679,-2.5435,0.0,0.0,0.0,0.0,0.0,0.0,0.0,0.0,0.0,0.0,0.0,0.0,0.0,0.0,0.0,0.0,0.0,0.0,0.0,0.0,0.0,0.0,0.0,0.0,0.0,0.0,0.0,0.0,0.0,0.0,0.0,0.0,0.0,0.0,0.0,0.0,0.0,0.0,0.0,0.0,0.0,0.0,0.0,0.0,0.0,0.0,0.0,0.0,0.0,0.0,0.0,0.0,0.0,0.0,0.0,0.0,0.0,0.0,0.0,0.0,0.0,0.0,0.0,0.0,0.0,0.0,0.0,0.0,0.0,0.0,0.0,0.0,0.0,0.0,0.0,0.0,0.0,0.0,0.0,0.0,0.0,0.0,0.0,0.0,0.0,0.0,0.0,0.0,0.0,0.0,0.0,0.0,0.0,0.0,0.0,0.0,0.0,0.0,0.0,0.0,0.0,0.0,-2.5091,-2.8472,-3.127,-3.329,-3.2916,-3.2781,-3.344,-2.9265,-2.6063,0.0,0.0,0.0,0.0,0.0,0.0,0.0,0.0,0.0,0.0,0.0,0.0,0.0,0.0,0.0,0.0,0.0,0.0,0.0,0.0,0.0,0.0,0.0,0.0,0.0,0.0,0.0,0.0,0.0,0.0,0.0,0.0,0.0,0.0,0.0,0.0,0.0,0.0,0.0,0.0,0.0,0.0,0.0,0.0,0.0,0.0,0.0,0.0,0.0,0.0,0.0,0.0,0.0,0.0,0.0,0.0,0.0,0.0,0.0,0.0,0.0,0.0,0.0,0.0,0.0,0.0,0.0,0.0,0.0,0.0,0.0,0.0,0.0,0.0,0.0,0.0,0.0,0.0,0.0,0.0,0.0,0.0,0.0,0.0,0.0,0.0,0.0,0.0,0.0,0.0,0.0,0.0,0.0,0.0,0.0,0.0,0.0,0.0,0.0,0.0,0.0,0.0,0.0,-2.5091,-2.8472,-3.127,-3.329,-3.332,-3.329,-3.3484,-3.0552,-2.7739,-2.5442,0.0,0.0,0.0,0.0,0.0,0.0,0.0,0.0,0.0,0.0,0.0,0.0,0.0,0.0,0.0,0.0,0.0,0.0,0.0,0.0,0.0,0.0,0.0,0.0,0.0,0.0,0.0,0.0,0.0,0.0,0.0,0.0,0.0,0.0,0.0,0.0,0.0,0.0,0.0,0.0,0.0,0.0,0.0,0.0,0.0,0.0,0.0,0.0,0.0,0.0,0.0,0.0,0.0,0.0,0.0,0.0,0.0,0.0,0.0,0.0,0.0,0.0,0.0,0.0,0.0,0.0,0.0,0.0,0.0,0.0,0.0,0.0,0.0,0.0,0.0,0.0,0.0,0.0,0.0,0.0,0.0,0.0,0.0,0.0,0.0,0.0,0.0,0.0,0.0,0.0,0.0,0.0,0.0,0.0,0.0,0.0,0.0,0.0,0.0,0.0,0.0,0.0,-2.5525,-2.9101,-3.1973,-3.3709,-3.3888,-3.3784,-3.3514,-3.1091,-2.8323,-2.5382,0.0,0.0,0.0,0.0,0.0,0.0,0.0,0.0,0.0,0.0,0.0,0.0,0.0,0.0,0.0,0.0,0.0,0.0,0.0,0.0,0.0,0.0,0.0,0.0,0.0,0.0,0.0,0.0,0.0,0.0,0.0,0.0,0.0,0.0,0.0,0.0,0.0,0.0,0.0,0.0,0.0,0.0,0.0,0.0,0.0,0.0,0.0,0.0,0.0,0.0,0.0,0.0,0.0,0.0,0.0,0.0,0.0,0.0,0.0,0.0,0.0,0.0,0.0,0.0,0.0,0.0,0.0,0.0,0.0,0.0,0.0,0.0,0.0,0.0,0.0,0.0,0.0,0.0,0.0,0.0,0.0,0.0,0.0,0.0,0.0,0.0,0.0,0.0,0.0,0.0,0.0,0.0,0.0,0.0,0.0,0.0,0.0,0.0,0.0,0.0,0.0,0.0,-2.6168,-3.0058,-3.3021,-3.4369,-3.4563,-3.4309,-3.3559,-3.1195,-2.8368,-2.5083,0.0,0.0,0.0,0.0,0.0,0.0,0.0,0.0,0.0,0.0,0.0,0.0,0.0,0.0,0.0,0.0,0.0,0.0,0.0,0.0,0.0,0.0,0.0,0.0,0.0,0.0,0.0,0.0,0.0,0.0,0.0,0.0,0.0,0.0,0.0,0.0,0.0,0.0,0.0,0.0,0.0,0.0,0.0,0.0,0.0,0.0,0.0,0.0,0.0,0.0,0.0,0.0,0.0,0.0,0.0,0.0,0.0,0.0,0.0,0.0,-2.1525,0.0,0.0,0.0,0.0,0.0,0.0,0.0,0.0,0.0,0.0,0.0,0.0,0.0,0.0,0.0,0.0,0.0,0.0,0.0,0.0,0.0,0.0,0.0,0.0,0.0,0.0,0.0,0.0,0.0,0.0,0.0,0.0,0.0,0.0,0.0,0.0,0.0,0.0,0.0,0.0,0.0,-2.6168,-3.0058,-3.3021,-3.4369,-3.4966,-3.4801,-3.3604,-3.2033,-2.9924,-2.7151,-2.337,0.0,0.0,0.0,0.0,0.0,0.0,0.0,0.0,0.0,0.0,0.0,0.0,0.0,0.0,0.0,0.0,0.0,0.0,0.0,0.0,0.0,0.0,0.0,0.0,0.0,0.0,0.0,0.0,0.0,0.0,0.0,0.0,0.0,0.0,0.0,0.0,0.0,0.0,0.0,0.0,0.0,0.0,0.0,0.0,0.0,0.0,0.0,0.0,0.0,0.0,0.0,0.0,0.0,0.0,0.0,0.0,0.0,0.0,0.0,0.0,-2.46,0.0,0.0,0.0,0.0,0.0,0.0,0.0,0.0,0.0,0.0,0.0,0.0,0.0,0.0,0.0,0.0,0.0,0.0,0.0,0.0,0.0,0.0,0.0,0.0,0.0,0.0,0.0,0.0,0.0,0.0,0.0,0.0,0.0,0.0,0.0,0.0,0.0,0.0,0.0,0.0,-2.7171,-3.0731,-3.3499,-3.4831,-3.5295,-3.5085,-3.4053,-3.2766,-3.1016,-2.8708,-2.542,0.0,0.0,0.0,0.0,0.0,0.0,0.0,0.0,0.0,0.0,0.0,0.0,0.0,0.0,0.0,0.0,0.0,0.0,0.0,0.0,0.0,0.0,0.0,0.0,0.0,0.0,0.0,0.0,0.0,0.0,0.0,0.0,0.0,0.0,0.0,0.0,0.0,0.0,0.0,0.0,0.0,0.0,0.0,0.0,0.0,0.0,0.0,0.0,0.0,0.0,0.0,0.0,0.0,-3.2949,-3.3056,-3.2967,-3.3702,-3.4245,-3.4386,-3.1417,-2.9489,-2.8263,0.0,0.0,0.0,0.0,0.0,0.0,0.0,0.0,0.0,0.0,0.0,0.0,0.0,0.0,0.0,0.0,0.0,0.0,0.0,0.0,0.0,0.0,0.0,0.0,0.0,-2.9397,-2.9217,0.0,0.0,0.0,0.0,0.0,0.0,0.0,0.0,0.0,0.0,0.0,0.0,-2.8592,-3.1704,-3.4143,-3.537,-3.5504,-3.5235,-3.4563,-3.3484,-3.2018,-3.0043,-2.7649,-2.5166,0.0,0.0,0.0,0.0,0.0,0.0,0.0,0.0,0.0,0.0,0.0,0.0,0.0,0.0,0.0,0.0,0.0,0.0,0.0,0.0,0.0,0.0,0.0,0.0,0.0,0.0,0.0,0.0,0.0,0.0,0.0,0.0,-1.7041,-1.7359,0.0,0.0,0.0,0.0,0.0,0.0,0.0,0.0,0.0,0.0,0.0,0.0,0.0,-3.1972,-3.2814,-3.5515,-3.7236,-3.799,-3.9918,-4.0486,-3.9907,-4.0656,-4.0317,-3.9159,-3.9343,0.0,-3.1801,-3.018,0.0,0.0,0.0,0.0,0.0,0.0,0.0,0.0,0.0,0.0,0.0,0.0,0.0,0.0,0.0,0.0,0.0,0.0,0.0,0.0,0.0,0.0,-3.2467,-3.1973,-3.2437,-3.2662,0.0,-2.8188,-2.5128,-2.4036,-2.2587,0.0,0.0,0.0,0.0,0.0,0.0,0.0,-2.9909,-3.2647,-3.4668,-3.5429,-3.5504,-3.5235,-3.4563,-3.4354,-3.338,-3.1376,-2.9879,-2.8113,-2.6033,-2.3691,0.0,0.0,0.0,0.0,0.0,0.0,0.0,0.0,0.0,0.0,0.0,0.0,0.0,0.0,0.0,0.0,0.0,0.0,0.0,0.0,0.0,0.0,0.0,0.0,0.0,0.0,0.0,0.0,0.0,-1.7424,-2.0134,-2.0559,-2.1785,-2.2139,0.0,0.0,0.0,0.0,0.0,0.0,0.0,0.0,0.0,-3.3132,-3.4615,-3.6155,-3.7787,-3.9502,-4.0752,-4.1491,-4.2912,-4.3417,-4.3121,-4.3462,-4.3216,-4.2597,-4.2963,-4.141,-3.8389,-3.492,-3.2775,-3.1445,0.0,0.0,0.0,0.0,-2.8607,-2.8842,-3.0383,-3.0522,0.0,-2.952,0.0,0.0,0.0,0.0,0.0,0.0,0.0,0.0,0.0,0.0,-3.3712,-3.4592,-3.4711,-3.4547,-3.4262,-3.2302,-2.9968,0.0,-2.7305,-2.6189,-2.3011,0.0,0.0,0.0,0.0,-2.9086,-3.1345,-3.3305,-3.4773,-3.5429,-3.5504,-3.5385,-3.5085,-3.4728,-3.3948,-3.2706,-3.1405,-2.9953,-2.8364,-2.6102,-2.3961,0.0,0.0,0.0,0.0,0.0,0.0,0.0,0.0,0.0,0.0,0.0,0.0,0.0,0.0,0.0,0.0,0.0,0.0,0.0,0.0,0.0,0.0,0.0,0.0,0.0,0.0,0.0,0.0,-2.0276,-2.2716,-2.3422,-2.4869,-2.5407,0.0,0.0,0.0,0.0,0.0,0.0,-3.2797,-3.432,-3.5893,-3.7543,-3.8646,-4.0258,-4.2337,-4.2902,-4.3538,-4.4299,-4.4874,-4.5173,-4.5173,-4.5173,-4.5173,-4.5173,-4.5173,-4.4807,-4.3913,-3.9208,-3.6578,-3.5251,-3.3127,-3.2087,-3.1831,-3.2248,-3.2527,-3.2973,-3.4586,-3.5064,-3.4729,-3.3682,0.0,-3.1884,-2.9966,0.0,0.0,0.0,0.0,-3.1949,-3.4095,-3.4577,-3.4885,-3.6456,-3.6379,-3.5998,-3.5998,-3.5594,-3.4307,0.0,-3.1225,-3.0554,-2.6757,0.0,0.0,0.0,0.0,-3.0986,-3.2781,-3.4023,-3.4936,-3.5444,-3.5504,-3.5504,-3.5504,-3.504,-3.4382,-3.3544,-3.2572,-3.1375,-2.9879,-2.8233,-2.6408,-2.4403,0.0,0.0,0.0,0.0,0.0,0.0,0.0,0.0,0.0,0.0,0.0,0.0,0.0,0.0,0.0,0.0,0.0,0.0,0.0,0.0,0.0,0.0,0.0,0.0,0.0,0.0,0.0,0.0,0.0,-2.5118,-2.8654,0.0,0.0,0.0,0.0,-3.1935,-3.3339,-3.5148,-3.7449,-3.8946,-4.0755,-4.2936,-4.3078,-4.3872,-4.5466,-4.5522,-4.5911,-4.6616,-4.6667,-4.6684,-4.6684,-4.6684,-4.6684,-4.6684,-4.6684,-4.6684,-4.6342,-4.2587,-4.0937,-4.0597,-3.8314,-3.8275,-3.9454,-3.8654,-3.8885,-3.9609,-3.9672,-3.9273,-3.869,-3.8419,-3.6546,-3.4339,-3.4204,-3.3844,0.0,0.0,-3.5293,-3.6569,-3.7092,-3.7214,-3.7225,-3.7319,-3.7349,-3.7315,-3.7315,-3.7285,-3.6477,0.0,-3.2841,-3.1988,-3.0462,0.0,-3.0522,-3.1107,-3.1854,-3.2856,-3.4234,-3.5011,-3.5474,-3.5504,-3.5504,-3.5504,-3.5504,-3.5474,-3.4891,-3.3574,-3.344,-3.2512,-3.0537,-2.9804,-2.8487,-2.6482,-2.3886,0.0,0.0,0.0,0.0,0.0,0.0,0.0,0.0,0.0,0.0,0.0,0.0,0.0,0.0,0.0,0.0,0.0,0.0,0.0,0.0,0.0,0.0,0.0,0.0,0.0,0.0,0.0,0.0,-3.0253,-3.1839,0.0,-3.1621,-3.3048,-3.4556,-3.5808,-3.728,-3.9089,-4.1313,-4.2439,-4.3572,-4.4857,-4.5348,-4.5855,-4.6397,-4.6887,-4.7496,-4.8223,-4.8697,-4.9171,-4.9644,-4.9644,-4.9644,-4.961,-4.912,-4.8917,-4.8748,-4.6481,-4.4669,-4.3198,-4.1898,-4.1416,-4.1416,-4.1089,-4.1461,-4.1954,-4.1013,-4.0824,-4.0827,-3.9862,-3.8871,-3.8026,-3.8026,-3.7544,-3.7002,-3.7168,-3.7201,-3.7357,-3.7979,-3.82,-3.8218,-3.8167,-3.82,-3.8086,-3.7526,-3.7404,-3.7135,-3.6193,-3.5504,-3.4367,-3.2183,-3.2497,-3.2856,-3.2228,-3.308,-3.4113,-3.5026,-3.5355,-3.5504,-3.5504,-3.5504,-3.5504,-3.5504,-3.51,-3.4457,-3.3559,-3.2706,-3.169,-3.0552,-2.9505,-2.8438,-2.727,-2.5465,-2.3056,0.0,0.0,0.0,0.0,0.0,0.0,0.0,0.0,0.0,0.0,0.0,0.0,0.0,0.0,0.0,0.0,0.0,0.0,0.0,0.0,0.0,0.0,0.0,0.0,0.0,0.0,-3.1002,-3.3805,-3.5095,-3.5609,-3.5307,-3.6857,-3.8396,-3.9665,-4.0916,-4.2371,-4.4068,-4.4908,-4.5669,-4.643,-4.7158,-4.7648,-4.7902,-4.8646,-4.9272,-4.9763,-5.0236,-5.0727,-5.1185,-5.1185,-5.1185,-5.1183,-5.0676,-5.0473,-5.0388,-4.9424,-4.8116,-4.6593,-4.479,-4.3951,-4.3702,-4.3405,-4.3794,-4.4277,-4.3359,-4.3124,-4.3102,-4.2161,-4.1491,-4.105,-4.105,-4.0672,-4.0198,-3.9912,-3.9604,-3.9441,-3.9669,-3.9799,-3.9815,-3.9766,-3.9799,-3.9654,-3.9093,-3.8705,-3.8455,-3.8228,-3.7413,-3.6163,-3.4203,-3.4577,-3.4786,-3.3694,-3.4262,-3.4996,-3.5444,-3.5504,-3.5504,-3.5504,-3.5504,-3.5504,-3.5504,-3.4876,-3.4219,-3.3529,-3.2437,-3.1436,-3.0537,-2.949,-2.8528,-2.7615,-2.6063,-2.4066,-2.168,0.0,0.0,0.0,0.0,0.0,0.0,0.0,0.0,0.0,0.0,0.0,0.0,0.0,0.0,0.0,0.0,0.0,0.0,0.0,0.0,0.0,0.0,0.0,-2.9622,-3.1526,-3.3565,-3.553,-3.8352,-3.9877,-3.9209,-4.1085,-4.2675,-4.3409,-4.4215,-4.4993,-4.5771,-4.6481,-4.7225,-4.7973,-4.8714,-4.9407,-5.0118,-5.0845,-5.1202,-5.1219,-5.1219,-5.1236,-5.1252,-5.1252,-5.1252,-5.1252,-5.1236,-5.1219,-5.1219,-5.1202,-5.1185,-5.0816,-4.7098,-4.6171,-4.6781,-4.5937,-4.6121,-4.6819,-4.6819,-4.6257,-4.554,-4.554,-4.451,-4.3217,-4.3217,-4.3278,-4.3204,-4.2349,-4.2679,-4.3143,-4.2285,-4.2078,-4.2062,-4.2029,-4.2013,-4.1997,-4.1965,-4.128,-4.047,-3.9805,-3.847,-3.727,-3.6626,-3.6507,-3.6297,-3.5669,-3.5549,0.0,-3.5534,-3.5519,-3.5504,-3.5504,-3.5504,-3.5504,-3.5504,-3.4876,-3.4219,-3.3529,-3.2841,-3.1869,-3.0582,-2.9924,-2.9007,-2.772,-2.5734,-2.435,-2.3684,0.0,0.0,0.0,0.0,0.0,0.0,0.0,0.0,0.0,0.0,0.0,0.0,0.0,0.0,0.0,0.0,0.0,0.0,0.0,0.0,0.0,0.0,-3.2964,-3.3827,-3.4978,-3.6729,-3.9337,-4.0394,-4.1239,-4.2105,-4.3267,-4.4265,-4.5026,-4.5771,-4.6735,-4.802,-4.8274,-4.8984,-5.0238,-5.0507,-5.071,-5.0913,-5.1083,-5.1488,-5.2012,-5.2012,-5.23,-5.2875,-5.2875,-5.2875,-5.2841,-5.2249,-5.2012,-5.1961,-5.1437,-5.1185,-5.105,-4.9457,-4.8998,-4.912,-4.8329,-4.7855,-4.7614,-4.7614,-4.7076,-4.6438,-4.6438,-4.6136,-4.5771,-4.5771,-4.536,-4.4838,-4.4602,-4.4268,-4.3912,-4.365,-4.367,-4.3566,-4.2944,-4.2382,-4.1836,-4.118,-4.0378,-3.9713,-3.9531,-3.9153,-3.8497,-3.736,-3.715,-3.709,-3.6911,-3.6507,0.0,-3.6222,-3.5804,-3.5504,-3.5504,-3.5504,-3.5504,-3.5504,-3.4876,-3.4219,-3.3529,-3.1958,-3.1106,-3.1212,-3.0178,-2.9624,-2.9699,-2.7794,-2.6437,0.0,0.0,0.0,0.0,0.0,0.0,0.0,0.0,0.0,0.0,0.0,0.0,0.0,0.0,0.0,0.0,0.0,0.0,0.0,0.0,0.0,0.0,-3.4253,-3.658,-3.8181,-3.8308,-3.9205,-4.1798,-4.2406,-4.3076,-4.4243,-4.506,-4.5821,-4.6583,-4.731,-4.8223,-4.9407,-4.9763,-5.0321,-5.1183,-5.1505,-5.1674,-5.1674,-5.2012,-5.2384,-5.2807,-5.2807,-5.3061,-5.3501,-5.3501,-5.3501,0.0,-5.301,-5.2807,-5.2773,-5.235,-5.2164,0.0,0.0,0.0,0.0,0.0,-4.9001,-4.8376,-4.8376,-4.8088,-4.7716,-4.7716,-4.7513,-4.7259,-4.7259,-4.669,-4.6024,-4.6024,-4.5667,-4.5304,-4.5304,-4.5353,-4.5269,-4.4757,-4.432,-4.3771,-4.2975,-4.1805,-4.084,-4.0543,-3.99,0.0,-3.8392,-3.8003,-3.7719,-3.7449,-3.7105,-3.6881,-3.6881,-3.6312,-3.5923,-3.5923,-3.5669,-3.5504,-3.5504,-3.4876,0.0,0.0,0.0,-3.1689,-3.1511,-3.0522,0.0,0.0,0.0,0.0,0.0,0.0,0.0,0.0,-2.6841,-2.6871,0.0,0.0,0.0,0.0,0.0,0.0,0.0,0.0,0.0,0.0,0.0,0.0,0.0,0.0,0.0,0.0,-3.7578,-3.948,-4.2064,-4.137,-4.1322,-4.3304,-4.4231,-4.5043,-4.5872,-4.6532,-4.7259,-4.8075,-4.8765,-4.9475,-5.0287,0.0,0.0,0.0,0.0,-5.2435,-5.2435,-5.3145,-5.3501,-5.3501,-5.3501,-5.3501,-5.3501,-5.3501,-5.3501,-5.3501,-5.3501,-5.3501,-5.3501,-5.3501,-5.3501,-5.3365,-5.1911,-5.1252,-5.1133,-5.0473,-4.9813,-4.9238,-4.9154,0.0,0.0,-4.9035,-4.8578,-4.8007,-4.8007,-4.7581,-4.7039,-4.7039,-4.7039,-4.7039,-4.7039,-4.6989,-4.6921,-4.6921,-4.6777,-4.6482,-4.5841,-4.4383,-4.3007,-4.2286,-4.0796,-3.9628,-3.9553,-3.8972,-3.8302,-3.7719,-3.7569,-3.7524,-3.7524,-3.6971,-3.6567,-3.6492,0.0,0.0,-3.5519,-3.4936,-3.4593,-3.4503,-3.3918,-3.3051,-3.178,-3.124,-3.124,-3.1824,-3.1765,-3.2303,-3.3499,-3.3574,-3.3604,-3.3529,-2.9951,-2.9232,0.0,0.0,0.0,0.0,0.0,0.0,0.0,0.0,0.0,0.0,0.0,0.0,0.0,0.0,0.0,-3.7184,-3.9775,-4.1893,-4.302,-4.3495,-4.3872,-4.4316,-4.5026,-4.6024,-4.7361,-4.7584,-4.824,-4.956,-4.9796,-5.0456,-5.1809,-5.2012,0.0,-5.3044,-5.3196,-5.3264,-5.3264,-5.3416,-5.3501,-5.3501,0.0,0.0,-5.3501,-5.3501,-5.3501,-5.3501,-5.3501,-5.3501,-5.3501,-5.3501,-5.3501,-5.3416,-5.2469,-5.1725,-5.1168,-5.1048,-5.0913,-5.0693,-5.0084,-4.9881,-4.9779,-4.9187,-4.89,-4.8798,-4.8798,-4.8697,0.0,-4.8578,-4.8578,-4.8578,-4.8578,-4.8139,-4.7699,-4.7699,-4.6706,-4.5711,-4.5578,-4.4707,-4.3761,-4.3023,-4.2045,-4.1148,-4.0558,-3.9743,-3.917,-3.9014,-3.8556,-3.8197,-3.8197,-3.7629,-3.7045,-3.6537,-3.6372,-3.6088,-3.5549,-3.5385,-3.507,-3.4533,-3.4384,-3.3933,-3.3155,-3.3499,-3.38,-3.3934,-3.338,-3.3245,-3.3499,-3.4054,-3.4324,-3.4294,-3.2961,-3.2841,0.0,0.0,0.0,0.0,0.0,0.0,0.0,0.0,0.0,0.0,0.0,-3.0949,-3.3195,0.0,-3.8463,-4.0332,-4.2219,-4.369,-4.4451,-4.5213,-4.5551,-4.5179,-4.6126,-4.7107,-4.7821,-4.8578,-4.9306,-5.0033,-5.0777,-5.1522,-5.2266,-5.2689,-5.3078,-5.3501,-5.3501,-5.3501,-5.3501,-5.3501,-5.3501,-5.3501,-5.3501,-5.3501,-5.3501,-5.3501,-5.3501,-5.3501,-5.3501,-5.3501,-5.3501,-5.3501,-5.3501,-5.3467,-5.3061,-5.2435,-5.1758,-5.1758,-5.1539,-5.1134,-5.0777,-5.0659,-5.0541,-4.9779,-4.9543,-4.9475,-4.912,-4.9001,-4.9001,-4.9001,-4.9001,-4.9001,-4.9001,-4.8731,-4.846,-4.846,-4.7847,-4.7166,-4.6767,-4.6007,-4.5048,-4.3826,-4.289,-4.1937,-4.0761,-4.02,-3.9798,-3.9433,-3.9125,-3.8901,-3.8901,-3.8317,-3.7778,-3.7464,-3.715,-3.6686,-3.6043,-3.5684,-3.5355,-3.5011,-3.4996,-3.4846,-3.4517,-3.4816,-3.4996,-3.4996,-3.4666,-3.4502,-3.4502,-3.4831,-3.516,-3.5507,-3.5145,-3.516,0.0,0.0,0.0,0.0,0.0,0.0,0.0,0.0,-2.8179,-3.1277,-3.3099,-3.4845,-3.7147,-3.9198,-4.1216,-4.3291,-4.4299,-4.506,-4.5805,-4.6549,-4.6786,-4.621,-4.7192,-4.7939,-4.8091,-4.9323,-5.0152,-5.0287,-5.1555,-5.2367,-5.252,-5.3145,-5.3501,-5.3501,-5.3501,-5.3501,-5.3501,-5.3501,-5.3501,-5.3501,-5.3501,-5.3501,-5.3501,-5.3501,-5.3501,-5.3501,-5.3501,-5.3501,-5.3501,-5.3501,-5.3501,-5.3501,-5.3501,-5.3112,-5.2536,-5.2536,-5.2164,-5.164,-5.1488,-5.1388,-5.1302,-5.0541,-5.0202,-4.9982,-4.939,-4.912,-4.9001,-4.9001,-4.9001,-4.9001,-4.9001,-4.9001,-4.9001,-4.9001,-4.9001,-4.8849,-4.8227,-4.7421,-4.6339,-4.4865,-4.3718,-4.2556,-4.1073,-4.0688,-4.0322,-3.9508,-3.9388,-3.9388,-3.9388,-3.8931,-3.8542,-3.8407,-3.7913,-3.7345,-3.6716,-3.6073,-3.5699,-3.5699,-3.5579,-3.5504,-3.5504,-3.5504,-3.5504,-3.5504,-3.5624,-3.5699,-3.5699,-3.5818,-3.6148,-3.6671,-3.6671,-3.6671,-2.2886,-2.4119,-2.5716,-2.7564,-2.7458,-2.84,0.0,0.0,-3.4091,-3.6486,-3.8165,-3.9482,-4.051,-4.1443,-4.2587,-4.4198,-4.5077,-4.5838,-4.6566,-4.731,-4.7767,-4.7652,-4.7787,-4.8173,-4.8815,-4.961,-5.0371,-5.1048,-5.1843,-5.2604,-5.3331,-5.345,-5.3501,-5.3501,-5.3501,-5.3501,-5.3501,-5.3501,-5.3501,-5.3501,-5.3501,-5.3501,-5.3501,-5.3501,-5.3501,-5.3501,-5.3501,-5.3501,-5.3501,-5.3501,-5.3501,-5.3501,-5.3501,-5.345,-5.3365,-5.3365,-5.3315,-5.3145,-5.2418,-5.2181,-5.2063,-5.1336,-5.0642,-5.0067,-4.9999,-4.9509,-4.9001,-4.9001,-4.9001,-4.9001,-4.9001,-4.9001,-4.9001,-4.9001,-4.9001,-4.8984,-4.89,-4.814,-4.7227,-4.6421,-4.4849,-4.3433,-4.2587,-4.1795,-4.0846,-3.9604,-3.9388,-3.9388,-3.9388,-3.9313,-3.9065,-3.8452,-3.8317,-3.8018,-3.736,-3.6731,-3.6372,-3.6372,-3.5833,-3.5504,-3.5504,-3.5504,-3.5504,-3.5504,-3.6073,-3.6372,-3.6372,-3.6926,-3.724,-3.73,-3.73,-3.73,-2.7558,-2.8128,0.0,0.0,-3.1481,-3.2869,-3.6041,-3.6526,-3.6975,-3.9291,-4.0625,-4.1435,-4.1788,-4.2847,-4.3989,0.0,-4.5855,-4.6599,-4.7344,-4.7733,-4.7889,-4.7889,-4.7889,-4.8176,-4.8934,-5.0067,-5.0879,-5.1168,-5.2334,-5.3145,-5.3484,-5.3501,-5.3501,-5.3501,-5.3501,-5.3501,-5.3501,-5.3501,-5.3501,-5.3501,-5.3501,-5.3501,-5.3501,-5.3501,-5.3501,-5.3501,-5.3501,-5.3501,-5.3501,-5.3501,-5.3501,-5.3501,-5.3501,-5.3501,-5.3501,-5.3501,-5.3501,-5.345,-5.3129,-5.301,-5.2875,-5.2097,-5.164,-5.1217,-5.0355,-4.9864,-4.9543,-4.912,-4.9001,-4.9001,-4.9001,-4.9001,-4.9001,-4.9001,-4.9001,-4.9001,-4.9001,-4.8257,-4.7358,-4.6494,-4.5263,-4.3976,-4.2734,-4.2228,-4.1677,-4.0711,-4.0232,-3.9843,-3.9433,-3.9388,-3.9305,-3.902,-3.8631,-3.8287,-3.8003,-3.7389,-3.703,-3.703,-3.6761,-3.6611,-3.6611,-3.6611,-3.6611,-3.6611,-3.6881,-3.703,-3.703,-3.7285,-3.7599,-3.7973,-3.7973,-3.8197,-2.9981,0.0,0.0,-3.2709,-3.4543,-3.6196,-3.7441,-3.8185,-3.9169,-4.1094,-4.1927,-4.2332,-4.2551,-4.3507,-4.457,-4.5551,-4.6312,-4.7124,-4.8088,-4.8024,-4.7889,-4.7889,-4.7703,-4.7902,-4.8629,-5.0033,-5.0997,-5.1168,-5.2435,-5.3264,-5.3501,-5.3501,-5.3501,-5.3501,-5.3501,-5.3501,-5.3501,-5.3501,-5.3501,-5.3501,-5.3501,-5.3501,-5.3501,-5.3501,-5.3501,-5.3501,-5.3501,-5.3501,-5.3501,-5.3501,-5.3501,-5.3501,-5.3501,-5.3501,-5.3501,-5.3501,-5.3501,-5.3501,-5.3501,-5.3501,-5.3399,-5.2824,-5.2486,-5.2097,-5.1031,-5.0557,-5.0253,-4.9509,-4.9306,-4.9255,-4.9052,-4.9001,-4.9001,-4.9001,-4.9001,-4.9001,-4.9001,-4.8257,-4.7306,-4.6384,-4.5431,-4.4318,-4.2896,-4.2626,-4.244,-4.1782,-4.125,-4.0636,-3.9798,-3.9493,-3.9388,-3.9388,-3.8975,-3.8676,-3.8676,-3.8063,-3.7689,-3.7689,-3.7509,-3.7404,-3.7404,-3.7404,-3.7404,-3.7404,-3.7584,-3.7689,-3.7689,-3.7868,-3.8212,-3.8676,-3.8676,-3.9035,0.0,0.0,-3.2865,-3.4286,-3.5713,-3.7309,-3.9334,-4.038,-4.1173,-4.2078,-4.2244,-4.2452,-4.3238,-4.3409,-4.3916,-4.5466,-4.6312,-4.731,-4.8765,-4.8359,-4.7889,-4.7889,-4.7276,-4.7124,0.0,-4.9272,-5.0422,-5.1134,-5.1911,-5.2689,-5.3467,-5.3501,-5.3501,-5.3501,-5.3501,-5.3501,-5.3501,-5.3501,-5.3501,-5.3501,-5.3501,-5.3501,-5.3501,-5.3501,-5.3501,-5.3501,-5.3501,-5.3501,-5.3501,-5.3501,-5.3501,-5.3501,-5.3501,-5.3501,-5.3501,-5.3501,-5.3501,-5.3501,-5.3501,-5.3501,-5.3501,-5.3467,-5.2942,-5.23,-5.2249,-5.1742,-5.1014,-5.027,-5.005,-4.9898,-4.9187,-4.9001,-4.9001,-4.9001,-4.9001,-4.9001,-4.9001,-4.8257,-4.7306,-4.6384,-4.5431,-4.4472,-4.3457,-4.326,-4.309,-4.247,-4.2351,-4.1871,-4.0531,-3.9813,-3.9388,-3.9388,-3.9394,-3.9394,-3.9394,-3.8751,-3.8362,-3.8362,-3.7764,-3.7404,-3.7404,-3.7404,-3.7404,-3.7404,-3.8033,-3.8362,-3.8362,-3.9035,-3.9328,-3.9394,-3.9394,-3.9738,0.0,0.0,-3.4317,-3.6277,-3.7312,-3.8358,-4.0197,-4.0782,-4.1175,-4.2039,-4.2254,-4.2343,-4.2605,-4.2675,-4.3335,-4.5382,-4.5906,-4.6769,-4.8731,-4.8376,-4.7733,-4.7225,-4.7394,0.0,0.0,0.0,0.0,-5.1116,-5.1894,-5.2655,-5.3467,-5.3501,-5.3501,-5.3501,-5.3501,-5.3501,-5.3501,-5.3501,-5.3501,-5.3501,-5.3501,-5.3501,-5.3501,-5.3501,-5.3501,-5.3501,-5.3501,-5.3501,-5.3501,-5.3501,-5.3501,-5.3501,-5.3501,-5.3501,-5.3501,-5.3501,-5.3501,-5.3501,-5.3501,-5.3501,-5.3501,-5.3501,-5.3315,-5.301,-5.2469,-5.2131,-5.1792,-5.1048,-5.0828,-5.0659,-4.9915,-4.9729,-4.961,-4.912,-4.9001,-4.9001,-4.9001,-4.777,-4.6574,-4.6244,-4.4915,-4.3708,-4.3369,-4.329,-4.312,-4.25,-4.1647,-4.0905,-4.0457,-3.9828,-3.9388,-3.9388,-3.9388,-3.9388,-3.9388,-3.92,-3.9065,-3.9065,-3.8871,-3.8751,-3.8751,-3.8751,-3.8751,-3.8751,-3.896,-3.9065,-3.9065,-3.9305,-3.9649,-4.0068,-4.0068,-4.0427,0.0,-3.4651,-3.5373,-3.7499,-3.8674,-3.9617,-4.069,-4.1175,-4.1443,-4.1789,-4.1226,-4.0738,-4.105,-4.0899,-4.1644,-4.4434,-4.5128,-4.616,-4.8663,-4.8376,-4.7834,-4.7614,-4.7784,-4.7936,0.0,0.0,0.0,-5.11,-5.1894,-5.2655,-5.3467,-5.3501,-5.3501,-5.3501,-5.3501,-5.3501,-5.3501,-5.3501,-5.3501,-5.3501,-5.3501,-5.3501,-5.3501,-5.3501,-5.3501,-5.3501,-5.3501,-5.3501,-5.3501,-5.3501,-5.3501,-5.3501,-5.3501,-5.3501,-5.3501,-5.3501,-5.3501,-5.3501,-5.3501,-5.3501,-5.3501,-5.3501,-5.3501,-5.3399,-5.2892,-5.2739,-5.257,-5.1809,-5.1606,-5.1437,-5.0676,-5.049,-5.0304,-4.9576,-4.939,-4.9323,-4.9069,-4.7803,-4.6592,-4.6295,-4.4899,-4.3732,-4.3369,-4.329,-4.3155,-4.2776,-4.1788,-4.101,-4.0786,-4.0382,-4.0023,-3.9798,-3.9768,-3.9679,-3.9403,-3.9388,-3.9388,-3.9388,-3.9388,-3.9388,-3.9388,-3.9388,-3.9388,-3.9388,-3.9649,-3.9768,-3.9768,-4.0008,-4.0337,-4.0756,-4.0756,-4.11,-3.4204,-3.5085,-3.6088,-3.7997,-3.9701,-4.0926,-4.0911,-4.1462,-4.1799,-4.1112,-3.9178,-3.7829,0.0,0.0,-3.9039,-4.2632,-4.3995,-4.5647,-4.8595,-4.8443,-4.8291,0.0,0.0,0.0,0.0,0.0,0.0,-5.1185,0.0,-5.2655,-5.3467,-5.3501,-5.3501,-5.3501,-5.3501,-5.3501,-5.3501,-5.3501,-5.3501,-5.3501,-5.3501,-5.3501,-5.3501,-5.3501,-5.3501,-5.3501,-5.3501,-5.3501,-5.3501,-5.3501,-5.3501,-5.3501,-5.3501,-5.3501,-5.3501,-5.3501,-5.3501,-5.3501,-5.3501,-5.3501,-5.3501,-5.3501,-5.3501,-5.3501,-5.3501,-5.3501,-5.3348,-5.2587,-5.2367,-5.2198,-5.1471,-5.1268,-5.1082,-5.0321,-5.0152,-4.9949,-4.9272,-4.8308,-4.7322,-4.6448,-4.541,-4.4412,-4.3472,-4.329,-4.329,-4.329,-4.2806,-4.2216,-4.1557,-4.1399,-4.1145,-4.0516,-4.0442,-4.0187,-3.9574,-3.9514,-3.9514,-3.9514,-3.9514,-3.9514,-3.9514,-3.9514,-3.9514,-3.9514,-4.0127,-4.0442,-4.0442,-4.107,-4.1437,-4.1467,-4.1467,-4.1826,-3.4876,-3.6432,-3.7936,-3.9091,-3.9683,-4.0111,-4.0753,-4.0251,-3.9298,-3.8025,-3.6895,-3.5883,-3.4986,0.0,0.0,-4.0502,-4.2997,0.0,-4.8595,-4.9306,0.0,0.0,0.0,-5.0304,-5.0101,-5.1082,0.0,0.0,-5.2198,-5.2655,-5.3467,-5.3501,-5.3501,-5.3501,-5.3501,-5.3501,-5.3501,-5.3501,-5.3501,-5.3501,-5.3501,-5.3501,-5.3501,-5.3501,-5.3501,-5.3501,-5.3501,-5.3501,-5.3501,-5.3501,-5.3501,-5.3501,-5.3501,-5.3501,-5.3501,-5.3501,-5.3501,-5.3501,-5.3501,-5.3501,-5.3501,-5.3501,-5.3501,-5.3501,-5.3501,-5.3501,-5.3467,-5.3264,-5.3196,-5.301,-5.2232,-5.2029,-5.1843,-5.1099,-5.093,-5.0879,-5.0693,-4.8927,-4.7294,-4.7081,-4.5219,-4.3591,-4.3329,-4.329,-4.329,-4.329,-4.3155,-4.2851,-4.2231,-4.1722,-4.1309,-4.1145,-4.113,-4.107,-4.0891,-4.0876,-4.0876,-4.0876,-4.0876,-4.0876,-4.0876,-4.0876,-4.0876,-4.0876,-4.1055,-4.113,-4.113,-4.1332,-4.1677,-4.2156,-4.2156,-4.2462,-3.6417,-3.7778,-3.8908,-3.9082,-3.9398,-3.9394,-3.8401,-3.7841,-3.6786,-3.4162,-3.3452,0.0,-3.1418,0.0,0.0,0.0,0.0,0.0,-4.8545,-4.9627,-5.0338,0.0,-5.1437,0.0,-5.1589,-5.2334,-5.2841,0.0,-5.2841,-5.3027,-5.3484,-5.3501,-5.3501,-5.3501,-5.3501,-5.3501,-5.3501,-5.3501,-5.3501,-5.3501,-5.3501,-5.3501,-5.3501,-5.3501,-5.3501,-5.3501,0.0,-5.3501,-5.3501,-5.3501,-5.3501,-5.3501,-5.3501,-5.3501,-5.3501,-5.3501,-5.3501,-5.3501,-5.3501,-5.3501,-5.3501,-5.3501,-5.3501,-5.3501,-5.3501,-5.3501,-5.3501,-5.3501,-5.3501,-5.3399,-5.2942,-5.2841,-5.2638,-5.1877,-5.1362,-5.0944,-5.0593,-4.8703,-4.6837,-4.6124,-4.4791,-4.3633,-4.3349,-4.329,-4.329,-4.329,-4.329,-4.317,-4.2836,-4.2462,-4.2117,-4.1886,-4.1856,-4.1737,-4.1452,-4.1422,-4.1422,-4.1422,-4.1422,-4.1422,-4.1422,-4.1422,-4.1422,-4.1422,-4.1707,-4.1856,-4.1856,-4.2102,-4.2432,-4.2776,-4.2776,-4.2985,-3.7958,-3.8826,-3.926,-3.8556,-3.8922,-3.86,-3.5419,-3.5023,-3.4233,-3.0295,0.0,-2.9329,-2.7998,0.0,-3.3895,-3.7,0.0,-4.444,-4.8325,-4.956,-5.0642,-5.2131,-5.2384,-5.2739,-5.3433,-5.3501,-5.3501,-5.3501,-5.3501,-5.3501,-5.3501,-5.3501,-5.3501,-5.3501,-5.3501,-5.3501,-5.3501,-5.3501,-5.3501,-5.3501,-5.3501,-5.3501,-5.3501,-5.3501,-5.3501,-5.3501,0.0,0.0,-5.3501,-5.3501,-5.3501,-5.3501,-5.3501,-5.3501,-5.3501,-5.3501,-5.3501,-5.3501,-5.3501,-5.3501,-5.3501,-5.3501,-5.3501,-5.3501,-5.3501,-5.3501,-5.3501,-5.3501,-5.3501,-5.3501,-5.3501,-5.3501,-5.3331,-5.2638,-5.1678,-5.0766,-5.014,-4.8328,-4.6379,-4.4759,-4.4451,-4.4272,-4.3648,-4.3484,-4.3424,-4.3424,-4.3349,-4.329,-4.329,-4.329,-4.312,-4.259,-4.253,-4.2291,-4.1683,-4.1639,-4.1639,-4.1639,-4.1639,-4.1639,-4.1639,-4.1639,-4.1639,-4.1639,-4.2231,-4.253,-4.253,-4.3045,-4.329,-4.329,-4.329,-4.329,-3.7524,-3.8482,-3.926,-3.8556,-3.8187,-3.739,-3.5217,-3.3535,0.0,0.0,0.0,-2.5975,-2.5075,-2.775,0.0,-3.4832,0.0,0.0,0.0,0.0,-5.0642,0.0,0.0,0.0,0.0,0.0,0.0,0.0,0.0,-5.3501,-5.3501,-5.3501,-5.3501,-5.3501,-5.3501,-5.3501,-5.3501,-5.3501,-5.3501,-5.3501,-5.3501,-5.3501,-5.3501,-5.3501,-5.3501,-5.3501,-5.3501,0.0,-5.3501,-5.3501,-5.3501,-5.3501,-5.3501,-5.3501,-5.3501,-5.3501,-5.3501,-5.3501,-5.3501,-5.3501,-5.3501,-5.3501,-5.3501,-5.3501,-5.3501,-5.3501,-5.3501,-5.3501,-5.3501,-5.3501,-5.3501,-5.3501,-5.3467,-5.3331,-5.2479,-5.1655,-5.1539,-4.9473,-4.7127,-4.5436,-4.5125,-4.5095,-4.4975,-4.4496,-4.4152,-4.4152,-4.3633,-4.329,-4.329,-4.329,-4.3245,-4.314,-4.3125,-4.308,-4.2961,-4.2961,-4.2961,-4.2961,-4.2961,-4.2961,-4.2961,-4.2961,-4.2961,-4.2961,-4.3065,-4.3125,-4.3125,-4.3245,-4.329,-4.329,-4.329,-4.329,-3.7823,-3.8646,-3.917,-3.8138,-3.7439,-3.6129,-3.2793,0.0,0.0,0.0,0.0,-2.3502,-2.2388,0.0,0.0,0.0,0.0,0.0,0.0,0.0,0.0,0.0,0.0,0.0,0.0,0.0,0.0,0.0,0.0,0.0,-5.3501,-5.3501,-5.3501,-5.3501,-5.3501,-5.3501,-5.3501,-5.3501,-5.3501,-5.3501,-5.3501,-5.3501,-5.3501,-5.3501,-5.3501,-5.3501,-5.3501,0.0,-5.3501,-5.3501,-5.3501,-5.3501,-5.3501,-5.3501,-5.3501,-5.3501,-5.3501,-5.3501,-5.3501,-5.3501,-5.3501,-5.3501,-5.3501,-5.3501,-5.3501,-5.3501,-5.3501,-5.3501,-5.3501,-5.3501,-5.3501,-5.3076,-5.2662,-5.2662,-5.1467,-5.0133,-4.9615,-4.847,-4.7194,-4.6032,-4.5828,-4.5723,-4.5349,-4.5035,-4.4825,-4.4825,-4.4556,-4.4227,-4.3883,-4.3798,-4.3678,-4.3334,-4.329,-4.329,-4.329,-4.329,-4.329,-4.329,-4.329,-4.329,-4.329,-4.329,-4.329,-4.329,-4.329,-4.329,-4.329,-4.329,-4.329,-4.329,-4.329,-4.329,-3.7958,-3.8676,-3.8916,-3.7704,-3.6836,-3.5055,-3.0432,-2.8244,0.0,0.0,-2.1652,-2.1519,-2.056,0.0,0.0,0.0,0.0,0.0,0.0,0.0,0.0,0.0,0.0,0.0,0.0,0.0,0.0,0.0,0.0,0.0,-5.3501,-5.3501,-5.3501,-5.3501,-5.3501,-5.3501,-5.3501,-5.3501,-5.3501,-5.3501,-5.3501,-5.3501,-5.3501,-5.3501,-5.3501,-5.3501,-5.3501,0.0,0.0,-5.3501,-5.3501,-5.3501,-5.3501,-5.3501,-5.3501,-5.3501,-5.3501,-5.3501,-5.3501,-5.3501,-5.3501,-5.3501,-5.3501,-5.3501,-5.3501,-5.3501,-5.3501,-5.3501,-5.3501,-5.3467,-5.323,-5.2505,-5.1796,-5.134,-4.9977,-4.8512,-4.7538,-4.7309,-4.716,-4.6636,-4.6488,-4.6367,-4.5828,-4.5603,-4.5514,-4.5514,-4.5394,-4.511,-4.4586,-4.4526,-4.4272,-4.3574,-4.3379,-4.329,-4.329,-4.329,-4.329,-4.329,-4.329,-4.329,-4.329,-4.329,-4.329,-4.329,-4.329,-4.329,-4.329,-4.329,-4.329,-4.329,-4.329,-4.329,-3.7165,-3.7973,-3.8317,-3.7584,-3.6492,-3.4382,-2.9744,0.0,0.0,0.0,-2.034,-2.0095,-2.0569,-2.1981,0.0,0.0,0.0,0.0,0.0,0.0,0.0,0.0,0.0,0.0,0.0,0.0,0.0,0.0,0.0,0.0,-5.3501,-5.3501,-5.3501,-5.3501,-5.3501,-5.3501,-5.3501,-5.3501,-5.3501,-5.3501,-5.3501,-5.3501,-5.3501,-5.3501,-5.3501,-5.3501,-5.3501,0.0,0.0,-5.3501,-5.3501,-5.3501,-5.3501,-5.3501,-5.3501,-5.3501,-5.3501,-5.3501,-5.3501,-5.3501,-5.3501,-5.3501,-5.3501,-5.3501,-5.3501,-5.3501,-5.3501,-5.3501,-5.3501,-5.328,-5.2312,-5.1957,-5.1414,-4.952,-4.8948,-4.8512,-4.7538,-4.7309,-4.7294,-4.7234,-4.7219,-4.7189,-4.713,-4.6621,-4.619,-4.619,-4.5693,-4.5274,-4.5214,-4.5214,-4.4945,-4.4287,-4.3648,-4.329,-4.329,-4.329,-4.329,-4.329,-4.329,-4.329,-4.329,-4.329,-4.329,-4.329,-4.329,-4.329,-4.329,-4.329,-4.329,-4.329,-4.329,-4.329,-3.6492,-3.7315,-3.7644,-3.7015,-3.5564,-3.3305,-2.9475,0.0,-2.4171,-2.1286,-2.0168,-1.9783,-2.0049,-2.0839,-2.2517,0.0,-2.7149,-2.9623,0.0,0.0,0.0,0.0,0.0,0.0,0.0,0.0,0.0,0.0,0.0,0.0,-5.3467,-5.3501,-5.3501,-5.3501,-5.3501,-5.3501,-5.3501,-5.3501,-5.3501,-5.3501,-5.3501,-5.3501,-5.3501,-5.3501,-5.3501,-5.3501,-5.3501,0.0,0.0,-5.3501,-5.3501,-5.3501,-5.3501,-5.3501,-5.3501,-5.3501,-5.3501,-5.3501,-5.3501,-5.3501,-5.3501,-5.3501,-5.3501,-5.3501,-5.3501,-5.3501,-5.3501,-5.3501,-5.3025,-5.2435,-5.1993,-5.0989,-4.9679,-4.8225,-4.7919,-4.7807,-4.7381,-4.7309,-4.7309,-4.7309,-4.7309,-4.7309,-4.7309,-4.7085,-4.692,-4.692,-4.6681,-4.6367,-4.5963,-4.5918,-4.5663,-4.4975,-4.4317,-4.3723,-4.3319,-4.329,-4.329,-4.329,-4.329,-4.329,-4.329,-4.329,-4.329,-4.329,-4.329,-4.329,-4.329,-4.329,-4.329,-4.3305,-4.3693,-4.3888,-3.5402,-3.6357,-3.6791,-3.6552,-3.4981,-3.2587,0.0,0.0,-2.3797,-2.0972,-2.0034,-1.9708,-1.9708,-2.0243,-2.1421,0.0,-2.4679,-2.6817,-3.154,0.0,0.0,0.0,0.0,0.0,0.0,0.0,0.0,0.0,0.0,0.0,0.0,-5.2886,-5.3179,-5.3501,-5.3501,-5.3501,-5.3501,-5.3501,-5.3501,-5.3501,-5.3501,-5.3501,-5.3501,-5.3501,-5.3501,-5.3501,0.0,0.0,0.0,-5.3501,-5.3501,-5.3501,-5.3501,-5.3501,-5.3501,-5.3501,-5.3501,-5.3501,-5.3501,-5.3501,-5.3501,-5.3501,-5.328,-5.3025,-5.3025,-5.3025,-5.2956,-5.2661,-5.1813,-5.0989,-5.0989,-4.9679,-4.8183,-4.7452,-4.7309,-4.7309,-4.7309,-4.7309,-4.7309,-4.7309,-4.7309,-4.7309,-4.7309,-4.7309,-4.7309,-4.7309,-4.7309,-4.713,-4.6681,-4.6621,-4.6352,-4.5678,-4.5185,-4.4556,-4.3663,-4.3589,-4.3499,-4.3305,-4.329,-4.329,-4.329,-4.329,-4.329,-4.329,-4.329,-4.3394,-4.3589,-4.3589,-4.3678,-4.3888,-4.4392,-4.4706,-3.3635,-3.4996,-3.5684,-3.6327,-3.4981,-3.2452,0.0,-2.6048,-2.3663,-2.0397,-1.9708,-1.9708,-1.9708,-2.0243,-2.1137,-2.2508,-2.4889,-2.7724,-3.1047,0.0,0.0,0.0,0.0,0.0,0.0,0.0,0.0,0.0,0.0,0.0,0.0,-5.1394,-5.24,-5.3467,-5.3501,-5.3501,-5.3501,-5.3501,-5.3501,-5.3501,-5.3501,-5.3501,-5.3501,-5.3501,-5.3501,0.0,0.0,0.0,0.0,-5.3501,-5.3501,-5.3501,-5.3501,-5.3501,-5.3501,-5.3501,-5.3501,-5.3501,-5.3501,-5.3501,-5.3501,-5.3501,-5.2784,-5.1921,-5.1921,-5.1921,-5.1724,-5.0703,-4.9655,-4.8825,-4.8825,-4.8072,-4.7294,-4.7309,-4.7309,-4.7309,-4.7309,-4.7309,-4.7309,-4.7309,-4.7309,-4.7309,-4.7309,-4.7309,-4.7309,-4.7309,-4.7309,-4.7309,-4.7294,-4.7294,-4.704,-4.6339,-4.6264,-4.5753,-4.4421,-4.4302,-4.3992,-4.3334,-4.329,-4.329,-4.329,-4.329,-4.329,-4.329,-4.329,-4.3618,-4.4302,-4.4302,-4.4631,-4.5274,-4.5289,-4.5648,-2.9502,-3.061,-3.1285,-3.0595,-2.9606,-2.8098,-2.5465,-2.4044,-2.2607,-2.0202,-1.9708,-1.9708,-1.9708,-1.9869,-2.1036,-2.4163,-2.5375,0.0,0.0,0.0,0.0,0.0,0.0,0.0,0.0,0.0,0.0,0.0,0.0,0.0,0.0,-5.0703,-5.1357,-5.2348,-5.311,-5.3501,-5.3501,-5.3501,-5.3501,-5.3501,-5.3501,-5.3501,-5.3501,-5.3501,0.0,0.0,0.0,0.0,0.0,-5.3501,-5.3501,-5.3501,-5.3501,-5.3501,-5.3501,-5.3501,-5.3501,-5.3501,-5.3501,-5.3025,-5.24,-5.24,-5.1704,-5.0741,-4.9993,-5.0304,-5.0665,-4.9615,-4.9054,-4.8636,-4.7946,-4.7538,-4.7309,-4.7309,-4.7309,-4.7309,-4.7309,-4.7309,-4.7309,-4.7309,-4.7309,-4.7309,-4.7309,-4.7309,-4.7309,-4.7309,-4.7309,-4.7309,-4.7309,-4.7309,-4.7219,-4.701,-4.6995,-4.6456,-4.5095,-4.499,-4.4885,-4.4691,-4.4676,-4.4676,-4.4676,-4.4676,-4.4676,-4.4676,-4.4676,-4.4781,-4.499,-4.499,-4.5334,-4.5992,-4.5992,-4.6352,0.0,-2.7645,-2.8334,-2.775,-2.6911,-2.5764,-2.3999,-2.2936,-2.1819,-2.0067,-1.9708,-1.9708,-1.9708,-2.0112,-2.1246,-2.3729,-2.5181,0.0,0.0,0.0,0.0,0.0,0.0,0.0,0.0,0.0,0.0,0.0,0.0,0.0,0.0,-4.9575,-5.0071,-5.0725,-5.1776,-5.2522,-5.2904,-5.2904,-5.311,-5.3501,-5.3501,-5.3501,-5.3501,-5.3501,0.0,0.0,0.0,0.0,0.0,-5.3501,-5.3501,-5.3501,-5.3501,-5.3501,-5.3501,-5.3501,-5.323,-5.2904,-5.2904,-5.2205,-5.134,-5.134,-5.0627,-4.9575,-4.8569,-4.8692,-4.9085,-4.8418,-4.821,-4.8099,-4.7452,-4.7309,-4.7309,-4.7309,-4.7309,-4.7309,-4.7309,-4.7309,-4.7309,-4.7309,-4.7309,-4.7309,-4.7309,-4.7309,-4.7309,-4.7309,-4.7309,-4.7309,-4.7309,-4.7309,-4.7309,-4.7309,-4.7309,-4.6965,-4.6127,-4.5828,-4.5574,-4.5304,-4.5289,-4.5289,-4.5289,-4.5289,-4.5289,-4.5289,-4.5289,-4.5424,-4.5678,-4.5933,-4.6277,-4.6696,-4.6696,-4.692,0.0,-2.5704,-2.6387,-2.6911,-2.6123,-2.4911,-2.3625,-2.2443,0.0,-1.9977,-1.9708,-1.9768,-1.9947,-2.0917,-2.1844,-2.2263,-2.4852,0.0,0.0,0.0,0.0,0.0,0.0,0.0,0.0,0.0,0.0,0.0,0.0,0.0,0.0,-4.8183,-4.8677,-4.8677,-4.9655,-5.0703,-5.176,-5.1796,-5.2277,-5.328,-5.3348,-5.3382,-5.3382,-5.3467,0.0,0.0,0.0,0.0,0.0,-5.3348,-5.3348,-5.328,-5.3348,-5.3348,-5.328,-5.328,-5.2644,-5.1796,-5.1796,-5.1117,-5.0281,-5.0204,-4.9512,-4.8527,-4.7566,-4.7309,-4.7309,-4.7309,-4.7309,-4.7309,-4.7309,-4.7309,-4.7309,-4.7309,-4.7309,-4.7309,-4.7309,-4.7309,-4.7309,-4.7309,-4.7309,-4.7309,-4.7309,-4.7309,-4.7309,-4.7309,-4.7309,-4.7309,-4.7309,-4.7309,-4.7309,-4.7309,-4.7309,-4.7309,-4.7309,-4.6741,-4.6127,-4.5484,-4.5439,-4.5439,-4.5439,-4.5439,-4.5439,-4.5439,-4.5439,-4.5753,-4.6354,-4.701,-4.7309,-4.7309,-4.7309,-4.7309,-2.0921,0.0,-2.2637,-2.1774,-2.171,-2.1615,0.0,-2.0782,-2.0707,0.0,0.0,-2.0322,-2.2308,-2.2143,-2.3176,-2.7694,-2.8682,0.0,0.0,0.0,0.0,0.0,0.0,0.0,0.0,0.0,0.0,0.0,0.0,0.0,0.0,-4.7538,-4.7651,-4.7651,-4.7892,-4.8897,-5.0741,-5.0741,-5.0871,-5.1134,-5.1902,-5.2277,-5.2312,-5.3144,0.0,0.0,0.0,0.0,-5.1171,-5.1974,-5.1813,-5.1208,-5.1974,-5.1829,-5.1134,-5.1134,-5.0984,-5.0741,-5.0741,-5.0048,-4.9069,-4.8267,-4.7849,-4.7609,-4.7381,-4.7309,-4.7309,-4.7309,-4.7309,-4.7309,-4.7309,-4.7309,-4.7309,-4.7309,-4.7309,-4.7309,-4.7309,-4.7309,-4.7309,-4.7309,-4.7309,-4.7309,-4.7309,-4.7309,-4.7309,-4.7309,-4.7309,-4.7309,-4.7309,-4.7309,-4.7309,-4.7309,-4.7309,-4.7309,-4.7309,-4.716,-4.701,-4.6845,-4.683,-4.683,-4.683,-4.683,-4.683,-4.683,-4.683,-4.692,-4.707,-4.7234,-4.7309,-4.7309,-4.7309,-4.7309,-1.9708,-2.0906,-2.1984,-2.1265,-2.1355,-2.1515,-2.116,0.0,0.0,0.0,0.0,0.0,-2.2413,0.0,0.0,0.0,0.0,0.0,0.0,0.0,0.0,0.0,0.0,0.0,0.0,0.0,0.0,0.0,0.0,0.0,0.0,-4.7309,-4.7309,-4.7309,-4.7309,-4.8072,-4.9655,-4.9655,-4.9931,-5.0397,-5.1431,-5.1921,-5.1921,-5.2505,-5.2435,0.0,0.0,0.0,-5.0435,-5.0968,-5.0892,-5.0435,-5.1005,-5.0892,-5.0397,-5.0397,-5.0087,-4.9655,-4.9655,-4.9004,-4.803,-4.7495,-4.7309,-4.7309,-4.7309,-4.7309,-4.7309,-4.7309,-4.7309,-4.7309,-4.7309,-4.7309,-4.7309,-4.7309,-4.7309,-4.7309,-4.7309,-4.7309,-4.7309,-4.7309,-4.7309,-4.7309,-4.7309,-4.7309,-4.7309,-4.7309,-4.7309,-4.7309,-4.7309,-4.7309,-4.7309,-4.7309,-4.7309,-4.7309,-4.7309,-4.7309,-4.7309,-4.7309,-4.7309,-4.7309,-4.7309,-4.7309,-4.7309,-4.7309,-4.7309,-4.7309,-4.7309,-4.7309,-4.7309,-4.7309,-4.7309,-4.7309,-2.0067,-2.1625,-2.3017,-2.2523,-2.2628,-2.2793,-2.2598,0.0,0.0,0.0,0.0,0.0,0.0,0.0,0.0,0.0,0.0,0.0,0.0,0.0,0.0,0.0,0.0,0.0,0.0,0.0,0.0,0.0,0.0,0.0,0.0,-4.7309,-4.7309,-4.7309,-4.7309,-4.7722,-4.8553,-4.8553,-4.9029,-4.9947,-5.0968,-5.1414,-5.1414,-5.1614,-5.1578,0.0,0.0,0.0,-4.9947,-5.0087,-5.0064,-4.9947,-5.0087,-5.0048,-4.9947,-4.9947,-4.9352,-4.8553,-4.8553,-4.803,-4.7309,-4.7309,-4.7309,-4.7309,-4.7309,-4.7309,-4.7309,-4.7309,-4.7309,-4.7309,-4.7309,-4.7309,-4.7309,-4.7309,-4.7309,-4.7309,-4.7309,-4.7309,-4.7309,-4.7309,-4.7309,-4.7309,-4.7309,-4.7309,-4.7309,-4.7309,-4.7309,-4.7309,-4.7309,-4.7309,-4.7309,-4.7309,-4.7309,-4.7309,-4.7309,-4.7309,-4.7309,-4.7309,-4.7309,-4.7309,-4.7309,-4.7309,-4.7309,-4.7309,-4.7309,-4.7309,-4.7309,-4.7309,-4.7309,-4.7309,-4.7309,-4.7309,-2.1774,-2.3655,-2.4492,-2.169,-2.2248,-2.3176,0.0,0.0,0.0,0.0,0.0,0.0,0.0,0.0,0.0,0.0,0.0,0.0,0.0,0.0,0.0,0.0,0.0,0.0,0.0,0.0,0.0,0.0,0.0,0.0,0.0,0.0,-4.7309,-4.7309,-4.7309,-4.7381,-4.7538,-4.7538,-4.7609,-4.7779,-4.88,-4.9296,-4.9296,-5.0242,-5.011,0.0,0.0,-4.8569,-4.7849,-4.8677,-4.8527,-4.7849,-4.8718,-4.8543,-4.7764,-4.7764,-4.7651,-4.7538,-4.7538,-4.7424,-4.7309,-4.7309,-4.7309,-4.7309,-4.7309,-4.7309,-4.7309,-4.7309,-4.7309,-4.7309,-4.7309,-4.7309,-4.7309,-4.7309,-4.7309,-4.7309,-4.7309,-4.7309,-4.7309,-4.7309,-4.7309,-4.7309,-4.7309,-4.7309,-4.7309,-4.7309,-4.7309,-4.7309,-4.7309,-4.7309,-4.7309,-4.7309,-4.7309,-4.7309,-4.7309,-4.7309,-4.7309,-4.7309,-4.7309,-4.7309,-4.7309,-4.7309,-4.7309,-4.7309,-4.7309,-4.7309,-4.7309,-4.7309,-4.7309,-4.7309,-4.7309,-4.7309,-2.0831,-2.2757,-2.4163,-2.2652,-2.4298,-2.6243,0.0,0.0,0.0,0.0,0.0,0.0,0.0,0.0,0.0,0.0,0.0,0.0,0.0,0.0,0.0,0.0,0.0,0.0,0.0,0.0,0.0,0.0,0.0,0.0,0.0,0.0,-4.7309,-4.7309,-4.7309,-4.7309,-4.7309,-4.7309,-4.7309,-4.7294,-4.8335,-4.8784,-4.8825,-4.9296,-4.9256,-4.8784,0.0,-4.7722,-4.7352,-4.7807,-4.7722,-4.7337,-4.7792,-4.7722,-4.7309,-4.7309,-4.7309,-4.7309,-4.7309,-4.7309,-4.7309,-4.7309,-4.7309,-4.7309,-4.7309,-4.7309,-4.7309,-4.7309,-4.7309,-4.7309,-4.7309,-4.7309,-4.7309,-4.7309,-4.7309,-4.7309,-4.7309,-4.7309,-4.7309,-4.7309,-4.7309,-4.7309,-4.7309,-4.7309,-4.7309,-4.7309,-4.7309,-4.7309,-4.7309,-4.7309,-4.7309,-4.7309,-4.7309,-4.7309,-4.7309,-4.7309,-4.7309,-4.7309,-4.7309,-4.7309,-4.7309,-4.7309,-4.7309,-4.7309,-4.7309,-4.7309,-4.7309,-4.7309,-4.7309,-4.7309,-4.7309,-4.7309,-2.024,-2.1984,-2.3714,-2.4178,0.0,-2.8158,-2.9131,0.0,0.0,0.0,0.0,0.0,0.0,0.0,0.0,0.0,0.0,0.0,0.0,0.0,0.0,0.0,0.0,0.0,0.0,0.0,0.0,0.0,0.0,0.0,0.0,0.0,-4.7309,-4.7309,-4.7309,-4.7309,-4.7309,-4.7309,-4.7309,-4.7309,-4.8057,-4.8444,-4.8444,-4.8444,-4.8444,-4.8418,-4.7651,-4.7309,-4.7309,-4.7309,-4.7309,-4.7309,-4.7309,-4.7309,-4.7309,-4.7309,-4.7309,-4.7309,-4.7309,-4.7309,-4.7309,-4.7309,-4.7309,-4.7309,-4.7309,-4.7309,-4.7309,-4.7309,-4.7309,-4.7309,-4.7309,-4.7309,-4.7309,-4.7309,-4.7309,-4.7309,-4.7309,-4.7309,-4.7309,-4.7309,-4.7309,-4.7309,-4.7309,-4.7309,-4.7309,-4.7309,-4.7309,-4.7309,-4.7309,-4.7309,-4.7309,-4.7309,-4.7309,-4.7309,-4.7309,-4.7309,-4.7309,-4.7309,-4.7309,-4.7309,-4.7309,-4.7309,-4.7309,-4.7309,-4.7309,-4.7309,-4.7309,-4.7309,-4.7309,-4.7309,-4.7309,-4.7309,-2.1833,-2.3032,-2.4044,-2.5914,0.0,0.0,-2.8233,0.0,0.0,0.0,0.0,0.0,0.0,0.0,0.0,0.0,0.0,0.0,0.0,0.0,0.0,0.0,0.0,0.0,0.0,0.0,0.0,0.0,0.0,0.0,0.0,0.0,0.0,-4.7309,-4.7309,-4.7309,-4.7309,-4.7309,-4.7309,-4.7309,-4.7381,-4.7424,-4.7424,-4.7424,-4.7424,-4.7424,-4.7337,-4.7309,-4.7309,-4.7309,-4.7309,-4.7309,-4.7309,-4.7309,-4.7309,-4.7309,-4.7309,-4.7309,-4.7309,-4.7309,-4.7309,-4.7309,-4.7309,-4.7309,-4.7309,-4.7309,-4.7309,-4.7309,-4.7309,-4.7309,-4.7309,-4.7309,-4.7309,-4.7309,-4.7309,-4.7309,-4.7309,-4.7309,-4.7309,-4.7309,-4.7309,-4.7309,-4.7309,-4.7309,-4.7309,-4.7309,-4.7309,-4.7309,-4.7309,-4.7309,-4.7309,-4.7309,-4.7309,-4.7309,-4.7309,-4.7309,-4.7309,-4.7309,-4.7309,-4.7309,-4.7309,-4.7309,-4.7309,-4.7309,-4.7309,-4.7309,-4.7309,-4.7309,-4.7309,-4.7309,-4.7309,-4.7309,-2.0565,-2.2488,0.0,0.0,0.0,0.0,0.0,0.0,0.0,0.0,0.0,0.0,0.0,0.0,0.0,0.0,0.0,0.0,0.0,0.0,0.0,0.0,0.0,0.0,0.0,0.0,0.0,0.0,0.0,0.0,0.0,0.0,0.0,-4.7309,-4.7309,-4.7309,-4.7309,-4.7309,-4.7309,-4.7309,-4.7309,-4.7309,-4.7309,-4.7309,-4.7309,-4.7309,-4.7309,-4.7309,-4.7309,-4.7309,-4.7309,-4.7309,-4.7309,-4.7309,-4.7309,-4.7309,-4.7309,-4.7309,-4.7309,-4.7309,-4.7309,-4.7309,-4.7309,-4.7309,-4.7309,-4.7309,-4.7309,-4.7309,-4.7309,-4.7309,-4.7309,-4.7309,-4.7309,-4.7309,-4.7309,-4.7309,-4.7309,-4.7309,-4.7309,-4.7309,-4.7309,-4.7309,-4.7309,-4.7309,-4.7309,-4.7309,-4.7309,-4.7309,-4.7309,-4.7309,-4.7309,-4.7309,-4.7309,-4.7309,-4.7309,-4.7309,-4.7309,-4.7309,-4.7309,-4.7309,-4.7309,-4.7309,-4.7309,-4.7309,-4.7309,-4.7309,-4.7309,-4.7309,-4.7309,-4.7309,-4.7309,-4.7309,-2.0299,-2.2278,-2.4545,0.0,0.0,0.0,0.0,0.0,0.0,0.0,0.0,0.0,0.0,0.0,0.0,0.0,0.0,0.0,0.0,0.0,0.0,0.0,0.0,0.0,0.0,0.0,0.0,0.0,0.0,0.0,0.0,0.0,0.0,0.0,-4.7309,-4.7309,-4.7309,-4.7309,-4.7309,-4.7309,-4.7309,-4.7309,-4.7309,-4.7309,-4.7309,-4.7309,-4.7309,-4.7309,-4.7309,-4.7309,-4.7309,-4.7309,-4.7309,-4.7309,-4.7309,-4.7309,-4.7309,-4.7309,-4.7309,-4.7309,-4.7309,-4.7309,-4.7309,-4.7309,-4.7309,-4.7309,-4.7309,-4.7309,-4.7309,-4.7309,-4.7309,-4.7309,-4.7309,-4.7309,-4.7309,-4.7309,-4.7309,-4.7309,-4.7309,-4.7309,-4.7309,-4.7309,-4.7309,-4.7309,-4.7309,-4.7309,-4.7309,-4.7309,-4.7309,-4.7309,-4.7309,-4.7309,-4.7309,-4.7309,-4.7309,-4.7309,-4.7309,-4.7309,-4.7309,-4.7309,-4.7309,-4.7309,-4.7309,-4.7309,-4.7309,-4.7309,-4.7309,-4.7309,-4.7309,-4.7309,-4.7309,-4.7309,-2.1525,-2.2637,0.0,0.0,0.0,0.0,0.0,0.0,0.0,0.0,0.0,0.0,0.0,0.0,0.0,0.0,0.0,0.0,0.0,0.0,0.0,0.0,0.0,0.0,0.0,0.0,0.0,0.0,0.0,0.0,0.0,0.0,0.0,0.0,-4.7294,-4.7294,-4.7309,-4.7294,-4.7294,-4.7309,-4.7309,-4.7309,-4.7309,-4.7309,-4.7309,-4.7309,-4.7309,-4.7309,-4.7309,-4.7309,-4.7309,-4.7309,-4.7309,-4.7309,-4.7309,-4.7309,-4.7309,-4.7309,-4.7309,-4.7309,-4.7309,-4.7309,-4.7309,-4.7309,-4.7309,-4.7309,-4.7309,-4.7309,-4.7309,-4.7309,-4.7309,-4.7309,-4.7309,-4.7309,-4.7309,-4.7309,-4.7309,-4.7309,-4.7309,-4.7309,-4.7309,-4.7309,-4.7309,-4.7309,-4.7309,-4.7309,-4.7309,-4.7309,-4.7309,-4.7309,-4.7309,-4.7309,-4.7309,-4.7309,-4.7309,-4.7309,-4.7309,-4.7309,-4.7309,-4.7309,-4.7309,-4.7309,-4.7309,-4.7309,-4.7309,-4.7309,-4.7309,-4.7309,-4.7309,-4.7309,-4.7309,-4.7309,-2.0837,-2.331,0.0,0.0,0.0,0.0,0.0,0.0,0.0,0.0,0.0,0.0,0.0,0.0,0.0,0.0,0.0,0.0,0.0,0.0,0.0,0.0,0.0,0.0,0.0,0.0,0.0,0.0,0.0,0.0,0.0,0.0,0.0,0.0,-4.6142,-4.6352,-4.7294,-4.6845,-4.6845,-4.7309,-4.7309,-4.7309,-4.7309,-4.7309,-4.7309,-4.7309,-4.7309,-4.7309,-4.7309,-4.7309,-4.7309,-4.7309,-4.7309,-4.7309,-4.7309,-4.7309,-4.7309,-4.7309,-4.7309,-4.7309,-4.7309,-4.7309,-4.7309,-4.7309,-4.7309,-4.7309,-4.7309,-4.7309,-4.7309,-4.7309,-4.7309,-4.7309,-4.7309,-4.7309,-4.7309,-4.7309,-4.7309,-4.7309,-4.7309,-4.7309,-4.7309,-4.7309,-4.7309,-4.7309,-4.7309,-4.7309,-4.7309,-4.7309,-4.7309,-4.7309,-4.7309,-4.7309,-4.7309,-4.7309,-4.7309,-4.7309,-4.7309,-4.7309,-4.7309,-4.7309,-4.7309,-4.7309,-4.7309,-4.7309,-4.7309,-4.7309,-4.7309,-4.7309,-4.7309,-4.7309,-4.7309,-4.7309,-2.225,0.0,0.0,0.0,0.0,0.0,0.0,0.0,0.0,0.0,0.0,0.0,0.0,0.0,0.0,0.0,0.0,0.0,0.0,0.0,0.0,0.0,0.0,0.0,0.0,0.0,0.0,0.0,0.0,0.0,0.0,0.0,0.0,0.0,-4.5514,-4.5678,-4.6501,-4.6112,-4.6262,-4.692,-4.692,-4.7055,-4.7309,-4.7309,-4.7309,-4.7309,-4.7309,-4.7309,-4.7309,-4.7309,-4.7309,-4.7309,-4.7309,-4.7309,-4.7309,-4.7309,-4.7309,-4.7309,-4.7309,-4.7309,-4.7309,-4.7309,-4.7309,-4.7309,-4.7309,-4.7309,-4.7309,-4.7309,-4.7309,-4.7309,-4.7309,-4.7309,-4.7309,-4.7309,-4.7309,-4.7309,-4.7309,-4.7309,-4.7309,-4.7309,-4.7309,-4.7309,-4.7309,-4.7309,-4.7309,-4.7309,-4.7309,-4.7309,-4.7309,-4.7309,-4.7309,-4.7309,-4.7309,-4.7309,-4.7309,-4.7309,-4.7309,-4.7309,-4.7309,-4.7309,-4.7309,-4.7309,-4.7309,-4.7309,-4.7309,-4.7309,-4.7309,-4.7309,-4.7309,-4.7309,-4.7309,-4.7309,0.0,0.0,0.0,0.0,0.0,0.0,0.0,0.0,0.0,0.0,0.0,0.0,0.0,0.0,0.0,0.0,0.0,0.0,0.0,0.0,0.0,0.0,0.0,0.0,0.0,0.0,0.0,0.0,0.0,0.0,0.0,0.0,0.0,-4.5214,-4.5155,-4.517,-4.5289,-4.5229,-4.5559,0.0,-4.619,-4.6546,-4.713,-4.7249,-4.7309,-4.7309,-4.7309,-4.7309,-4.7309,-4.7309,-4.7309,-4.7309,-4.7309,-4.7309,-4.7309,-4.7309,-4.7309,-4.7309,-4.7309,-4.7309,-4.7309,-4.7309,-4.7309,-4.7309,-4.7309,-4.7309,-4.7309,-4.7309,-4.7309,-4.7309,-4.7309,-4.7309,-4.7309,-4.7309,-4.7309,-4.7309,-4.7309,-4.7309,-4.7309,-4.7309,-4.7309,-4.7309,-4.7309,-4.7309,-4.7309,-4.7309,-4.7309,-4.7309,-4.7309,-4.7309,-4.7309,-4.7309,-4.7309,-4.7309,-4.7309,-4.7309,-4.7309,-4.7309,-4.7309,-4.7309,-4.7309,-4.7309,-4.7309,-4.7309,-4.7309,-4.7309,-4.7309,-4.7309,-4.7309,-4.7309,-4.7309,-4.7309,0.0,0.0,0.0,0.0,0.0,0.0,0.0,0.0,0.0,0.0,0.0,0.0,0.0,0.0,0.0,0.0,0.0,0.0,0.0,0.0,0.0,0.0,0.0,0.0,0.0,0.0,0.0,0.0,0.0,0.0,0.0,0.0,0.0,-4.4511,-4.4018,-4.4257,-4.5289,-4.4781,-4.4855,0.0,-4.5514,-4.5589,-4.5768,-4.6815,-4.7309,-4.7309,-4.7309,-4.7309,-4.7309,-4.7309,-4.7309,-4.7309,-4.7309,-4.7309,-4.7309,-4.7309,-4.7309,-4.7309,-4.7309,-4.7309,-4.7309,-4.7309,-4.7309,-4.7309,-4.7309,-4.7309,-4.7309,-4.7309,-4.7309,-4.7309,-4.7309,-4.7309,-4.7309,-4.7309,-4.7309,-4.7309,-4.7309,-4.7309,-4.7309,-4.7309,-4.7309,-4.7309,-4.7309,-4.7309,-4.7309,-4.7309,-4.7309,-4.7309,-4.7309,-4.7309,-4.7309,-4.7309,-4.7309,-4.7309,-4.7309,-4.7309,-4.7309,-4.7309,-4.7309,-4.7309,-4.7309,-4.7309,-4.7309,-4.7309,-4.7309,-4.7309,-4.7309,-4.7309,-4.7309,-4.7309,-4.7309,-4.7309,0.0,0.0,0.0,0.0,0.0,0.0,0.0,0.0,0.0,0.0,0.0,0.0,0.0,0.0,0.0,0.0,0.0,0.0,0.0,0.0,0.0,0.0,0.0,0.0,0.0,0.0,0.0,0.0,0.0,0.0,0.0,-4.329,-4.3454,-4.3798,-4.3469,-4.3618,-4.4347,-4.4018,-4.4182,-4.4825,-4.4825,-4.499,-4.5334,-4.6367,-4.701,-4.7309,-4.7309,-4.7309,-4.7309,-4.7309,-4.7309,-4.7309,-4.7309,-4.7309,-4.7309,-4.7309,-4.7309,-4.7309,-4.7309,-4.7309,-4.7309,-4.7309,-4.7309,-4.7309,-4.7309,-4.7309,-4.7309,-4.7309,-4.7309,-4.7309,-4.7309,-4.7309,-4.7309,-4.7309,-4.7309,-4.7309,-4.7309,-4.7309,-4.7309,-4.7309,-4.7309,-4.7309,-4.7309,-4.7309,-4.7309,-4.7309,-4.7309,-4.7309,-4.7309,-4.7309,-4.7309,-4.7309,-4.7309,-4.7309,-4.7309,-4.7309,-4.7309,-4.7309,-4.7309,-4.7309,-4.7309,-4.7309,-4.7309,-4.7309,-4.7309,-4.7309,-4.7309,-4.7309,-4.7309,-4.7309,-4.7309,-4.7309,0.0,0.0,0.0,0.0,0.0,0.0,0.0,0.0,0.0,0.0,0.0,0.0,0.0,0.0,0.0,0.0,0.0,0.0,0.0,0.0,0.0,0.0,0.0,0.0,0.0,0.0,0.0,0.0,0.0,0.0,-4.329,-4.329,-4.329,-4.329,-4.329,-4.329,-4.329,-4.329,-4.3559,-4.4152,-4.4152,-4.4481,-4.5155,-4.5723,-4.6396,-4.713,-4.713,-4.7189,-4.7309,-4.7309,-4.7309,-4.7309,-4.7309,-4.7309,-4.7309,-4.7309,-4.7309,-4.7309,-4.7309,-4.7309,-4.7309,-4.7309,-4.7309,-4.7309,-4.7309,-4.7309,-4.7309,-4.7309,-4.7309,-4.7309,-4.7309,-4.7309,-4.7309,-4.7309,-4.7309,-4.7309,-4.7309,-4.7309,-4.7309,-4.7309,-4.7309,-4.7309,-4.7309,-4.7309,-4.7309,-4.7309,-4.7309,-4.7309,-4.7309,-4.7309,-4.7309,-4.7309,-4.7309,-4.7309,-4.7309,-4.7309,-4.7309,-4.7309,-4.7309,-4.7309,-4.7309,-4.7309,-4.7309,-4.7309,-4.7309,-4.7309,-4.7309,-4.7309,-4.7309,-4.7309,-4.7309,-4.7309,0.0,0.0,0.0,0.0,0.0,0.0,0.0,0.0,0.0,0.0,0.0,0.0,0.0,0.0,0.0,0.0,0.0,0.0,0.0,0.0,0.0,0.0,0.0,0.0,0.0,0.0,0.0,0.0,0.0,0.0,-4.329,-4.329,-4.329,-4.329,-4.329,-4.329,-4.329,-4.329,-4.3334,-4.3424,-4.3424,-4.3768,-4.4451,-4.4541,-4.5259,-4.6414,-4.6414,-4.677,-4.7309,-4.7309,-4.7309,-4.7309,-4.7309,-4.7309,-4.7309,-4.7309,-4.7309,-4.7309,-4.7309,-4.7309,-4.7309,-4.7309,-4.7309,-4.7309,-4.7309,-4.7309,-4.7309,-4.7309,-4.7309,-4.7309,-4.7309,-4.7309,-4.7309,-4.7309,-4.7309,-4.7309,-4.7309,-4.7309,-4.7309,-4.7309,-4.7309,-4.7309,-4.7309,-4.7309,-4.7309,-4.7309,-4.7309,-4.7309,-4.7309,-4.7309,-4.7309,-4.7309,-4.7309,-4.7309,-4.7309,-4.7309,-4.7309,-4.7309,-4.7309,-4.7309,-4.7309,-4.7309,-4.7309,-4.7309,-4.7309,-4.7309,-4.7309,-4.7309,-4.7309,-4.7309,-4.7309,-4.7309,0.0,0.0,0.0,0.0,0.0,0.0,0.0,0.0,0.0,0.0,0.0,0.0,0.0,0.0,0.0,0.0,0.0,0.0,0.0,0.0,0.0,0.0,0.0,0.0,0.0,0.0,0.0,0.0,0.0,-4.2791,-4.2791,-4.3135,-4.329,-4.329,-4.329,-4.329,-4.329,-4.329,-4.329,-4.329,-4.329,-4.3439,-4.3723,-4.3723,-4.4481,-4.5753,-4.5753,-4.6127,-4.6756,-4.6756,-4.698,-4.7309,-4.7309,-4.7309,-4.7309,-4.7309,-4.7309,-4.7309,-4.7309,-4.7309,-4.7309,-4.7309,-4.7309,-4.7309,-4.7309,-4.7309,-4.7309,-4.7309,-4.7309,-4.7309,-4.7309,-4.7309,-4.7309,-4.7309,-4.7309,-4.7309,-4.7309,-4.7309,-4.7309,-4.7309,-4.7309,-4.7309,-4.7309,-4.7309,-4.7309,-4.7309,-4.7309,-4.7309,-4.7309,-4.7309,-4.7309,-4.7309,-4.7309,-4.7309,-4.7309,-4.7309,-4.7309,-4.7309,-4.7309,-4.7309,-4.7309,-4.7309,-4.7309,-4.7309,-4.7309,-4.7309,-4.7309,-4.7309,-4.7309,-4.7309,-4.7309,-4.7309,0.0,0.0,0.0,0.0,0.0,0.0,0.0,0.0,0.0,0.0,0.0,0.0,0.0,0.0,0.0,0.0,0.0,0.0,0.0,0.0,0.0,0.0,0.0,0.0,0.0,0.0,0.0,0.0,0.0,-4.2156,-4.2156,-4.2566,-4.2836,-4.2836,-4.3,-4.309,-4.309,-4.32,-4.329,-4.329,-4.329,-4.329,-4.329,-4.329,-4.3828,-4.4811,-4.4975,-4.5439,-4.6082,-4.6204,-4.6563,-4.707,-4.7234,-4.7309,-4.7309,-4.7309,-4.7309,-4.7309,-4.7309,-4.7309,-4.7309,-4.7309,-4.7309,-4.7309,-4.7309,-4.7309,-4.7309,-4.7309,-4.7309,-4.7309,-4.7309,-4.7309,-4.7309,-4.7309,-4.7309,-4.7309,-4.7309,-4.7309,-4.7309,-4.7309,-4.7309,-4.7309,-4.7309,-4.7309,-4.7309,-4.7309,-4.7309,-4.7309,-4.7309,-4.7309,-4.7309,-4.7309,-4.7309,-4.7309,-4.7309,-4.7309,-4.7309,-4.7309,-4.7309,-4.7309,-4.7309,-4.7309,-4.7309,-4.7309,-4.7309,-4.7309,-4.7309,-4.7309,-4.7309,-4.7309,-4.7309,-4.7309,0.0,0.0,0.0,0.0,0.0,0.0,0.0,0.0,0.0,0.0,0.0,0.0,0.0,0.0,0.0,0.0,0.0,0.0,0.0,0.0,0.0,0.0,0.0,0.0,0.0,0.0,0.0,0.0,0.0,-4.1467,-4.1467,-4.1459,-4.1489,-4.1489,-4.2126,-4.2455,-4.2455,-4.3015,-4.329,-4.329,-4.329,-4.329,-4.329,-4.329,-4.3334,-4.3424,-4.4092,-4.4736,-4.5394,-4.6052,-4.6309,-4.6441,-4.7055,-4.7309,-4.7309,-4.7309,-4.7309,-4.7309,-4.7309,-4.7309,-4.7309,-4.7309,-4.7309,-4.7309,-4.7309,-4.7309,-4.7309,-4.7309,-4.7309,-4.7309,-4.7309,-4.7309,-4.7309,-4.7309,-4.7309,-4.7309,-4.7309,-4.7309,-4.7309,-4.7309,-4.7309,-4.7309,-4.7309,-4.7309,-4.7309,-4.7309,-4.7309,-4.7309,-4.7309,-4.7309,-4.7309,-4.7309,-4.7309,-4.7309,-4.7309,-4.7309,-4.7309,-4.7309,-4.7309,-4.7309,-4.7309,-4.7309,-4.7309,-4.7309,-4.7309,-4.7309,-4.7309,-4.7309,-4.7309,-4.7309,-4.7309,-4.7309,0.0,0.0,0.0,0.0,0.0,0.0,0.0,0.0,0.0,0.0,0.0,0.0,0.0,0.0,0.0,0.0,0.0,0.0,0.0,0.0,0.0,0.0,0.0,0.0,0.0,0.0,0.0,0.0,0.0,0.0,-4.0756,-4.1145,-4.1422,-4.1422,-4.1647,-4.1976,-4.2396,-4.262,-4.2925,-4.329,-4.329,-4.329,-4.329,-4.329,-4.329,-4.3305,-4.3544,-4.4062,-4.4691,-4.493,-4.5502,-4.6309,-4.6576,-4.6935,-4.7309,-4.7309,-4.7309,-4.7309,-4.7309,-4.7309,-4.7309,-4.7309,-4.7309,-4.7309,-4.7309,-4.7309,-4.7309,-4.7309,-4.7309,-4.7309,-4.7309,-4.7309,-4.7309,-4.7309,-4.7309,-4.7309,-4.7309,-4.7309,-4.7309,-4.7309,-4.7309,-4.7309,-4.7309,-4.7309,-4.7309,-4.7309,-4.7309,-4.7309,-4.7309,-4.7309,-4.7309,-4.7309,-4.7309,-4.7309,-4.7309,-4.7309,-4.7309,-4.7309,-4.7309,-4.7309,-4.7309,-4.7309,-4.7309,-4.7309,-4.7309,-4.7309,-4.7309,-4.7309,-4.7309,-4.7309,-4.7309,-4.7309,0.0,0.0,0.0,0.0,0.0,0.0,0.0,0.0,0.0,0.0,0.0,0.0,0.0,0.0,0.0,0.0,0.0,0.0,0.0,0.0,0.0,0.0,0.0,0.0,0.0,0.0,0.0,0.0,0.0,0.0,-4.0068,-4.0487,-4.0831,-4.1055,-4.1055,-4.1407,-4.2066,-4.2066,-4.2396,-4.3015,-4.3015,-4.312,-4.329,-4.329,-4.329,-4.329,-4.329,-4.3544,-4.3962,-4.4227,-4.484,-4.5651,-4.61,-4.6591,-4.6995,-4.7219,-4.7309,-4.7309,-4.7309,-4.7309,-4.7309,-4.7309,-4.7309,-4.7309,-4.7309,-4.7309,-4.7309,-4.7309,-4.7309,-4.7309,-4.7309,-4.7309,-4.7309,-4.7309,-4.7309,-4.7309,-4.7309,-4.7309,-4.7309,-4.7309,-4.7309,-4.7309,-4.7309,-4.7309,-4.7309,-4.7309,-4.7309,-4.7309,-4.7309,-4.7309,-4.7309,-4.7309,-4.7309,-4.7309,-4.7309,-4.7309,-4.7309,-4.7309,-4.7309,-4.7309,-4.7309,-4.7309,-4.7309,-4.7309,-4.7309,-4.7309,-4.7309,-4.7309,-4.7309,-4.7309,-4.7309,-4.7309,0.0,0.0,0.0,0.0,0.0,0.0,0.0,0.0,0.0,0.0,0.0,0.0,0.0,0.0,0.0,0.0,0.0,0.0,0.0,0.0,0.0,0.0,0.0,0.0,0.0,0.0,0.0,0.0,0.0,-3.9388,-3.9388,-3.9388,-3.9709,-4.0352,-4.0367,-4.0681,-4.1339,-4.1354,-4.1722,-4.2366,-4.2366,-4.2671,-4.326,-4.326,-4.3275,-4.329,-4.329,-4.329,-4.3349,-4.4018,-4.4302,-4.4451,-4.5711,-4.6234,-4.6324,-4.704,-4.7279,-4.7279,-4.7294,-4.7309,-4.7309,-4.7309,-4.7309,-4.7309,-4.7309,-4.7309,-4.7309,-4.7309,-4.7309,-4.7309,-4.7309,-4.7309,-4.7309,-4.7309,-4.7309,-4.7309,-4.7309,-4.7309,-4.7309,-4.7309,-4.7309,-4.7309,-4.7309,-4.7309,-4.7309,-4.7309,-4.7309,-4.7309,-4.7309,-4.7309,-4.7309,-4.7309,-4.7309,-4.7309,-4.7309,-4.7309,-4.7309,-4.7309,-4.7309,-4.7309,-4.7309,-4.7309,-4.7309,-4.7309,-4.7309,-4.7309,-4.7309,-4.7309,-4.7309,-4.7309,-4.7309,-4.7309,-1.7564,0.0,0.0,0.0,0.0,0.0,0.0,0.0,0.0,0.0,0.0,0.0,0.0,0.0,0.0,0.0,0.0,0.0,0.0,0.0,0.0,0.0,0.0,0.0,0.0,0.0,0.0,0.0,-3.914,-3.9388,-3.9388,-3.9388,-3.9514,-3.9694,-3.9694,-4.0008,-4.0666,-4.0666,-4.0995,-4.1692,-4.1692,-4.2036,-4.2626,-4.2626,-4.2895,-4.329,-4.329,-4.329,-4.3305,-4.3484,-4.3843,-4.4347,-4.4721,-4.5155,-4.5663,-4.6352,-4.6591,-4.6666,-4.7145,-4.7309,-4.7309,-4.7309,-4.7309,-4.7309,-4.7309,-4.7309,-4.7309,-4.7309,-4.7309,-4.7309,-4.7309,-4.7309,-4.7309,-4.7309,-4.7309,-4.7309,-4.7309,-4.7309,-4.7309,-4.7309,-4.7309,-4.7309,-4.7309,-4.7309,-4.7309,-4.7309,-4.7309,-4.7309,-4.7309,-4.7309,-4.7309,-4.7309,-4.7309,-4.7309,-4.7309,-4.7309,-4.7309,-4.7309,-4.7309,-4.7309,-4.7309,-4.7309,-4.7309,-4.7309,-4.7309,-4.7309,-4.7309,-4.7309,-4.7309,-4.7309,-4.7309,-4.7309,-1.8446,-1.9106,0.0,0.0,0.0,0.0,0.0,0.0,0.0,0.0,0.0,0.0,0.0,0.0,0.0,0.0,0.0,0.0,0.0,0.0,0.0,0.0,0.0,0.0,0.0,0.0,0.0,-3.7973,-3.8347,-3.8706,-3.8975,-3.899,-3.9125,-3.9373,-3.9388,-3.9604,-3.9993,-3.9993,-4.0322,-4.0965,-4.0965,-4.1309,-4.1991,-4.2276,-4.2605,-4.294,-4.317,-4.329,-4.329,-4.329,-4.3514,-4.3888,-4.4212,-4.4541,-4.496,-4.5648,-4.6082,-4.6381,-4.677,-4.707,-4.7309,-4.7309,-4.7309,-4.7309,-4.7309,-4.7309,-4.7309,-4.7309,-4.7309,-4.7309,-4.7309,-4.7309,-4.7309,-4.7309,-4.7309,-4.7309,-4.7309,-4.7309,-4.7309,-4.7309,-4.7309,-4.7309,-4.7309,-4.7309,-4.7309,-4.7309,-4.7309,-4.7309,-4.7309,-4.7309,-4.7309,-4.7309,-4.7309,-4.7309,-4.7309,-4.7309,-4.7309,-4.7309,-4.7309,-4.7309,-4.7309,-4.7309,-4.7309,-4.7309,-4.7309,-4.7309,-4.7309,-4.7309,-4.7309,-4.7309,-4.7309,-4.7309,-1.975,-2.0183,-2.138,0.0,0.0,0.0,-2.4268,-2.4253,0.0,0.0,0.0,0.0,0.0,0.0,0.0,0.0,0.0,0.0,0.0,0.0,0.0,0.0,0.0,0.0,0.0,-3.727,-3.73,-3.73,-3.7375,-3.7659,-3.8257,-3.8287,-3.8601,-3.929,-3.9305,-3.9298,-3.9388,-3.9388,-3.9709,-4.0292,-4.0292,-4.0636,-4.1294,-4.1916,-4.2261,-4.2425,-4.297,-4.323,-4.329,-4.329,-4.329,-4.3349,-4.3973,-4.4212,-4.4287,-4.4945,-4.5574,-4.6085,-4.6234,-4.6711,-4.7204,-4.7279,-4.7309,-4.7309,-4.7309,-4.7309,-4.7309,-4.7309,-4.7309,-4.7309,-4.7309,-4.7309,-4.7309,-4.7309,-4.7309,-4.7309,-4.7309,-4.7309,-4.7309,-4.7309,-4.7309,-4.7309,-4.7309,-4.7309,-4.7309,-4.7309,-4.7309,-4.7309,-4.7309,-4.7309,-4.7309,-4.7309,-4.7309,-4.7309,-4.7309,-4.7309,-4.7309,-4.7309,-4.7309,-4.7309,-4.7309,-4.7309,-4.7309,-4.7309,-4.7309,-4.7309,-4.7309,-4.7309,-4.7309,-4.7309,-4.7309,-4.7309,-2.2906,-2.3229,-2.3528,-2.2218,0.0,0.0,0.0,-2.2278,0.0,0.0,0.0,0.0,0.0,0.0,0.0,0.0,0.0,0.0,0.0,0.0,0.0,0.0,0.0,0.0,0.0,-3.6357,-3.6671,-3.6671,-3.7135,-3.7464,-3.7599,-3.7599,-3.7898,-3.8571,-3.8601,-3.8856,-3.9373,-3.9388,-3.9484,-3.9619,-3.9619,-3.9963,-4.0591,-4.0726,-4.1392,-4.241,-4.253,-4.2851,-4.329,-4.329,-4.329,-4.3305,-4.3439,-4.3484,-4.3559,-4.4272,-4.4586,-4.4855,-4.5948,-4.6369,-4.6563,-4.713,-4.7309,-4.7309,-4.7309,-4.7309,-4.7309,-4.7309,-4.7309,-4.7309,-4.7309,-4.7309,-4.7309,-4.7309,-4.7309,-4.7309,-4.7309,-4.7309,-4.7309,-4.7309,-4.7309,-4.7309,-4.7309,-4.7309,-4.7309,-4.7309,-4.7309,-4.7309,-4.7309,-4.7309,-4.7309,-4.7309,-4.7309,-4.7309,-4.7309,-4.7309,-4.7309,-4.7309,-4.7309,-4.7309,-4.7309,-4.7309,-4.7309,-4.7309,-4.7309,-4.7309,-4.7309,-4.7309,-4.7309,-4.7309,-4.7309,-4.7309,-2.4545,-2.4575,-2.4933,-2.4298,0.0,0.0,0.0,0.0,0.0,0.0,0.0,0.0,0.0,0.0,0.0,0.0,0.0,0.0,0.0,0.0,0.0,0.0,0.0,0.0,0.0,-3.5609,-3.5998,-3.5998,-3.6282,-3.6611,-3.6926,-3.6941,-3.724,-3.7883,-3.7898,-3.8212,-3.8901,-3.8901,-3.908,-3.9388,-3.9388,-3.9589,-3.9918,-4.0247,-4.0756,-4.1452,-4.2111,-4.259,-4.2865,-4.317,-4.329,-4.329,-4.329,-4.329,-4.3334,-4.3663,-4.3992,-4.4407,-4.508,-4.5544,-4.5918,-4.6591,-4.6815,-4.6875,-4.7204,-4.7309,-4.7309,-4.7309,-4.7309,-4.7309,-4.7309,-4.7309,-4.7309,-4.7309,-4.7309,-4.7309,-4.7309,-4.7309,-4.7309,-4.7309,-4.7309,-4.7309,-4.7309,-4.7309,-4.7309,-4.7309,-4.7309,-4.7309,-4.7309,-4.7309,-4.7309,-4.7309,-4.7309,-4.7309,-4.7309,-4.7309,-4.7309,-4.7309,-4.7309,-4.7309,-4.7309,-4.7309,-4.7309,-4.7309,-4.7309,-4.7309,-4.7309,-4.7309,-4.7309,-4.7309,-4.7309,-4.7309,0.0,0.0,0.0,0.0,0.0,-2.5076,0.0,0.0,0.0,-2.5211,0.0,0.0,0.0,0.0,0.0,0.0,0.0,0.0,0.0,0.0,0.0,0.0,0.0,0.0,0.0,-3.4367,-3.4816,-3.5459,-3.5026,-3.519,-3.6237,-3.6297,-3.6582,-3.721,-3.724,-3.7539,-3.8197,-3.8332,-3.8661,-3.923,-3.9349,-3.9388,-3.9439,-3.9963,-4.0277,-4.0457,-4.1519,-4.2171,-4.244,-4.294,-4.3185,-4.329,-4.329,-4.329,-4.329,-4.329,-4.3618,-4.4152,-4.4272,-4.4661,-4.5214,-4.5903,-4.6175,-4.6456,-4.7115,-4.7309,-4.7309,-4.7309,-4.7309,-4.7309,-4.7309,-4.7309,-4.7309,-4.7309,-4.7309,-4.7309,-4.7309,-4.7309,-4.7309,-4.7309,-4.7309,-4.7309,-4.7309,-4.7309,-4.7309,-4.7309,-4.7309,-4.7309,-4.7309,-4.7309,-4.7309,-4.7309,-4.7309,-4.7309,-4.7309,-4.7309,-4.7309,-4.7309,-4.7309,-4.7309,-4.7309,-4.7309,-4.7309,-4.7309,-4.7309,-4.7309,-4.7309,-4.7309,-4.7309,-4.7309,-4.7309,-4.7309,0.0,0.0,0.0,0.0,-2.8177,0.0,0.0,0.0,-2.4612,-2.2652,0.0,0.0,0.0,0.0,0.0,0.0,0.0,0.0,0.0,0.0,0.0,0.0,0.0,0.0,0.0,0.0,-3.2302,-3.528,-3.3289,-3.302,-3.5489,-3.5609,-3.5923,-3.6567,-3.6596,-3.6896,-3.7524,-3.8093,-3.8422,-3.8512,-3.9125,-3.9388,-3.9388,-3.9499,-3.9843,-4.0412,-4.0561,-4.128,-4.241,-4.247,-4.2821,-4.329,-4.329,-4.329,-4.329,-4.329,-4.3349,-4.3484,-4.4067,-4.4362,-4.4526,-4.52,-4.5828,-4.6456,-4.7115,-4.7309,-4.7309,-4.7309,-4.7309,-4.7309,-4.7309,-4.7309,-4.7309,-4.7309,-4.7309,-4.7309,-4.7309,-4.7309,-4.7309,-4.7309,-4.7309,-4.7309,-4.7309,-4.7309,-4.7309,-4.7309,-4.7309,-4.7309,-4.7309,-4.7309,-4.7309,-4.7309,-4.7309,-4.7309,-4.7309,-4.7309,-4.7309,-4.7309,-4.7309,-4.7309,-4.7309,-4.7309,-4.7309,-4.7309,-4.7309,-4.7309,-4.7309,-4.7309,-4.7309,-4.7309,-4.7309,-4.7309,0.0,0.0,0.0,0.0,0.0,0.0,-2.5255,0.0,-2.3924,0.0,0.0,0.0,0.0,0.0,0.0,0.0,0.0,0.0,0.0,0.0,0.0,0.0,0.0,0.0,0.0,0.0,0.0,0.0,0.0,-3.2333,-3.4233,-3.5085,-3.5624,-3.5908,-3.5923,-3.6222,-3.6866,-3.7509,-3.8018,-3.8407,-3.9095,-3.9388,-3.9388,-3.9388,-3.9574,-3.9843,-4.0232,-4.0711,-4.128,-4.2081,-4.256,-4.2806,-4.314,-4.329,-4.329,-4.329,-4.329,-4.3334,-4.3604,-4.3708,-4.3813,-4.4511,-4.5454,-4.6324,-4.6651,-4.6995,-4.7309,-4.7309,-4.7309,-4.7309,-4.7309,-4.7309,-4.7309,-4.7309,-4.7309,-4.7309,-4.7309,-4.7309,-4.7309,-4.7309,-4.7309,-4.7309,-4.7309,-4.7309,-4.7309,-4.7309,-4.7309,-4.7309,-4.7309,-4.7309,-4.7309,-4.7309,-4.7309,-4.7309,-4.7309,-4.7309,-4.7309,-4.7309,-4.7309,-4.7309,-4.7309,-4.7309,-4.7309,-4.7309,-4.7309,-4.7309,-4.7309,-4.7309,-4.7309,-4.7309,-4.7309,-4.7309,-3.0746,0.0,0.0,0.0,0.0,0.0,0.0,0.0,0.0,0.0,0.0,0.0,0.0,0.0,0.0,0.0,0.0,0.0,0.0,0.0,0.0,0.0,0.0,0.0,0.0,0.0,0.0,0.0,0.0,0.0,-3.3365,-3.4412,-3.513,-3.5489,-3.5504,-3.5729,-3.6207,-3.6836,-3.7479,-3.8123,-3.8811,-3.923,-3.9388,-3.9388,-3.9388,-3.9454,-3.9918,-4.0232,-4.0472,-4.1467,-4.2066,-4.244,-4.288,-4.3125,-4.329,-4.329,-4.329,-4.329,-4.329,-4.329,-4.3409,-4.4067,-4.4975,-4.5843,-4.6175,-4.6651,-4.707,-4.7249,-4.7309,-4.7309,-4.7309,-4.7309,-4.7309,-4.7309,-4.7309,-4.7309,-4.7309,-4.7309,-4.7309,-4.7309,-4.7309,-4.7309,-4.7309,-4.7309,-4.7309,-4.7309,-4.7309,-4.7309,-4.7309,-4.7309,-4.7309,-4.7309,-4.7309,-4.7309,-4.7309,-4.7309,-4.7309,-4.7309,-4.7309,-4.7309,-4.7309,-4.7309,-4.7309,-4.7309,-4.7309,-4.7309,-4.7309,-4.7309,-4.7309,-4.7309,-4.7309,-4.7309,0.0,0.0,0.0,-2.8783,0.0,0.0,0.0,0.0,-2.6123,0.0,0.0,0.0,0.0,0.0,-2.4096,-2.2897,0.0,0.0,0.0,0.0,0.0,0.0,0.0,0.0,0.0,0.0,0.0,0.0,0.0,0.0,-3.3215,-3.3529,-3.4158,-3.5474,-3.5504,-3.5519,-3.5534,-3.6193,-3.6821,-3.7449,-3.8108,-3.8766,-3.9388,-3.9388,-3.9388,-3.9388,-3.9403,-3.9813,-4.0397,-4.0442,-4.1205,-4.2396,-4.2425,-4.2776,-4.329,-4.329,-4.329,-4.329,-4.329,-4.329,-4.3409,-4.4067,-4.4347,-4.4631,-4.5891,-4.6337,-4.6486,-4.713,-4.7309,-4.7309,-4.7309,-4.7309,-4.7309,-4.7309,-4.7309,-4.7309,-4.7309,-4.7309,-4.7309,-4.7309,-4.7309,-4.7309,-4.7309,-4.7309,-4.7309,-4.7309,-4.7309,-4.7309,-4.7309,-4.7309,-4.7309,-4.7309,-4.7309,-4.7309,-4.7309,-4.7309,-4.7309,-4.7309,-4.7309,-4.7309,-4.7309,-4.7309,-4.7309,-4.7309,-4.7309,-4.7309,-4.7309,-4.7309,-4.7309,-4.7309,-4.7309,-4.7309,0.0,0.0,-3.3815,-3.0911,0.0,0.0,0.0,0.0,0.0,0.0,0.0,0.0,0.0,0.0,-2.4306,-2.343,-2.2598,0.0,0.0,0.0,0.0,0.0,0.0,0.0,0.0,0.0,0.0,0.0,0.0,0.0,0.0,-3.3185,-3.4352,-3.4801,-3.5265,-3.5504,-3.5504,-3.6148,-3.6791,-3.7419,-3.8078,-3.8751,-3.9388,-3.9388,-3.9388,-3.9388,-3.9388,-3.9544,-3.9783,-4.0217,-4.092,-4.1796,-4.2231,-4.2761,-4.329,-4.329,-4.329,-4.329,-4.329,-4.329,-4.3334,-4.3544,-4.3958,-4.4481,-4.5379,-4.5963,-4.6456,-4.7115,-4.7309,-4.7309,-4.7309,-4.7309,-4.7309,-4.7309,-4.7309,-4.7309,-4.7309,-4.7309,-4.7309,-4.7309,-4.7309,-4.7309,-4.7309,-4.7309,-4.7309,-4.7309,-4.7309,-4.7309,-4.7309,-4.7309,-4.7309,-4.7309,-4.7309,-4.7309,-4.7309,-4.7309,-4.7309,-4.7309,-4.7309,-4.7309,-4.7309,-4.7309,-4.7309,-4.7309,-4.7309,-4.7309,-4.7309,-4.7309,-4.7309,-4.7309,-4.7309,-4.7309,-3.3903,-3.4369,0.0,-3.2064,-3.1076,0.0,-2.7525,0.0,0.0,0.0,0.0,0.0,0.0,0.0,-2.4976,-2.3981,-2.2821,-2.165,0.0,0.0,0.0,0.0,0.0,0.0,0.0,0.0,-2.3513,-2.5113,0.0,0.0,0.0,0.0,-3.3754,-3.4488,-3.5145,-3.5504,-3.5504,-3.5923,-3.6447,-3.709,-3.7734,-3.8392,-3.9065,-3.9305,-3.9388,-3.9388,-3.9388,-3.9388,-3.9418,-3.9873,-4.0442,-4.11,-4.1796,-4.2417,-4.3015,-4.32,-4.329,-4.329,-4.329,-4.329,-4.329,-4.329,-4.3574,-4.4092,-4.4751,-4.5424,-4.6097,-4.677,-4.713,-4.7309,-4.7309,-4.7309,-4.7309,-4.7309,-4.7309,-4.7309,-4.7309,-4.7309,-4.7309,-4.7309,-4.7309,-4.7309,-4.7309,-4.7309,-4.7309,-4.7309,-4.7309,-4.7309,-4.7309,-4.7309,-4.7309,-4.7309,-4.7309,-4.7309,-4.7309,-4.7309,-4.7309,-4.7309,-4.7309,-4.7309,-4.7309,-4.7309,-4.7309,-4.7309,-4.7309,-4.7309,-4.7309,-4.7309,-4.7309,-4.7309,-4.7309,-4.7309]}]]